[[{"header":{"parameterUnit":"m.s-1","parameterCategory":1,"la1":31.0,"la2":29.5877,"lo1":-88.7671,"lo2":-86.6584,"dy":0.0162,"dx":0.0185,"nx":115,"ny":88,"refTime":"2023-09-02T06:00:00:Z","depth":0,"parameterNumber":2,"parameterNumberName":"U-component_of_WINDS"},"data":[0.0,0.0,0.0,0.0,0.0,0.0,0.0,0.0,0.0,0.0,0.0,0.0,0.0,0.0,0.0,0.0,0.0,0.0,0.0,0.0,0.0,0.0,0.0,0.0,0.0,0.0,0.0,0.0,0.0,0.0,0.0,0.0,0.0,0.0,0.0,0.0,0.0,0.0,0.0,0.0,0.0,0.0,0.0,0.0,0.0,0.0,0.0,0.0,0.0,0.0,0.0,0.0,0.0,0.0,0.0,0.0,0.0,0.0,0.0,0.0,0.0,0.0,0.0,0.0,0.0,0.0,0.0,0.0,0.0,0.0,0.0,0.0,0.0,0.0,0.0,0.0,0.0,0.0,0.0,0.0,0.0,0.0,0.0,0.0,0.0,0.0,0.0,0.0,0.0,0.0,0.0,0.0,0.0,0.0,0.0,0.0,0.0,0.0,0.0,0.0,0.0,0.0,0.0,0.0,0.0,0.0,0.0,0.0,0.0,0.0,0.0,0.0,0.0,0.0,0.0,0.0,0.0,0.0,0.0,0.0,0.0,0.0,0.0,0.0,0.0,0.0,0.0,0.0,0.0,0.0,0.0,0.0,0.0,0.0,0.0,0.0,0.0,0.0,0.0,0.0,0.0,0.0,0.0,0.0,0.0,0.0,0.0,0.0,0.0,0.0,0.0,0.0,0.0,0.0,0.0,0.0,0.0,0.0,0.0,0.0,0.0,0.0,0.0,0.0,0.0,0.0,0.0,0.0,0.0,0.0,0.0,0.0,0.0,0.0,0.0,0.0,0.0,0.0,0.0,0.0,0.0,0.0,0.0,0.0,0.0,0.0,0.0,0.0,0.0,0.0,0.0,0.0,0.0,0.0,0.0,0.0,0.0,0.0,0.0,0.0,0.0,0.0,0.0,0.0,0.0,0.0,0.0,0.0,0.0,0.0,0.0,0.0,0.0,0.0,0.0,0.0,0.0,0.0,0.0,0.0,0.0,0.0,0.0,0.0,0.0,0.0,0.0,0.0,0.0,0.0,0.0,0.0,0.0,0.0,0.0,0.0,0.0,0.0,0.0,0.0,0.0,0.0,0.0,0.0,0.0,0.0,0.0,0.0,0.0,0.0,0.0,0.0,0.0,0.0,0.0,0.0,0.0,0.0,0.0,0.0,0.0,0.0,0.0,0.0,0.0,0.0,0.0,0.0,0.0,0.0,0.0,0.0,0.0,0.0,0.0,0.0,0.0,0.0,0.0,0.0,0.0,0.0,0.0,0.0,0.0,0.0,0.0,0.0,0.0,0.0,0.0,0.0,0.0,0.0,0.0,0.0,0.0,0.0,0.0,0.0,0.0,0.0,0.0,0.0,0.0,0.0,0.0,0.0,0.0,0.0,0.0,0.0,0.0,0.0,0.0,0.0,0.0,0.0,0.0,0.0,0.0,0.0,0.0,0.0,0.0,0.0,0.0,0.0,0.0,0.0,0.0,0.0,0.0,0.0,0.0,0.0,0.0,0.0,0.0,0.0,0.0,0.0,0.0,0.0,0.0,0.0,0.0,0.0,0.0,0.0,0.0,0.0,0.0,0.0,0.0,0.0,0.0,0.0,0.0,0.0,0.0,0.0,0.0,0.0,0.0,0.0,0.0,0.0,0.0,0.0,0.0,0.0,0.0,0.0,0.0,0.0,0.0,0.0,0.0,0.0,0.0,0.0,0.0,0.0,0.0,0.0,0.0,0.0,0.0,0.0,0.0,0.0,0.0,0.0,0.0,0.0,0.0,0.0,0.0,0.0,0.0,0.0,0.0,0.0,0.0,0.0,0.0,0.0,0.0,0.0,0.0,0.0,0.0,0.0,0.0,0.0,0.0,0.0,0.0,0.0,0.0,0.0,0.0,0.0,0.0,0.0,0.0,0.0,0.0,0.0,0.0,0.0,0.0,0.0,0.0,0.0,0.0,0.0,0.0,0.0,0.0,0.0,0.0,0.0,0.0,0.0,0.0,0.0,0.0,0.0,0.0,0.0,0.0,0.0,0.0,0.0,0.0,0.0,0.0,0.0,0.0,0.0,0.0,0.0,0.0,0.0,0.0,0.0,0.0,0.0,0.0,0.0,0.0,0.0,0.0,0.0,0.0,0.0,0.0,0.0,0.0,0.0,0.0,0.0,0.0,0.0,0.0,0.0,0.0,0.0,0.0,0.0,0.0,0.0,0.0,0.0,0.0,0.0,0.0,0.0,0.0,0.0,0.0,0.0,0.0,0.0,0.0,0.0,0.0,0.0,0.0,0.0,0.0,0.0,0.0,0.0,0.0,0.0,0.0,0.0,0.0,0.0,0.0,0.0,0.0,0.0,0.0,0.0,0.0,0.0,0.0,0.0,0.0,0.0,0.0,0.0,0.0,0.0,0.0,0.0,0.0,0.0,0.0,0.0,0.0,0.0,0.0,0.0,0.0,0.0,0.0,0.0,0.0,0.0,0.0,0.0,0.0,0.0,0.0,0.0,0.0,0.0,0.0,0.0,0.0,0.0,0.0,0.0,0.0,0.0,0.0,0.0,0.0,0.0,0.0,0.0,0.0,0.0,0.0,0.0,0.0,0.0,0.0,0.0,0.0,0.0,0.0,0.0,0.0,0.0,0.0,0.0,0.0,0.0,0.0,0.0,0.0,0.0,0.0,0.0,0.0,0.0,0.0,0.0,0.0,0.0,0.0,0.0,0.0,0.0,0.0,0.0,0.0,0.0,0.0,0.0,0.0,0.0,0.0,0.0,0.0,0.0,0.0,0.0,0.0,0.0,0.0,0.0,0.0,0.0,0.0,0.0,0.0,0.0,0.0,0.0,0.0,0.0,0.0,0.0,0.0,0.0,0.0,0.0,0.0,0.0,0.0,0.0,0.0,0.0,0.0,0.0,0.0,0.0,0.0,0.0,0.0,0.0,0.0,0.0,0.0,0.0,0.0,0.0,0.0,0.0,0.0,0.0,0.0,0.0,0.0,0.0,0.0,0.0,0.0,0.0,0.0,0.0,0.0,0.0,0.0,0.0,0.0,0.0,0.0,0.0,0.0,0.0,0.0,0.0,0.0,0.0,0.0,0.0,0.0,0.0,0.0,0.0,0.0,0.0,0.0,0.0,0.0,0.0,0.0,0.0,0.0,0.0,0.0,0.0,0.0,0.0,0.0,0.0,0.0,0.0,0.0,0.0,0.0,0.0,0.0,0.0,0.0,0.0,0.0,0.0,0.0,0.0,0.0,0.0,0.0,0.0,0.0,0.0,0.0,0.0,0.0,0.0,0.0,0.0,0.0,0.0,0.0,0.0,0.0,0.0,0.0,0.0,0.0,0.0,0.0,0.0,0.0,0.0,0.0,0.0,0.0,0.0,0.0,0.0,0.0,0.0,0.0,0.0,0.0,0.0,0.0,0.0,0.0,0.0,0.0,0.0,0.0,0.0,0.0,0.0,0.0,0.0,0.0,0.0,0.0,0.0,0.0,0.0,0.0,0.0,0.0,0.0,0.0,0.0,0.0,0.0,0.0,0.0,0.0,0.0,0.0,0.0,0.0,0.0,0.0,0.0,0.0,0.0,0.0,0.0,0.0,0.0,0.0,0.0,0.0,0.0,0.0,0.0,0.0,0.0,0.0,0.0,0.0,0.0,0.0,0.0,0.0,0.0,0.0,0.0,0.0,0.0,0.0,0.0,0.0,0.0,0.0,0.0,0.0,0.0,0.0,0.0,0.0,0.0,0.0,0.0,0.0,0.0,0.0,0.0,0.0,0.0,0.0,0.0,0.0,0.0,0.0,0.0,0.0,0.0,0.0,0.0,0.0,0.0,0.0,0.0,0.0,0.0,0.0,0.0,0.0,0.0,0.0,0.0,0.0,0.0,0.0,0.0,0.0,0.0,0.0,0.0,0.0,0.0,0.0,0.0,0.0,0.0,0.0,0.0,0.0,0.0,0.0,0.0,0.0,0.0,0.0,0.0,0.0,0.0,0.0,0.0,0.0,0.0,0.0,0.0,0.0,0.0,0.0,0.0,0.0,0.0,0.0,0.0,0.0,0.0,0.0,0.0,0.0,0.0,0.0,0.0,0.0,0.0,0.0,0.0,0.0,0.0,0.0,0.0,0.0,0.0,0.0,0.0,0.0,0.0,0.0,0.0,0.0,0.0,0.0,0.0,0.0,0.0,0.0,0.0,0.0,0.0,0.0,0.0,0.0,0.0,0.0,0.0,0.0,0.0,0.0,0.0,0.0,0.0,0.0,0.0,0.0,0.0,0.0,0.0,0.0,0.0,0.0,0.0,-1.969,0.0,0.0,0.0,0.0,0.0,0.0,0.0,0.0,0.0,0.0,0.0,0.0,0.0,0.0,0.0,0.0,0.0,0.0,0.0,0.0,0.0,0.0,0.0,0.0,0.0,0.0,0.0,0.0,0.0,0.0,0.0,0.0,0.0,0.0,0.0,0.0,0.0,0.0,0.0,0.0,0.0,0.0,0.0,0.0,0.0,0.0,0.0,0.0,0.0,0.0,0.0,0.0,0.0,0.0,0.0,0.0,0.0,0.0,0.0,0.0,0.0,0.0,0.0,0.0,0.0,0.0,0.0,0.0,0.0,0.0,0.0,0.0,0.0,0.0,0.0,0.0,0.0,0.0,0.0,0.0,0.0,0.0,0.0,0.0,0.0,0.0,0.0,0.0,0.0,0.0,0.0,0.0,0.0,0.0,0.0,0.0,0.0,0.0,0.0,0.0,0.0,0.0,0.0,0.0,0.0,0.0,0.0,0.0,0.0,0.0,-2.0195,-2.0035,-1.9803,-1.9566,-1.9262,0.0,0.0,0.0,0.0,0.0,0.0,0.0,0.0,0.0,0.0,0.0,0.0,0.0,0.0,0.0,0.0,0.0,0.0,0.0,0.0,0.0,0.0,0.0,0.0,0.0,0.0,0.0,0.0,0.0,0.0,0.0,0.0,0.0,0.0,0.0,0.0,0.0,0.0,0.0,0.0,0.0,0.0,0.0,0.0,0.0,0.0,0.0,0.0,0.0,0.0,0.0,0.0,0.0,0.0,0.0,0.0,0.0,0.0,0.0,0.0,0.0,0.0,0.0,0.0,0.0,0.0,0.0,0.0,0.0,0.0,0.0,0.0,0.0,0.0,0.0,0.0,0.0,0.0,0.0,0.0,0.0,0.0,0.0,0.0,0.0,0.0,0.0,0.0,0.0,0.0,0.0,0.0,0.0,0.0,0.0,0.0,0.0,0.0,0.0,0.0,0.0,0.0,0.0,0.0,0.0,0.0,0.0,0.0,0.0,0.0,0.0,0.0,-2.0839,-2.0292,-1.9623,0.0,0.0,0.0,0.0,0.0,0.0,0.0,0.0,0.0,0.0,0.0,0.0,0.0,0.0,0.0,0.0,0.0,0.0,0.0,0.0,0.0,0.0,0.0,0.0,0.0,0.0,0.0,0.0,0.0,0.0,0.0,0.0,0.0,0.0,0.0,0.0,0.0,0.0,0.0,0.0,0.0,0.0,0.0,0.0,0.0,0.0,0.0,0.0,0.0,0.0,0.0,0.0,0.0,0.0,0.0,0.0,0.0,0.0,0.0,0.0,0.0,0.0,0.0,0.0,0.0,0.0,0.0,0.0,0.0,0.0,0.0,0.0,0.0,0.0,0.0,0.0,0.0,0.0,0.0,0.0,0.0,0.0,0.0,0.0,0.0,0.0,0.0,0.0,0.0,0.0,0.0,0.0,0.0,0.0,0.0,0.0,0.0,0.0,0.0,0.0,0.0,0.0,0.0,0.0,0.0,0.0,0.0,0.0,0.0,0.0,-2.2152,-2.4139,-2.3571,0.0,-2.178,0.0,0.0,0.0,0.0,0.0,0.0,0.0,0.0,0.0,0.0,0.0,0.0,0.0,0.0,0.0,0.0,0.0,0.0,0.0,0.0,0.0,0.0,0.0,0.0,0.0,0.0,0.0,0.0,0.0,0.0,0.0,0.0,0.0,0.0,0.0,0.0,0.0,0.0,0.0,0.0,0.0,0.0,0.0,0.0,0.0,0.0,0.0,0.0,0.0,0.0,0.0,0.0,0.0,0.0,0.0,0.0,0.0,0.0,0.0,0.0,0.0,0.0,0.0,0.0,0.0,0.0,0.0,0.0,0.0,0.0,0.0,0.0,0.0,0.0,0.0,0.0,0.0,0.0,0.0,0.0,0.0,0.0,0.0,0.0,0.0,0.0,0.0,0.0,0.0,0.0,0.0,0.0,0.0,0.0,0.0,0.0,0.0,0.0,0.0,0.0,0.0,0.0,0.0,0.0,0.0,0.0,0.0,0.0,0.0,0.0,-2.3313,-2.4974,-2.3829,-2.2482,0.0,0.0,0.0,0.0,0.0,0.0,0.0,0.0,0.0,0.0,0.0,0.0,0.0,0.0,0.0,0.0,0.0,0.0,0.0,0.0,0.0,0.0,0.0,0.0,0.0,0.0,0.0,0.0,0.0,0.0,0.0,0.0,0.0,0.0,0.0,0.0,0.0,0.0,0.0,0.0,0.0,0.0,0.0,0.0,0.0,0.0,0.0,0.0,0.0,0.0,0.0,0.0,0.0,0.0,0.0,0.0,0.0,0.0,0.0,0.0,0.0,0.0,0.0,0.0,0.0,0.0,0.0,0.0,0.0,0.0,0.0,0.0,0.0,0.0,0.0,0.0,0.0,0.0,0.0,0.0,0.0,0.0,0.0,0.0,0.0,0.0,0.0,0.0,0.0,0.0,0.0,0.0,0.0,0.0,0.0,0.0,0.0,0.0,0.0,0.0,0.0,0.0,0.0,0.0,0.0,0.0,0.0,0.0,0.0,0.0,-2.4241,-2.4649,-2.6016,-2.4161,-2.2472,-2.1192,0.0,0.0,0.0,0.0,0.0,0.0,0.0,0.0,0.0,0.0,0.0,0.0,0.0,0.0,0.0,0.0,0.0,0.0,0.0,0.0,0.0,0.0,0.0,0.0,0.0,0.0,0.0,0.0,0.0,0.0,0.0,0.0,0.0,0.0,0.0,0.0,0.0,0.0,0.0,0.0,0.0,0.0,0.0,0.0,0.0,0.0,0.0,0.0,0.0,0.0,0.0,0.0,0.0,0.0,0.0,0.0,0.0,0.0,0.0,0.0,0.0,0.0,0.0,0.0,0.0,0.0,0.0,0.0,0.0,0.0,0.0,0.0,0.0,0.0,0.0,0.0,0.0,0.0,0.0,0.0,0.0,0.0,0.0,0.0,0.0,0.0,0.0,0.0,0.0,0.0,0.0,0.0,0.0,0.0,0.0,0.0,0.0,0.0,0.0,0.0,0.0,0.0,0.0,0.0,0.0,0.0,0.0,0.0,-2.8854,-2.6726,-2.6417,-2.8229,-2.5218,-2.3544,0.0,0.0,0.0,0.0,0.0,0.0,0.0,0.0,0.0,0.0,0.0,0.0,0.0,0.0,0.0,0.0,0.0,0.0,0.0,0.0,0.0,0.0,0.0,0.0,0.0,0.0,0.0,0.0,0.0,0.0,0.0,0.0,0.0,0.0,0.0,0.0,0.0,0.0,0.0,0.0,0.0,0.0,0.0,0.0,0.0,0.0,0.0,0.0,0.0,0.0,0.0,0.0,0.0,0.0,0.0,0.0,0.0,0.0,0.0,0.0,0.0,0.0,0.0,0.0,0.0,0.0,0.0,0.0,0.0,0.0,0.0,0.0,0.0,0.0,0.0,0.0,0.0,0.0,0.0,0.0,0.0,0.0,0.0,0.0,0.0,0.0,0.0,0.0,0.0,0.0,0.0,0.0,0.0,0.0,0.0,0.0,0.0,0.0,0.0,0.0,0.0,0.0,0.0,0.0,0.0,0.0,0.0,0.0,0.0,-2.395,-2.4647,-2.5905,-2.7769,-2.5136,-2.3902,0.0,0.0,0.0,0.0,0.0,0.0,0.0,0.0,0.0,0.0,0.0,0.0,0.0,0.0,0.0,0.0,0.0,0.0,0.0,0.0,0.0,0.0,0.0,0.0,0.0,0.0,0.0,0.0,0.0,0.0,0.0,0.0,0.0,0.0,0.0,0.0,0.0,0.0,0.0,0.0,0.0,0.0,0.0,0.0,0.0,0.0,0.0,0.0,0.0,0.0,0.0,0.0,0.0,0.0,0.0,0.0,0.0,0.0,0.0,0.0,0.0,0.0,0.0,0.0,0.0,0.0,0.0,0.0,0.0,0.0,0.0,0.0,0.0,0.0,0.0,0.0,0.0,0.0,0.0,0.0,0.0,0.0,0.0,0.0,0.0,0.0,0.0,0.0,0.0,0.0,0.0,0.0,0.0,0.0,0.0,0.0,0.0,0.0,0.0,0.0,0.0,0.0,0.0,0.0,0.0,0.0,0.0,0.0,0.0,-2.2699,0.0,-2.7287,-2.7375,-2.5647,-2.4234,0.0,0.0,0.0,0.0,0.0,0.0,0.0,0.0,0.0,0.0,0.0,0.0,0.0,0.0,0.0,0.0,0.0,0.0,0.0,0.0,0.0,0.0,0.0,0.0,0.0,0.0,0.0,0.0,0.0,0.0,0.0,0.0,0.0,0.0,0.0,0.0,0.0,0.0,0.0,0.0,0.0,0.0,0.0,0.0,0.0,0.0,0.0,0.0,0.0,0.0,0.0,0.0,0.0,0.0,0.0,0.0,0.0,0.0,0.0,0.0,0.0,0.0,0.0,0.0,0.0,0.0,0.0,0.0,0.0,0.0,0.0,0.0,0.0,0.0,0.0,0.0,0.0,0.0,0.0,0.0,0.0,0.0,0.0,0.0,0.0,0.0,0.0,0.0,0.0,0.0,0.0,0.0,0.0,0.0,0.0,0.0,0.0,0.0,0.0,0.0,0.0,0.0,0.0,0.0,0.0,0.0,0.0,0.0,-2.2111,-2.6175,-3.0032,-3.0309,-2.7337,-2.6632,-2.4462,0.0,0.0,0.0,0.0,0.0,0.0,0.0,0.0,0.0,0.0,0.0,0.0,0.0,0.0,0.0,0.0,0.0,0.0,0.0,0.0,0.0,0.0,0.0,0.0,0.0,0.0,0.0,0.0,0.0,0.0,0.0,0.0,0.0,0.0,0.0,0.0,0.0,0.0,0.0,0.0,0.0,0.0,0.0,0.0,0.0,0.0,0.0,0.0,0.0,0.0,0.0,0.0,0.0,0.0,0.0,0.0,0.0,0.0,0.0,0.0,0.0,0.0,0.0,0.0,0.0,0.0,0.0,0.0,0.0,0.0,0.0,0.0,0.0,0.0,0.0,0.0,0.0,0.0,0.0,0.0,0.0,0.0,0.0,0.0,0.0,0.0,0.0,0.0,0.0,0.0,0.0,0.0,0.0,0.0,0.0,0.0,0.0,0.0,0.0,0.0,0.0,0.0,0.0,0.0,0.0,0.0,0.0,0.0,0.0,-2.2487,-2.5117,-2.6914,-2.7484,-2.4654,-2.3663,0.0,0.0,0.0,0.0,0.0,0.0,0.0,0.0,0.0,0.0,0.0,0.0,0.0,0.0,0.0,0.0,0.0,0.0,0.0,0.0,0.0,0.0,0.0,0.0,0.0,0.0,0.0,0.0,0.0,0.0,0.0,0.0,0.0,0.0,0.0,0.0,0.0,0.0,0.0,0.0,0.0,0.0,0.0,0.0,0.0,0.0,0.0,0.0,0.0,0.0,0.0,0.0,0.0,0.0,0.0,0.0,0.0,0.0,0.0,0.0,0.0,0.0,0.0,0.0,0.0,0.0,0.0,0.0,0.0,0.0,0.0,0.0,0.0,0.0,0.0,0.0,0.0,0.0,0.0,0.0,0.0,0.0,0.0,0.0,0.0,0.0,0.0,0.0,0.0,0.0,0.0,0.0,0.0,0.0,0.0,0.0,0.0,0.0,0.0,0.0,0.0,0.0,0.0,0.0,0.0,0.0,0.0,0.0,0.0,-2.3024,-2.5646,-2.7192,-2.7317,-2.4651,-2.3587,-2.423,0.0,0.0,0.0,0.0,0.0,0.0,0.0,0.0,0.0,0.0,0.0,0.0,0.0,0.0,0.0,0.0,0.0,0.0,0.0,0.0,0.0,0.0,0.0,0.0,0.0,0.0,0.0,0.0,0.0,0.0,0.0,0.0,0.0,0.0,0.0,0.0,0.0,0.0,0.0,0.0,0.0,0.0,0.0,0.0,0.0,0.0,0.0,0.0,0.0,0.0,0.0,0.0,0.0,0.0,0.0,0.0,0.0,0.0,0.0,0.0,0.0,0.0,0.0,0.0,0.0,0.0,0.0,0.0,0.0,0.0,0.0,0.0,0.0,0.0,0.0,0.0,0.0,0.0,0.0,0.0,0.0,0.0,0.0,0.0,0.0,0.0,0.0,0.0,0.0,0.0,0.0,0.0,0.0,0.0,0.0,0.0,0.0,0.0,0.0,0.0,0.0,0.0,0.0,0.0,0.0,0.0,0.0,0.0,-2.6587,-3.049,-3.0681,-2.6905,-2.6316,-2.4233,0.0,0.0,0.0,0.0,0.0,0.0,0.0,0.0,0.0,0.0,0.0,0.0,0.0,0.0,0.0,0.0,0.0,0.0,0.0,0.0,0.0,0.0,0.0,0.0,0.0,0.0,0.0,0.0,0.0,0.0,0.0,0.0,0.0,0.0,0.0,0.0,0.0,0.0,0.0,0.0,0.0,0.0,0.0,0.0,0.0,0.0,0.0,0.0,0.0,0.0,0.0,0.0,0.0,0.0,0.0,0.0,0.0,0.0,0.0,0.0,0.0,0.0,0.0,0.0,0.0,0.0,0.0,0.0,0.0,0.0,0.0,0.0,0.0,0.0,0.0,0.0,0.0,0.0,0.0,0.0,0.0,0.0,0.0,0.0,0.0,0.0,0.0,0.0,0.0,0.0,0.0,0.0,0.0,0.0,0.0,0.0,0.0,0.0,0.0,0.0,0.0,0.0,0.0,0.0,0.0,0.0,0.0,0.0,0.0,-2.7756,-3.0727,-3.1403,-2.9554,-2.6692,-2.4855,0.0,0.0,0.0,0.0,0.0,0.0,0.0,0.0,0.0,0.0,0.0,0.0,0.0,0.0,0.0,0.0,0.0,0.0,0.0,0.0,0.0,0.0,0.0,0.0,0.0,0.0,0.0,0.0,0.0,0.0,0.0,0.0,0.0,0.0,0.0,0.0,0.0,0.0,0.0,0.0,0.0,0.0,0.0,0.0,0.0,0.0,0.0,0.0,0.0,0.0,0.0,0.0,0.0,0.0,0.0,0.0,0.0,0.0,0.0,0.0,0.0,0.0,0.0,0.0,0.0,0.0,0.0,0.0,0.0,0.0,0.0,0.0,0.0,0.0,0.0,0.0,0.0,0.0,0.0,0.0,0.0,0.0,0.0,0.0,0.0,0.0,0.0,0.0,0.0,0.0,0.0,0.0,0.0,0.0,0.0,0.0,0.0,0.0,0.0,0.0,0.0,0.0,0.0,0.0,0.0,0.0,0.0,0.0,-2.8273,-2.9804,-3.1851,-3.2629,-3.2014,-2.8699,-2.6151,0.0,0.0,0.0,0.0,0.0,0.0,0.0,0.0,0.0,0.0,0.0,0.0,0.0,0.0,0.0,0.0,0.0,0.0,0.0,0.0,0.0,0.0,0.0,0.0,0.0,0.0,0.0,0.0,0.0,0.0,0.0,0.0,0.0,0.0,0.0,0.0,0.0,0.0,0.0,0.0,0.0,0.0,0.0,0.0,0.0,0.0,0.0,0.0,0.0,0.0,0.0,0.0,0.0,0.0,0.0,0.0,0.0,0.0,0.0,0.0,0.0,0.0,0.0,0.0,0.0,0.0,0.0,0.0,0.0,0.0,0.0,0.0,0.0,0.0,0.0,0.0,0.0,0.0,0.0,0.0,0.0,0.0,0.0,0.0,0.0,0.0,0.0,0.0,0.0,0.0,0.0,0.0,0.0,0.0,0.0,0.0,0.0,0.0,0.0,0.0,0.0,0.0,0.0,0.0,0.0,0.0,0.0,0.0,-3.0066,-3.2177,-3.337,-3.396,-3.3822,-3.1122,-2.767,0.0,0.0,0.0,0.0,0.0,0.0,0.0,0.0,0.0,0.0,0.0,0.0,0.0,0.0,0.0,0.0,0.0,0.0,0.0,0.0,0.0,0.0,0.0,0.0,0.0,0.0,0.0,0.0,0.0,0.0,0.0,0.0,0.0,0.0,0.0,0.0,0.0,0.0,0.0,0.0,0.0,0.0,0.0,0.0,0.0,0.0,0.0,0.0,0.0,0.0,0.0,0.0,0.0,0.0,0.0,0.0,0.0,0.0,0.0,0.0,0.0,0.0,0.0,0.0,0.0,0.0,0.0,0.0,0.0,0.0,0.0,0.0,0.0,0.0,0.0,0.0,0.0,0.0,0.0,0.0,0.0,0.0,0.0,0.0,0.0,0.0,0.0,0.0,0.0,0.0,0.0,0.0,0.0,0.0,0.0,0.0,0.0,0.0,0.0,0.0,0.0,0.0,0.0,0.0,0.0,0.0,0.0,0.0,-3.0844,-3.219,-3.3746,-3.4336,-3.3897,-3.0369,-2.7406,0.0,0.0,0.0,0.0,0.0,0.0,0.0,0.0,0.0,0.0,0.0,0.0,0.0,0.0,0.0,0.0,0.0,0.0,0.0,0.0,0.0,0.0,0.0,0.0,0.0,0.0,0.0,0.0,0.0,0.0,0.0,0.0,0.0,0.0,0.0,0.0,0.0,0.0,0.0,0.0,0.0,0.0,0.0,0.0,0.0,0.0,0.0,0.0,-2.2601,0.0,0.0,0.0,0.0,0.0,0.0,0.0,0.0,0.0,0.0,0.0,0.0,0.0,0.0,0.0,0.0,0.0,0.0,0.0,0.0,0.0,0.0,0.0,0.0,0.0,0.0,0.0,0.0,0.0,0.0,0.0,0.0,0.0,0.0,0.0,0.0,0.0,0.0,0.0,0.0,0.0,0.0,0.0,0.0,0.0,0.0,0.0,0.0,0.0,0.0,0.0,0.0,0.0,0.0,0.0,0.0,0.0,0.0,0.0,-3.2026,-3.337,-3.4467,-3.4668,-3.3834,-3.0909,-2.8122,0.0,0.0,0.0,0.0,0.0,0.0,0.0,0.0,0.0,0.0,0.0,0.0,0.0,0.0,0.0,0.0,0.0,0.0,0.0,0.0,0.0,0.0,0.0,0.0,0.0,0.0,0.0,0.0,0.0,0.0,0.0,0.0,0.0,0.0,0.0,0.0,0.0,0.0,0.0,0.0,0.0,0.0,0.0,0.0,0.0,0.0,0.0,0.0,0.0,0.0,0.0,0.0,0.0,0.0,0.0,0.0,0.0,0.0,0.0,0.0,0.0,0.0,0.0,0.0,0.0,0.0,0.0,0.0,0.0,0.0,0.0,0.0,0.0,0.0,0.0,0.0,0.0,0.0,0.0,0.0,0.0,0.0,0.0,0.0,0.0,0.0,0.0,0.0,0.0,0.0,0.0,0.0,0.0,0.0,0.0,0.0,0.0,0.0,0.0,0.0,0.0,0.0,0.0,0.0,0.0,0.0,0.0,-3.0997,-3.3068,-3.4731,-3.5182,-3.4893,-3.3909,-3.1675,-2.8963,-2.5749,0.0,0.0,0.0,0.0,0.0,0.0,0.0,0.0,0.0,0.0,0.0,0.0,0.0,0.0,0.0,0.0,0.0,0.0,0.0,0.0,0.0,0.0,0.0,0.0,0.0,0.0,0.0,0.0,0.0,0.0,0.0,0.0,0.0,0.0,0.0,0.0,0.0,0.0,-2.1699,-2.2937,0.0,0.0,0.0,0.0,0.0,0.0,0.0,0.0,-2.3422,0.0,0.0,0.0,0.0,0.0,0.0,0.0,0.0,0.0,0.0,0.0,0.0,0.0,0.0,0.0,0.0,0.0,0.0,0.0,0.0,0.0,0.0,0.0,0.0,0.0,0.0,0.0,0.0,0.0,0.0,0.0,0.0,0.0,0.0,0.0,0.0,0.0,0.0,0.0,0.0,0.0,0.0,0.0,0.0,0.0,0.0,0.0,0.0,0.0,0.0,0.0,0.0,0.0,0.0,0.0,0.0,-3.0783,-3.175,-3.3213,-3.5295,-3.5006,-3.455,-3.3859,-3.1323,-2.8561,-2.5762,0.0,0.0,0.0,0.0,0.0,0.0,0.0,0.0,0.0,0.0,0.0,0.0,0.0,0.0,0.0,0.0,0.0,0.0,0.0,0.0,0.0,0.0,0.0,0.0,0.0,0.0,0.0,0.0,0.0,0.0,0.0,0.0,0.0,0.0,0.0,0.0,0.0,0.0,0.0,-2.3576,-2.4154,0.0,0.0,0.0,0.0,0.0,0.0,0.0,0.0,-2.3984,0.0,0.0,0.0,0.0,0.0,0.0,0.0,0.0,0.0,0.0,0.0,0.0,0.0,0.0,0.0,0.0,0.0,0.0,0.0,0.0,0.0,0.0,0.0,0.0,0.0,0.0,0.0,0.0,0.0,0.0,0.0,0.0,0.0,0.0,0.0,0.0,0.0,0.0,0.0,0.0,0.0,0.0,0.0,0.0,0.0,0.0,0.0,0.0,0.0,0.0,0.0,0.0,0.0,0.0,0.0,-3.0055,-3.2077,-3.3746,-3.5019,-3.5094,-3.4462,-3.3031,-3.0357,-2.7871,0.0,0.0,0.0,0.0,0.0,0.0,0.0,0.0,0.0,0.0,0.0,0.0,0.0,0.0,0.0,0.0,0.0,0.0,0.0,0.0,0.0,0.0,0.0,0.0,0.0,0.0,0.0,0.0,0.0,0.0,0.0,0.0,0.0,0.0,0.0,0.0,0.0,0.0,0.0,0.0,-2.4577,-2.4767,-2.4528,0.0,0.0,0.0,0.0,0.0,0.0,-2.4829,-2.4612,0.0,0.0,0.0,0.0,0.0,0.0,0.0,0.0,0.0,0.0,0.0,0.0,0.0,0.0,0.0,0.0,0.0,0.0,0.0,0.0,0.0,0.0,0.0,0.0,0.0,0.0,0.0,0.0,0.0,0.0,0.0,0.0,0.0,0.0,0.0,0.0,0.0,0.0,0.0,0.0,0.0,0.0,0.0,0.0,0.0,0.0,0.0,0.0,0.0,0.0,0.0,0.0,0.0,0.0,0.0,-2.9088,-3.2039,-3.3947,-3.4655,-3.4994,-3.4204,-3.2252,-2.9541,-2.7318,0.0,0.0,0.0,0.0,0.0,0.0,0.0,0.0,0.0,0.0,0.0,0.0,0.0,0.0,0.0,0.0,0.0,0.0,0.0,0.0,0.0,0.0,0.0,0.0,0.0,0.0,0.0,0.0,0.0,0.0,0.0,0.0,0.0,0.0,0.0,0.0,0.0,0.0,0.0,0.0,0.0,-2.6125,-2.5758,-2.5328,0.0,0.0,0.0,0.0,-2.5313,-2.5944,0.0,0.0,0.0,0.0,0.0,0.0,0.0,0.0,0.0,0.0,0.0,0.0,0.0,0.0,0.0,0.0,0.0,0.0,0.0,0.0,0.0,0.0,0.0,0.0,0.0,0.0,0.0,0.0,0.0,0.0,0.0,0.0,0.0,0.0,0.0,0.0,0.0,0.0,0.0,0.0,0.0,0.0,0.0,0.0,0.0,0.0,0.0,0.0,0.0,0.0,0.0,0.0,0.0,0.0,0.0,0.0,-2.9641,-3.1486,-3.3156,-3.4613,-3.4311,-3.3495,-3.2215,-2.9541,-2.7318,0.0,0.0,0.0,0.0,0.0,0.0,0.0,0.0,0.0,0.0,0.0,0.0,0.0,0.0,0.0,0.0,0.0,0.0,0.0,0.0,0.0,0.0,0.0,0.0,0.0,0.0,0.0,0.0,0.0,0.0,0.0,0.0,0.0,0.0,0.0,0.0,0.0,0.0,0.0,0.0,0.0,-2.9053,-2.7096,-2.7343,-2.7226,0.0,0.0,-2.7204,-2.7791,-2.8569,0.0,0.0,0.0,0.0,0.0,0.0,0.0,0.0,0.0,0.0,0.0,0.0,0.0,0.0,0.0,0.0,0.0,0.0,0.0,0.0,0.0,0.0,0.0,0.0,0.0,0.0,0.0,0.0,0.0,0.0,0.0,0.0,0.0,0.0,0.0,0.0,0.0,0.0,0.0,0.0,0.0,0.0,0.0,0.0,0.0,0.0,0.0,0.0,0.0,0.0,0.0,0.0,0.0,0.0,0.0,-2.7143,-2.9277,-3.1223,-3.2717,-3.3734,-3.3558,-3.2623,-3.0905,-2.7458,-2.5453,0.0,0.0,0.0,0.0,0.0,0.0,0.0,0.0,0.0,0.0,0.0,0.0,0.0,0.0,0.0,0.0,0.0,0.0,0.0,0.0,0.0,0.0,0.0,0.0,0.0,0.0,0.0,0.0,0.0,0.0,0.0,0.0,0.0,0.0,0.0,0.0,0.0,0.0,0.0,0.0,0.0,0.0,-2.8068,-2.8601,0.0,0.0,0.0,-2.9431,-2.9344,0.0,0.0,0.0,0.0,0.0,0.0,0.0,0.0,0.0,0.0,0.0,0.0,0.0,0.0,0.0,0.0,0.0,0.0,0.0,0.0,0.0,0.0,0.0,0.0,0.0,0.0,0.0,0.0,0.0,0.0,0.0,0.0,0.0,0.0,0.0,0.0,0.0,0.0,0.0,0.0,0.0,0.0,0.0,0.0,0.0,0.0,0.0,0.0,0.0,0.0,0.0,0.0,0.0,0.0,0.0,0.0,0.0,-2.8725,-3.0884,-3.2215,-3.2629,-3.2641,-3.1787,-3.0017,-2.6226,0.0,0.0,0.0,0.0,0.0,0.0,0.0,0.0,0.0,0.0,0.0,0.0,0.0,0.0,0.0,0.0,0.0,0.0,0.0,0.0,0.0,0.0,0.0,0.0,0.0,0.0,0.0,-2.0062,0.0,0.0,0.0,0.0,0.0,0.0,0.0,0.0,0.0,0.0,0.0,0.0,0.0,0.0,-2.8298,-2.8842,-2.9719,-3.0057,0.0,0.0,-3.1019,-3.0276,-3.0529,-3.0101,0.0,0.0,0.0,0.0,0.0,0.0,0.0,0.0,0.0,0.0,0.0,0.0,0.0,0.0,0.0,0.0,0.0,0.0,0.0,0.0,0.0,0.0,0.0,0.0,0.0,0.0,0.0,0.0,0.0,0.0,0.0,0.0,0.0,0.0,0.0,0.0,0.0,0.0,0.0,0.0,0.0,0.0,0.0,0.0,0.0,0.0,0.0,0.0,0.0,0.0,0.0,0.0,0.0,0.0,-2.7065,-2.8185,-3.0331,-3.1461,-3.1499,-3.1499,-3.1195,-3.0501,-2.726,-2.5983,0.0,0.0,0.0,0.0,0.0,0.0,0.0,0.0,0.0,0.0,0.0,0.0,0.0,0.0,0.0,0.0,0.0,0.0,0.0,0.0,0.0,0.0,0.0,0.0,0.0,0.0,0.0,0.0,0.0,0.0,0.0,0.0,0.0,0.0,0.0,0.0,0.0,0.0,0.0,0.0,0.0,-3.0208,-2.9285,-3.0821,-3.1792,0.0,-3.1417,-3.1427,-3.042,-3.2458,-3.2691,-2.8319,0.0,0.0,0.0,0.0,0.0,0.0,0.0,0.0,0.0,0.0,0.0,0.0,0.0,0.0,0.0,0.0,0.0,0.0,0.0,0.0,0.0,0.0,0.0,0.0,0.0,0.0,0.0,0.0,0.0,0.0,0.0,0.0,0.0,0.0,0.0,0.0,0.0,0.0,0.0,0.0,0.0,0.0,0.0,0.0,0.0,0.0,0.0,0.0,0.0,0.0,0.0,0.0,0.0,-2.7203,-2.8574,-3.0091,-3.106,-3.1361,-3.1085,-3.0462,-2.9569,-2.6541,-2.5018,0.0,0.0,0.0,0.0,0.0,0.0,0.0,0.0,0.0,0.0,0.0,0.0,0.0,0.0,0.0,0.0,0.0,0.0,0.0,0.0,0.0,0.0,0.0,0.0,0.0,0.0,0.0,0.0,-1.9874,-1.9798,-1.9798,0.0,0.0,0.0,0.0,0.0,0.0,0.0,0.0,0.0,0.0,-2.9342,-3.0214,-3.1329,0.0,0.0,-3.2008,-3.2479,-3.1282,-3.1951,-3.1794,-2.9247,-2.7303,0.0,0.0,0.0,0.0,0.0,0.0,0.0,0.0,0.0,0.0,0.0,0.0,0.0,0.0,0.0,0.0,0.0,0.0,0.0,0.0,0.0,0.0,0.0,0.0,0.0,0.0,0.0,0.0,0.0,0.0,0.0,0.0,0.0,0.0,0.0,0.0,0.0,0.0,0.0,0.0,0.0,0.0,0.0,0.0,0.0,0.0,0.0,0.0,0.0,0.0,0.0,0.0,-2.714,-2.8423,-2.9716,-3.0545,-3.0896,-3.0557,-2.9975,-2.9133,-2.6676,-2.5206,0.0,0.0,0.0,0.0,0.0,0.0,0.0,0.0,0.0,0.0,0.0,0.0,0.0,0.0,0.0,0.0,0.0,0.0,0.0,0.0,0.0,0.0,0.0,0.0,0.0,0.0,0.0,0.0,-2.0137,-2.0062,-2.0062,0.0,0.0,0.0,0.0,0.0,0.0,0.0,0.0,0.0,0.0,-2.8777,-3.0399,-3.1176,-3.1487,-3.1301,-3.2415,-3.2991,-3.2138,-3.2205,-3.1764,-2.9906,0.0,0.0,0.0,0.0,0.0,0.0,0.0,0.0,0.0,0.0,0.0,0.0,0.0,0.0,0.0,0.0,0.0,0.0,0.0,0.0,0.0,0.0,0.0,0.0,0.0,0.0,0.0,0.0,0.0,0.0,-2.6427,0.0,0.0,0.0,0.0,0.0,0.0,0.0,0.0,0.0,0.0,0.0,0.0,0.0,0.0,0.0,0.0,0.0,0.0,0.0,0.0,0.0,0.0,-2.6788,-2.7344,-2.9001,-2.9829,-2.9842,-2.9817,-2.9817,-2.974,-2.8098,-2.7243,-2.7132,0.0,0.0,0.0,0.0,0.0,0.0,0.0,0.0,0.0,0.0,0.0,0.0,0.0,0.0,0.0,0.0,0.0,0.0,0.0,0.0,0.0,0.0,0.0,0.0,0.0,0.0,-2.2857,-2.1594,-2.0666,0.0,0.0,0.0,0.0,0.0,0.0,0.0,0.0,0.0,0.0,-2.6864,-2.9126,-2.9755,-3.0295,-3.1156,-3.2476,-3.2644,-3.2709,-3.2844,-3.3715,-3.3365,0.0,0.0,0.0,0.0,0.0,0.0,0.0,0.0,0.0,0.0,0.0,0.0,0.0,0.0,0.0,0.0,0.0,0.0,0.0,0.0,0.0,0.0,0.0,0.0,0.0,0.0,0.0,-2.6377,-2.6681,0.0,0.0,0.0,0.0,0.0,0.0,0.0,0.0,0.0,0.0,0.0,-2.9465,-2.9126,0.0,0.0,0.0,0.0,0.0,0.0,0.0,0.0,0.0,0.0,0.0,0.0,-2.6952,-2.7846,-2.9126,-2.9779,-2.9779,-2.9779,-2.9779,-2.9779,-2.8511,-2.7143,-2.5686,0.0,0.0,0.0,0.0,0.0,0.0,0.0,0.0,0.0,0.0,0.0,0.0,0.0,0.0,0.0,0.0,0.0,0.0,0.0,0.0,0.0,0.0,0.0,0.0,0.0,-2.2355,0.0,0.0,0.0,0.0,0.0,0.0,0.0,0.0,0.0,0.0,0.0,-2.4211,-2.644,-2.8009,-2.9277,-3.0206,-3.0495,-3.1015,0.0,0.0,0.0,0.0,0.0,0.0,0.0,0.0,0.0,0.0,0.0,0.0,0.0,0.0,-3.2407,-2.8918,-2.7555,-2.73,-2.8397,0.0,0.0,0.0,0.0,0.0,0.0,0.0,0.0,0.0,0.0,0.0,0.0,0.0,0.0,-2.7316,0.0,-2.7066,0.0,0.0,0.0,0.0,0.0,0.0,0.0,0.0,-3.0407,-3.1022,-3.1173,-3.1132,-3.0783,0.0,-2.9139,-2.7293,0.0,0.0,0.0,0.0,0.0,0.0,0.0,0.0,-2.714,-2.7846,-2.9126,-2.9779,-2.9779,-2.9779,-2.9779,-2.9767,-2.8699,-2.7256,-2.5448,-2.3599,-2.2531,0.0,0.0,0.0,0.0,0.0,0.0,0.0,0.0,0.0,0.0,0.0,0.0,0.0,0.0,0.0,0.0,0.0,0.0,0.0,0.0,0.0,0.0,0.0,-2.2234,0.0,0.0,0.0,0.0,0.0,0.0,0.0,0.0,0.0,-2.4217,-2.4469,-2.5427,-2.7795,-2.875,-2.9527,-3.0495,0.0,0.0,0.0,0.0,0.0,0.0,0.0,-3.3888,-3.3006,-3.227,-3.1808,-3.1855,-3.2867,-3.3543,-3.3199,0.0,0.0,-3.0939,-2.9594,-2.9325,-3.0432,-3.0103,-2.9953,-3.1001,-3.1031,-3.0823,0.0,0.0,0.0,0.0,0.0,0.0,0.0,0.0,-2.7708,-2.836,0.0,-2.86,0.0,0.0,0.0,0.0,0.0,-2.9905,0.0,0.0,-3.2139,-3.283,-3.2353,-3.2353,-3.1775,-3.0821,-3.1185,-2.9993,-2.7394,-2.5247,0.0,0.0,0.0,0.0,0.0,0.0,-2.7329,-2.7419,-2.8976,-2.9779,-2.9779,-2.9779,-2.9779,-2.9767,-2.8712,-2.7632,-2.6587,-2.5875,-2.4594,-2.2548,-2.3346,0.0,0.0,0.0,0.0,0.0,0.0,0.0,0.0,0.0,0.0,0.0,0.0,0.0,0.0,0.0,0.0,0.0,0.0,0.0,0.0,-2.2334,0.0,0.0,0.0,0.0,0.0,0.0,0.0,0.0,0.0,0.0,-2.4938,-2.6276,-2.7519,-2.8197,0.0,0.0,0.0,0.0,-3.1354,-3.1957,-3.311,-3.4126,-3.4813,-3.5203,-3.5055,-3.3784,0.0,0.0,-3.2841,-3.3431,-3.3769,-3.2794,-3.3754,-3.4743,-3.5265,-3.4053,-3.3455,-3.4099,-3.2691,-3.1824,-3.2362,-3.2049,-3.1615,-2.5254,0.0,0.0,0.0,0.0,-2.7755,-2.9246,-3.1022,-3.0871,-3.0633,-3.0317,-2.9285,0.0,0.0,0.0,0.0,0.0,0.0,-3.2102,-3.2767,-3.3784,-3.4361,-3.453,-3.4542,-3.4179,-3.3533,-3.2478,-3.1361,-3.0168,-2.8398,-2.6929,-2.5808,0.0,0.0,0.0,0.0,-2.767,-2.8448,-2.934,-2.9779,-2.9779,-2.9779,-2.9779,-2.9779,-2.9076,-2.836,-2.7645,-2.6327,-2.5322,-2.4669,-2.3464,0.0,0.0,0.0,0.0,0.0,0.0,0.0,0.0,0.0,0.0,0.0,0.0,0.0,0.0,0.0,0.0,0.0,0.0,0.0,-2.3477,-2.2799,-2.2694,0.0,0.0,0.0,0.0,0.0,0.0,0.0,0.0,0.0,-2.757,-2.7469,-2.8222,0.0,0.0,-3.0131,-3.1047,-3.0632,-3.0723,-3.2227,-3.2753,0.0,-3.5104,-3.5413,-3.537,-3.4981,-3.51,-3.5085,-3.4711,-3.486,-3.4988,-3.468,-3.4951,-3.528,-3.534,-3.4023,-3.3125,-3.3544,-3.2931,-3.2647,-3.3604,-3.338,-3.2916,-2.7793,-2.6456,-2.638,-2.7368,-2.9093,-2.9747,-3.118,-3.3169,-3.2754,-3.2554,-3.2474,-3.1243,-3.0379,-2.9789,-2.9373,0.0,0.0,0.0,-3.3571,-3.4261,-3.5014,-3.5542,-3.5855,-3.5868,-3.5579,-3.4969,-3.4022,-3.3144,-3.2378,-3.1386,-3.0168,-2.8712,0.0,0.0,-2.7316,-2.7708,-2.8147,-2.8612,-2.939,-2.9779,-2.9779,-2.9779,-2.9779,-2.9779,-2.9453,-2.9013,-2.8436,-2.7042,-2.5963,-2.5297,-2.3559,-2.2569,0.0,0.0,0.0,0.0,0.0,0.0,0.0,0.0,0.0,0.0,0.0,-2.2447,-2.2744,0.0,0.0,0.0,-2.2096,-2.2485,-2.3263,-2.2711,0.0,0.0,0.0,0.0,0.0,0.0,0.0,-2.6163,-2.6766,-2.7557,-2.8712,-2.8549,-2.9101,-3.1298,-3.0545,-3.0105,-3.0959,0.0,-3.0884,-3.2393,-3.2925,-3.3671,-3.5246,-3.5489,-3.5489,-3.5489,-3.5489,-3.5489,-3.5489,-3.5489,-3.5489,-3.5474,-3.5295,-3.5085,-3.5085,-3.3888,-3.3095,-3.3724,-3.3365,-3.3215,-3.3948,-3.3754,-3.3499,-3.0019,-2.9597,-2.7978,-2.8805,-3.1072,-3.1121,-3.257,-3.4856,-3.3872,-3.4211,-3.5357,-3.3897,-3.3746,-3.4587,-3.3696,0.0,-3.3426,-3.4399,-3.4864,-3.4951,-3.5918,-3.6417,-3.6417,-3.6405,-3.6094,-3.5571,-3.552,-3.4981,-3.4048,-3.3922,-3.3345,-3.224,-2.9704,-2.8134,-2.7632,-2.8524,-2.8712,-2.826,-2.9264,-2.9779,-2.9779,-2.9779,-2.9767,-2.9716,-2.9679,-2.9365,-2.8762,-2.772,-2.6427,-2.4863,-2.3672,-2.2569,-2.1619,0.0,0.0,0.0,0.0,0.0,0.0,0.0,0.0,0.0,0.0,0.0,0.0,0.0,0.0,0.0,-2.1081,0.0,-2.2347,-2.2447,0.0,0.0,0.0,-2.5209,-2.5686,-2.5762,-2.6189,-2.7231,0.0,0.0,-2.8888,-2.9453,-2.998,-3.0482,-3.0105,-3.0005,-3.0595,-3.0881,-3.1426,-3.2285,-3.329,-3.4182,-3.4981,-3.5257,-3.5355,-3.5355,-3.5474,-3.5489,-3.5474,-3.54,-3.5415,-3.537,-3.4861,-3.4429,-3.4429,-3.3799,-3.3589,-3.4039,-3.3739,-3.338,-3.341,-3.332,-3.3215,-3.0664,-3.0547,-3.0137,-3.1179,-3.3075,-3.3115,-3.4656,-3.7113,-3.6496,-3.5956,-3.5445,-3.4643,-3.4236,-3.4123,-3.47,-3.5203,-3.5629,-3.5855,-3.6194,-3.6571,-3.6433,-3.6417,-3.6417,-3.6417,-3.6342,-3.6157,-3.5755,-3.5357,-3.5069,-3.4299,-3.3558,-3.2842,-3.1775,-3.0758,-2.9854,-2.9666,-2.9528,-2.939,-2.9654,-2.9779,-2.9779,-2.9779,-2.9591,-2.9139,-2.8725,-2.8235,-2.7682,-2.6603,-2.5636,-2.48,-2.3321,-2.2385,-2.2133,-2.2121,0.0,0.0,0.0,0.0,0.0,0.0,0.0,0.0,0.0,-2.3414,-2.2945,0.0,-2.3609,0.0,-2.1619,-2.1948,-2.3452,-2.3602,0.0,0.0,-2.6248,-2.6753,-2.6879,-2.7243,-2.762,-2.7883,-2.8398,-2.895,-2.9528,-2.9704,-2.9829,-2.998,-2.9892,-3.0143,-3.1022,-3.0553,-3.0457,-3.1426,-3.2343,-3.3121,-3.3632,-3.428,-3.468,-3.4743,-3.513,-3.5489,-3.5489,-3.5055,-3.4726,-3.4681,-3.4219,-3.3784,-3.3709,-3.32,-3.2587,-3.2333,-3.2452,-3.2751,-3.2706,-3.2347,-3.1974,-3.0898,-3.0898,-3.0898,-3.2251,-3.4471,-3.4471,-3.5555,-3.7351,-3.7518,-3.7073,-3.6257,-3.5956,-3.5642,-3.5429,-3.6257,-3.6684,-3.6772,-3.6985,-3.7033,-3.6857,-3.6807,-3.6656,-3.6417,-3.6417,-3.6292,-3.5994,-3.5646,-3.537,-3.5107,-3.4562,-3.3985,-3.3432,-3.3119,-3.2416,-3.1336,-3.0545,-3.0168,-3.0156,-2.9917,-2.9779,-2.9779,-2.9779,-2.9641,-2.9315,-2.8775,-2.821,-2.7657,-2.6327,-2.5473,-2.5134,-2.3547,-2.2543,-2.2293,-2.2322,-2.2071,0.0,0.0,0.0,0.0,0.0,0.0,0.0,0.0,0.0,0.0,0.0,-2.3609,-2.3439,-2.2698,-2.3012,-2.4953,-2.5096,-2.5493,-2.6411,-2.7203,-2.7657,-2.7645,-2.8134,-2.8574,-2.8825,-2.9126,-2.944,-2.9741,-2.9779,-2.9779,-2.9779,-2.9779,-3.0005,-3.0457,-2.993,-2.9834,-3.1016,-3.1432,-3.1842,-3.243,-3.2748,-3.3077,-3.3424,-3.3814,-3.4147,-3.4543,-3.4307,-3.4038,-3.3993,-3.3275,-3.2617,-3.2587,-3.1824,-3.1091,-3.0851,-3.0941,-3.118,-3.1195,-3.0898,-3.0702,-3.085,-3.081,-3.1082,-3.2623,-3.4968,-3.5297,-3.6021,-3.6944,-3.7654,-3.7651,-3.7086,-3.7211,-3.7287,-3.7337,-3.7864,-3.7864,-3.7437,-3.7751,-3.7387,-3.6568,-3.6933,-3.687,-3.6417,-3.6417,-3.6069,-3.5508,-3.5571,-3.5245,-3.458,-3.4688,-3.4412,-3.3809,-3.3796,-3.3307,-3.2328,-3.1323,-3.0721,-3.0507,-3.0105,-2.9905,-2.9892,-2.9905,-2.9829,-2.9666,-2.8988,-2.8323,-2.7682,-2.6201,-2.5385,-2.5347,-2.3985,-2.2995,-2.256,-2.2535,-2.2284,0.0,-2.2284,0.0,0.0,0.0,0.0,0.0,0.0,0.0,0.0,-2.2937,-2.3414,-2.4976,-2.4148,-2.4356,-2.6311,-2.6562,-2.6637,-2.6725,-2.7595,-2.8235,-2.8323,-2.8712,-2.9239,-2.9729,-2.9779,-2.9779,-2.9779,-2.9779,-2.9779,-2.9779,-2.9779,-2.9779,-2.9666,-2.9289,-2.939,-3.0684,-3.0444,-3.0516,-3.1302,-3.1193,-3.1185,-3.18,-3.2202,-3.2443,-3.322,-3.3378,-3.335,-3.314,-3.2243,-3.1406,-3.1271,-3.0372,-2.9651,-2.9562,-2.9577,-2.9564,-2.9579,-2.9696,-2.9771,-3.0664,-3.0466,-3.2044,-3.2811,-3.3165,-3.5436,-3.7216,-3.8439,-3.8141,-3.745,-3.6656,-3.745,-3.7852,-3.7889,-3.8454,-3.8655,-3.8554,-3.7701,-3.7236,-3.7059,-3.6719,-3.6505,-3.6417,-3.6417,-3.6081,-3.5545,-3.5981,-3.5466,-3.4073,-3.45,-3.4223,-3.33,-3.3232,-3.3131,-3.2893,0.0,0.0,0.0,-3.0294,-3.047,-3.0457,-3.0457,-3.0018,-2.9063,-2.7718,0.0,-2.5485,-2.4695,-2.4293,-2.4293,-2.4004,0.0,0.0,0.0,0.0,0.0,0.0,0.0,0.0,0.0,0.0,0.0,-2.6285,-2.5749,-2.4042,-2.4531,-2.5485,-2.6666,-2.6248,-2.6034,-2.6449,-2.6901,-2.7306,-2.777,-2.8336,-2.8913,-2.9402,-2.9566,-2.9679,-2.9767,-2.9779,-2.9779,-2.9779,-2.9779,-2.9779,-2.9779,-2.9779,-2.9603,-2.9113,-2.895,-2.8825,-2.8743,-2.8844,-2.9232,-3.0165,-3.0195,-3.0066,-3.0545,-3.1472,-3.2147,-3.2356,-3.2565,-3.2452,-3.2004,-3.1212,-3.0522,-3.0073,-2.9729,-2.9367,-2.8876,-2.8786,-2.8786,-2.8801,-2.9205,-2.9487,-3.0762,0.0,-3.1609,-3.2292,0.0,-3.4789,-3.6213,-3.7347,-3.7531,-3.7136,-3.6468,-3.7236,-3.7751,-3.8027,-3.8316,-3.8454,-3.8404,-3.7563,-3.7084,-3.6807,-3.6531,-3.6254,-3.5968,-3.6232,-3.5827,-3.4788,-3.5567,-3.524,-3.3972,-3.4173,-3.4035,-3.3483,-3.3219,-3.3124,-3.3056,-3.2227,-3.1273,-3.0206,-3.0206,-3.0206,-3.0206,-3.0206,-2.9942,-2.9352,-2.7996,0.0,0.0,0.0,0.0,0.0,0.0,0.0,0.0,-2.4921,0.0,-2.4023,-2.5008,-2.5511,-2.5305,-2.6034,-2.6487,-2.6499,-2.7002,-2.6725,-2.5343,-2.5711,-2.6399,-2.718,-2.7268,-2.7381,-2.767,-2.8221,-2.8637,-2.8925,-2.9189,-2.949,-2.9729,-2.9779,-2.9779,-2.9779,-2.9779,-2.9779,-2.9779,-2.9779,-2.9779,-2.9767,-2.9528,-2.9126,-2.8612,-2.8524,-2.8323,-2.7795,-2.7812,-2.8058,-2.8499,-2.8418,-2.8459,-2.8862,-2.9479,-3.0275,-3.1125,-3.1358,-3.1324,-3.0978,-3.0492,-2.9849,-2.922,-2.8858,-2.8487,-2.8229,-2.8124,-2.8109,-2.8124,-2.8393,-2.8633,-3.085,-3.083,-3.1189,-3.1937,-3.3022,-3.3901,-3.4765,-3.5622,0.0,0.0,0.0,-3.6983,-3.7437,-3.7852,-3.7864,-3.7864,-3.7814,-3.7186,-3.6646,-3.6254,-3.6166,-3.583,-3.5395,-3.5968,-3.5454,-3.4135,-3.5119,-3.5127,-3.4085,-3.4048,-3.3985,-3.3859,-3.3345,-3.3074,-3.2867,-3.2001,-3.1235,-3.062,-3.0168,-2.993,-2.9942,-2.993,-2.9892,-2.9792,-2.8699,-2.7846,-2.7316,-2.5988,-2.5448,-2.5862,-2.5586,-2.536,-2.5264,-2.6147,-2.6197,-2.5247,-2.6097,-2.6637,-2.665,-2.6826,-2.6977,-2.7077,-2.7505,-2.753,-2.6977,-2.6927,-2.7153,-2.767,-2.8134,-2.8586,-2.9038,-2.949,-2.9779,-2.9779,-2.9779,-2.9779,-2.9779,-2.9779,-2.9779,-2.9779,-2.9779,-2.9779,-2.9779,-2.9679,-2.9641,-2.9566,-2.9126,-2.8586,-2.8084,-2.7846,-2.762,-2.7253,-2.7173,-2.7175,-2.7138,-2.6918,-2.6794,-2.7436,-2.7796,-2.846,-2.9628,-3.0228,-3.0338,-3.0335,-2.9819,-2.9217,-2.8547,-2.8049,-2.7615,-2.7585,-2.7585,-2.7585,-2.7585,-2.76,-2.7809,-3.0664,-3.0427,-3.208,-3.2678,-3.2604,-3.3482,-3.4142,-3.4722,-3.5959,-3.6493,-3.6443,-3.6983,-3.7224,-3.7299,-3.7299,-3.7299,-3.7236,-3.6245,-3.5683,-3.5596,-3.5165,-3.4914,-3.4876,-3.5357,-3.5245,-3.4738,-3.5717,-3.568,-3.4713,-3.4555,-3.4374,-3.3897,-3.3357,-3.2842,-3.2353,-3.2177,-3.1612,-3.0645,-3.0545,-3.0495,-3.0495,-3.0495,-3.0269,-2.9779,-2.8712,-2.7846,-2.7306,-2.7055,-2.6967,-2.7055,-2.7431,-2.7431,-2.6979,-2.7115,-2.6927,-2.6361,-2.6816,-2.719,-2.7241,-2.8047,-2.88,-2.9264,-2.939,-2.9202,-2.8649,-2.8574,-2.8825,-2.9365,-2.9453,-2.9578,-2.9679,-2.9729,-2.9779,-2.9779,-2.9779,-2.9779,-2.9779,-2.9754,-2.9767,-2.9779,-2.9779,-2.9754,-2.9754,-2.9365,-2.9063,-2.895,-2.8599,-2.8021,-2.7482,-2.7027,-2.6738,-2.6637,-2.6612,-2.6612,-2.6713,-2.6587,-2.6674,-2.6645,-2.7894,-2.8803,-2.9303,-2.9926,-3.0183,-2.9806,-2.925,-2.8577,-2.7914,-2.769,-2.76,-2.7585,-2.7585,-2.7585,-2.7585,-2.7585,-2.763,-3.0762,-3.0721,-3.1562,-3.1657,-3.1284,-3.2726,-3.4198,-3.5488,-3.6156,-3.6417,-3.6443,-3.6681,-3.6897,-3.7149,-3.6872,-3.6897,-3.7149,-3.6358,-3.583,-3.5483,-3.5232,-3.4806,-3.4374,-3.4839,-3.4768,-3.4374,-3.5391,-3.5667,-3.5169,-3.5119,-3.4856,-3.4324,-3.3508,-3.2792,-3.2252,-3.2202,-3.1825,-3.1047,-3.1035,-3.0896,-3.0633,-3.062,-3.0455,-3.0244,-2.9101,-2.8448,-2.8172,-2.7883,-2.7733,-2.772,-2.7971,-2.7996,-2.7758,-2.8009,-2.8072,-2.7833,-2.8335,-2.8649,-2.8637,-2.9114,-2.9503,-2.9767,-2.9779,-2.9691,-2.9428,-2.939,-2.9503,-2.9767,-2.9779,-2.9779,-2.9779,-2.9779,-2.9779,-2.9779,-2.9779,-2.9779,-2.9754,-2.949,-2.9453,-2.9666,-2.9239,-2.9114,-2.9729,-2.9026,-2.8587,-2.8775,-2.8235,-2.7469,-2.6999,-2.705,-2.6994,-2.6589,-2.6487,-2.6637,-2.6864,-2.6939,-2.7088,-2.7499,-2.8205,-2.8966,-2.9467,-2.9914,-2.975,-2.9602,-2.9041,-2.8382,-2.772,-2.7585,-2.7585,-2.7585,-2.7585,-2.7585,-2.7585,-2.7585,-2.7585,-3.0898,-3.0898,-3.0898,-3.0739,-3.0704,-3.2732,-3.4546,-3.593,-3.6263,-3.6417,-3.6417,-3.6417,-3.6533,-3.6747,-3.6358,-3.6253,-3.6276,-3.6013,-3.549,-3.4913,-3.4919,-3.4537,-3.3872,-3.4387,-3.45,-3.4261,-3.5157,-3.5671,-3.5671,-3.5571,-3.5219,-3.463,-3.3746,-3.2968,-3.2416,-3.2416,-3.2077,-3.1461,-3.1763,-3.1587,-3.0821,-3.067,-3.062,-3.0545,-2.9654,-2.9088,-2.9101,-2.8712,-2.8486,-2.8486,-2.8486,-2.8486,-2.8511,-2.8888,-2.9114,-2.9139,-2.9541,-2.9779,-2.9779,-2.9779,-2.9779,-2.9779,-2.9779,-2.9779,-2.9779,-2.9779,-2.9779,-2.9779,-2.9779,-2.9779,-2.9779,-2.9779,-2.9779,-2.9779,-2.9779,-2.9779,-2.9741,-2.9377,-2.9277,-2.9616,-2.9013,-2.89,-2.9352,-2.88,-2.8294,-2.8401,-2.7916,-2.7312,-2.7164,-2.7637,-2.767,-2.7263,-2.6905,-2.7007,-2.7446,-2.7258,-2.75,-2.8331,-2.8598,-2.9126,-2.9813,-2.9753,-2.9476,-2.9471,-2.8861,-2.8203,-2.7705,-2.7585,-2.7585,-2.7585,-2.7585,-2.7585,-2.7585,-2.7585,-2.769,-3.0898,-3.0898,-3.0947,-3.1104,-3.1831,-3.4341,-3.5153,-3.4835,-3.5858,-3.6417,-3.6417,-3.6417,-3.6119,-3.5683,-3.5621,-3.5061,-3.4078,-3.409,-3.3814,-3.3198,-3.3205,-3.3257,-3.3307,-3.4236,-3.4688,-3.4763,-3.5717,-3.6254,-3.6254,-3.5768,-3.5219,-3.4668,-3.411,-3.3545,-3.3056,-3.2993,-3.2508,-3.1461,-3.2893,-3.2905,-3.1399,-3.0859,-3.062,-3.062,-3.0043,-2.9716,-2.9704,-2.9654,-2.9628,-2.9628,-2.9591,-2.9616,-2.9628,-2.9679,-2.9691,-2.9704,-2.9754,-2.9779,-2.9779,-2.9779,-2.9779,-2.9779,-2.9779,-2.9779,-2.9779,-2.9779,-2.9779,-2.9779,-2.9779,-2.9779,-2.9779,-2.9779,-2.9779,-2.9779,-2.9779,-2.9779,-2.9767,-2.9741,-2.9741,-2.9767,-2.9541,-2.9679,-2.9553,-2.8737,-2.8043,-2.7936,-2.7782,-2.7848,-2.8403,-2.8716,-2.8812,-2.8588,-2.813,-2.7866,-2.809,-2.731,-2.7434,-2.8326,-2.8776,-2.94,-3.0017,-2.9985,-2.9612,-2.9468,-2.8558,-2.7779,-2.7735,-2.7585,-2.76,-2.772,-2.769,-2.7585,-2.7585,-2.7585,-2.7779,-3.0898,-3.0995,-3.1825,-3.2931,-3.4159,-3.5118,-3.5498,-3.5644,-3.6156,-3.6417,-3.6417,-3.6417,-3.6056,-3.5533,-3.5868,-3.5503,-3.4748,-3.5148,-3.5036,-3.4367,-3.4175,-3.3872,-3.3646,-3.3985,-3.4387,-3.4763,-3.5516,-3.6044,-3.6267,-3.5818,-3.5382,-3.5082,-3.4349,-3.3784,-3.3545,-3.3232,-3.298,-3.2905,-3.3545,-3.3709,-3.3319,-3.2516,-3.1901,-3.1512,-3.0721,-3.0281,-3.0244,-2.998,-2.9779,-2.9779,-2.9779,-2.9779,-2.9779,-2.9779,-2.9779,-2.9779,-2.9779,-2.9779,-2.9779,-2.9779,-2.9779,-2.9779,-2.9779,-2.9779,-2.9779,-2.9779,-2.9779,-2.9779,-2.9779,-2.9779,-2.9779,-2.9779,-2.9779,-2.9779,-2.9779,-2.9779,-2.9779,-2.9478,-2.939,-2.9679,-2.9214,-2.8963,-2.9038,-2.831,-2.772,-2.7687,-2.7703,-2.8071,-2.8862,-2.9442,-2.9518,-2.9107,-2.8925,-2.8778,-2.8562,-2.7969,-2.8057,-2.8946,-2.9648,-3.0216,-3.0644,-3.0137,-2.9594,-2.9621,-2.8498,-2.7899,-2.8188,-2.7839,-2.766,-2.7854,-2.7764,-2.7585,-2.7585,-2.7585,-2.8004,-3.0898,-3.117,-3.2928,-3.4272,-3.5217,-3.5755,-3.6125,-3.6348,-3.6417,-3.6417,-3.6417,-3.6417,-3.6056,-3.5608,-3.5968,-3.5631,-3.4929,-3.559,-3.5419,-3.4607,-3.4482,-3.4274,-3.3922,-3.4073,-3.4412,-3.4919,-3.5529,-3.5981,-3.6329,-3.5994,-3.5721,-3.5617,-3.4813,-3.4349,-3.4286,-3.3809,-3.3721,-3.4085,-3.4261,-3.4487,-3.4575,-3.3935,-3.3181,-3.2441,-3.1386,-3.0771,-3.058,-3.0357,-3.008,-2.9804,-2.9942,-2.9942,-2.9804,-2.9779,-2.9779,-2.9829,-3.008,-3.0168,-3.003,-3.0018,-3.0018,-3.0005,-2.9892,-2.9779,-2.9779,-2.9779,-2.9779,-2.9779,-2.9779,-2.9779,-2.9779,-2.9779,-2.9779,-2.9779,-2.9779,-2.9779,-2.9754,-2.939,-2.9352,-2.9641,-2.9202,-2.8549,-2.8549,-2.7932,-2.743,-2.7648,-2.792,-2.8363,-2.9223,-3.0056,-3.0329,-2.9504,-2.9503,-2.9304,-2.8794,-2.811,-2.8555,-2.9497,-3.0168,-3.0287,-3.1176,-3.0453,-2.9669,-2.9594,-2.8528,-2.7914,-2.7974,-2.7779,-2.7705,-2.8049,-2.7959,-2.769,-2.7929,-2.7869,-2.8453,-3.0898,-3.1334,-3.3968,-3.4532,-3.3892,-3.6569,-3.7179,-3.6263,-3.6358,-3.6417,-3.6417,-3.6417,-3.6056,-3.5558,-3.5621,-3.4585,-3.3296,-3.44,-3.4098,-3.2777,-3.3571,-3.396,-3.3947,-3.4437,-3.4919,-3.5408,-3.5981,-3.6342,-3.6417,-3.6367,-3.6367,-3.6317,-3.5667,-3.5382,-3.5257,-3.4768,-3.4593,-3.4713,-3.5082,-3.5194,-3.4826,-3.4688,-3.411,-3.3106,-3.1951,-3.1135,-3.0783,-3.1072,-3.0846,-2.9842,-3.0281,-3.0331,-2.988,-2.9829,-2.9867,-2.993,-3.0746,-3.106,-3.0645,-3.0545,-3.0532,-3.0482,-3.0068,-2.9779,-2.9779,-2.9779,-2.9779,-2.9779,-2.9779,-2.9779,-2.9779,-2.9779,-2.9779,-2.9779,-2.9779,-2.9779,-2.9779,-2.9729,-2.9741,-2.9779,-2.9603,-2.9139,-2.8323,-2.7657,-2.7525,-2.7807,-2.8422,-2.9233,-3.0052,-3.091,-3.0911,-3.0249,-2.9635,-2.9135,-2.9151,-2.8405,-2.8572,-2.9443,-2.975,-2.9726,-3.0483,-3.0941,-3.0313,-2.9684,-2.8906,-2.8278,-2.7854,-2.7675,-2.772,-2.7839,-2.7794,-2.775,-2.8188,-2.8442,-2.8921,-3.1441,-3.2338,-3.3144,-3.3508,-3.3904,-3.5551,-3.5782,-3.5247,-3.6048,-3.6417,-3.6417,-3.6417,-3.6292,-3.6056,-3.6069,-3.551,-3.4619,-3.5406,-3.541,-3.4789,-3.4873,-3.4906,-3.4977,-3.5132,-3.5295,-3.5545,-3.6107,-3.6417,-3.6417,-3.6417,-3.6417,-3.6317,-3.5818,-3.5495,-3.5408,-3.4956,-3.4831,-3.5182,-3.542,-3.5604,-3.5705,-3.5429,-3.4831,-3.411,-3.2679,-3.1838,-3.165,-3.1486,-3.1047,-3.0357,-3.052,-3.0493,-3.0382,-3.0633,-3.0809,-3.0859,-3.1185,-3.1311,-3.111,-3.0796,-3.062,-3.0583,-3.0105,-2.9792,-2.9779,-2.9779,-2.9779,-2.9792,-2.9792,-2.9779,-2.9779,-2.9779,-2.9779,-2.9779,-2.9779,-2.9779,-2.9779,-2.9779,-2.9779,-2.9729,-2.949,-2.9001,-2.8674,-2.8147,-2.7926,-2.8226,-2.8949,-2.9826,-3.0635,-3.1234,-3.122,-3.0427,-3.0044,-2.9666,-2.8556,-2.8248,-2.8288,-2.9011,-2.9475,-2.9945,-3.0603,-3.0817,-3.0347,-3.0103,-2.9385,-2.8846,-2.8453,-2.8229,-2.8184,-2.8004,-2.7929,-2.8008,-2.8457,-2.8786,-2.9175,-3.1488,-3.2287,-3.2406,-3.2639,-3.3184,-3.4159,-3.4228,-3.3944,-3.5162,-3.5511,-3.5307,-3.5966,-3.6168,-3.5918,-3.6216,-3.6182,-3.5868,-3.6182,-3.6216,-3.5843,-3.5583,-3.5495,-3.5495,-3.5495,-3.5596,-3.5881,-3.637,-3.6621,-3.6707,-3.6845,-3.6832,-3.6656,-3.6232,-3.5968,-3.578,-3.5429,-3.5454,-3.5742,-3.5805,-3.6006,-3.6304,-3.583,-3.5332,-3.4793,-3.3489,-3.2566,-3.224,-3.2026,-3.1587,-3.1009,-3.1022,-3.1047,-3.0934,-3.1361,-3.1562,-3.1449,-3.1763,-3.1838,-3.1612,-3.116,-3.0871,-3.0834,-3.0206,-2.9829,-3.0005,-2.9905,-2.988,-2.998,-2.9867,-2.9779,-2.9779,-2.9779,-2.9779,-2.9779,-2.9779,-2.9779,-2.9779,-2.9779,-2.9779,-2.9716,-2.9302,-2.895,-2.8825,-2.8423,-2.8236,-2.8342,-2.9118,-3.0011,-3.0853,-3.1408,-3.1539,-3.0821,-3.0457,-2.9977,-2.9158,-2.866,-2.8469,-2.9061,-2.9464,-3.0021,-3.0361,-3.05,-3.0574,-3.0347,-2.9998,-2.949,-2.9116,-2.8861,-2.8637,-2.8427,-2.8323,-2.8353,-2.8771,-2.9175,-2.9669,-3.0859,-3.1052,-3.1958,-3.1918,-3.1739,-3.2644,-3.283,-3.2577,-3.3761,-3.3761,-3.3181,-3.5054,-3.5307,-3.4824,-3.5619,-3.6238,-3.6153,-3.6285,-3.5893,-3.514,-3.5382,-3.5571,-3.5571,-3.5583,-3.5918,-3.6417,-3.6897,-3.7161,-3.7211,-3.7538,-3.7538,-3.7211,-3.7073,-3.6734,-3.6392,-3.6317,-3.6355,-3.6342,-3.6329,-3.6367,-3.6355,-3.5868,-3.5533,-3.5345,-3.4437,-3.342,-3.2365,-3.2742,-3.2453,-3.1599,-3.1863,-3.1926,-3.1537,-3.1926,-3.1989,-3.1775,-3.2483,-3.2692,-3.2202,-3.1637,-3.1298,-3.1122,-3.0382,-3.008,-3.0369,-3.0193,-3.0118,-3.0369,-3.0143,-2.9842,-2.9804,-2.9779,-2.9779,-2.9779,-2.9779,-2.9779,-2.9779,-2.9779,-2.9779,-2.9716,-2.934,-2.8976,-2.885,-2.8637,-2.8408,-2.8439,-2.9019,-2.9925,-3.0871,-3.1586,-3.2022,-3.1815,-3.1138,-3.0296,-2.9742,-2.9256,-2.9145,-2.9157,-2.9469,-2.9843,-3.0056,-3.0228,-3.0558,-3.0436,-3.0391,-2.9911,-2.922,-2.8981,-2.8831,-2.8667,-2.8637,-2.8846,-2.9325,-2.9819,-3.0328,-3.041,-3.0379,-3.0101,-2.9879,-2.9852,-3.0779,-3.1045,-3.1081,-3.2392,-3.2694,-3.2532,-3.3181,-3.3342,-3.3342,-3.441,-3.503,-3.5126,-3.5906,-3.6204,-3.5906,-3.6019,-3.6094,-3.6094,-3.6107,-3.6408,-3.6872,-3.7098,-3.7387,-3.7663,-3.7588,-3.7324,-3.7211,-3.7211,-3.6897,-3.6493,-3.6757,-3.6772,-3.6455,-3.6417,-3.6417,-3.6405,-3.6241,-3.5943,-3.5495,-3.5144,-3.4467,-3.3458,-3.3194,-3.2704,-3.1989,-3.2114,-3.2127,-3.2089,-3.2491,-3.2759,-3.2629,-3.2898,-3.283,-3.2252,-3.17,-3.1235,-3.0909,-3.0532,-3.0457,-3.0633,-3.0771,-3.0746,-3.0696,-3.0444,-3.0231,-2.9892,-2.9779,-2.9779,-2.9779,-2.9779,-2.9779,-2.9779,-2.9779,-2.9779,-2.9779,-2.9628,-2.9528,-2.949,-2.9264,-2.9038,-2.8749,-2.9398,-3.0259,-3.1254,-3.1801,-3.2013,-3.1842,-3.1191,-3.0629,-2.9932,-2.946,-2.9296,-2.9308,-2.9553,-2.9592,-2.9757,-3.0235,-3.051,-3.0675,-3.0608,-3.0257,-2.9594,-2.925,-2.9175,-2.9265,-2.9445,-2.9744,-3.0103,-3.0492,-3.0881,-3.0351,-3.0127,-2.9453,-2.9062,-2.8931,-2.9389,-2.9565,-2.9755,-3.0968,-3.1265,-3.103,-3.1876,-3.1977,-3.2028,-3.3514,-3.4385,-3.4593,-3.5763,-3.6417,-3.6417,-3.6417,-3.6417,-3.6417,-3.6417,-3.6646,-3.7149,-3.7387,-3.7776,-3.8304,-3.8191,-3.8015,-3.7901,-3.7814,-3.7425,-3.682,-3.6973,-3.691,-3.6493,-3.6417,-3.6417,-3.6417,-3.6417,-3.6254,-3.5868,-3.5608,-3.5144,-3.4525,-3.3985,-3.3332,-3.2692,-3.2528,-3.2541,-3.2566,-3.288,-3.3124,-3.3124,-3.3086,-3.283,-3.2252,-3.17,-3.1273,-3.0947,-3.0733,-3.0834,-3.1047,-3.1298,-3.0959,-3.0934,-3.0507,-3.0168,-2.9867,-2.9779,-2.9779,-2.9779,-2.9779,-2.9779,-2.9779,-2.9779,-2.9779,-2.9779,-2.9767,-2.9779,-2.9779,-2.9767,-2.9666,-2.9391,-2.9705,-3.0396,-3.1351,-3.1978,-3.2048,-3.1993,-3.1723,-3.1015,-3.0062,-2.9656,-2.9378,-2.9477,-2.9634,-2.9513,-2.951,-3.0305,-3.0841,-3.1014,-3.1036,-3.0735,-3.0133,-2.9968,-2.9894,-3.0073,-3.0118,-3.0238,-3.0432,-3.0806,-3.1107,-3.0586,-3.0156,-2.9707,-2.9258,-2.8877,-2.8574,-2.8441,-2.8601,-2.9608,-2.9565,-2.9154,-3.0773,-3.1224,-3.0979,-3.2985,-3.4174,-3.4544,-3.5886,-3.648,-3.643,-3.6417,-3.6417,-3.6417,-3.6417,-3.6744,-3.7299,-3.7739,-3.8291,-3.8906,-3.9145,-3.9371,-3.8818,-3.8705,-3.8353,-3.7425,-3.7249,-3.7071,-3.6619,-3.6468,-3.6417,-3.6417,-3.6417,-3.6405,-3.6342,-3.5881,-3.5533,-3.5295,-3.4793,-3.4135,-3.3282,-3.3119,-3.3119,-3.3162,-3.3149,-3.3124,-3.3199,-3.3162,-3.2767,-3.2252,-3.17,-3.1373,-3.1286,-3.0997,-3.1032,-3.18,-3.1512,-3.1198,-3.1235,-3.0583,-2.998,-2.9867,-2.9779,-2.9779,-2.9779,-2.9779,-2.9779,-2.9779,-2.9779,-2.9779,-2.9779,-2.9779,-2.9779,-2.9779,-2.9779,-2.9767,-2.9729,-2.9807,-3.0316,-3.1061,-3.1789,-3.2332,-3.2195,-3.1779,-3.1154,-3.0123,-2.9745,-2.9503,-2.9606,-2.9678,-2.9501,-2.9455,-3.0243,-3.1125,-3.1333,-3.1498,-3.1168,-3.0913,-3.0791,-3.0522,-3.0387,-3.0432,-3.0507,-3.0761,-3.1107,-3.1271,-3.0312,-3.0117,-2.9404,-2.9023,-2.8867,-2.8467,-2.8301,-2.8344,-2.8698,-2.8804,-2.8601,-2.9006,-2.946,-2.9237,-3.216,-3.327,-3.3691,-3.5734,-3.6757,-3.6455,-3.6417,-3.6417,-3.6417,-3.643,-3.6933,-3.7701,-3.8002,-3.8504,-3.9383,-3.9258,-3.9057,-3.8932,-3.8957,-3.8542,-3.7889,-3.7789,-3.75,-3.6973,-3.6593,-3.6443,-3.6455,-3.6443,-3.6417,-3.6392,-3.6219,-3.5943,-3.552,-3.4981,-3.4424,-3.3771,-3.3684,-3.3684,-3.3646,-3.3357,-3.3319,-3.3583,-3.3282,-3.283,-3.2277,-3.1725,-3.1424,-3.1386,-3.1298,-3.1486,-3.2139,-3.2365,-3.2039,-3.1625,-3.106,-3.0608,-2.9993,-2.9792,-2.9792,-2.9779,-2.9779,-2.9779,-2.9779,-2.9779,-2.9779,-2.9779,-2.9779,-2.9779,-2.9779,-2.9779,-2.9779,-2.9779,-2.9856,-3.0088,-3.0846,-3.1365,-3.1779,-3.1646,-3.1256,-3.0828,-3.0291,-2.9897,-2.9692,-2.9755,-2.9694,-2.953,-2.9671,-3.0115,-3.1044,-3.1709,-3.2108,-3.1989,-3.1795,-3.163,-3.1256,-3.0821,-3.0926,-3.1062,-3.1167,-3.1421,-3.1466,-3.0273,-2.9902,-2.9404,-2.8984,-2.8652,-2.8398,-2.8301,-2.8451,-2.89,-2.9154,-2.926,-2.9765,-2.9964,-3.0245,-3.2582,-3.3503,-3.3583,-3.5733,-3.6599,-3.648,-3.6417,-3.6543,-3.6694,-3.6769,-3.7335,-3.8266,-3.8366,-3.8868,-3.9509,-3.9346,-3.9245,-3.9233,-3.922,-3.8919,-3.8417,-3.8366,-3.809,-3.7525,-3.7059,-3.6845,-3.7036,-3.6822,-3.6769,-3.6757,-3.6732,-3.6445,-3.5931,-3.5579,-3.5152,-3.4688,-3.4354,-3.4248,-3.4223,-3.396,-3.3922,-3.4223,-3.3734,-3.3181,-3.2616,-3.2051,-3.175,-3.1738,-3.1738,-3.2026,-3.2428,-3.2717,-3.2315,-3.1876,-3.1373,-3.0783,-3.0294,-2.9942,-2.9804,-2.9779,-2.9779,-2.9792,-2.9792,-2.9779,-2.9779,-2.9779,-2.9779,-2.9779,-2.9779,-2.9779,-2.9779,-2.9779,-2.9779,-3.0075,-3.0457,-3.0833,-3.1044,-3.0871,-3.0945,-3.067,-3.0279,-2.9858,-2.9704,-2.9805,-2.978,-2.9604,-2.9852,-3.0188,-3.0829,-3.1693,-3.2386,-3.2751,-3.2302,-3.199,-3.1795,-3.1511,-3.1585,-3.1525,-3.154,-3.1645,-3.1675,-3.0351,-2.9685,-2.9597,-2.9062,-2.8437,-2.831,-2.8301,-2.8548,-2.9618,-3.0172,-3.0421,-3.1633,-3.1887,-3.2392,-3.3588,-3.442,-3.4446,-3.59,-3.6351,-3.6468,-3.6543,-3.6772,-3.7224,-3.7123,-3.7726,-3.863,-3.8906,-3.917,-3.9546,-3.9659,-3.9672,-3.9494,-3.9467,-3.9152,-3.8384,-3.8336,-3.8102,-3.7355,-3.6973,-3.6948,-3.7319,-3.7255,-3.7224,-3.7061,-3.6923,-3.6769,-3.6455,-3.6292,-3.6044,-3.5571,-3.5102,-3.4793,-3.4743,-3.4776,-3.4675,-3.455,-3.4123,-3.3583,-3.3068,-3.2453,-3.224,-3.2265,-3.2227,-3.2466,-3.2805,-3.2704,-3.2403,-3.2127,-3.1273,-3.0758,-3.0394,-3.0105,-2.998,-2.9905,-2.9817,-2.988,-2.9804,-2.9779,-2.9779,-2.9779,-2.9779,-2.9779,-2.9779,-2.9779,-2.9779,-2.9779,-2.9779,-2.9934,-3.0139,-3.0419,-3.0381,-3.0152,-3.0317,-3.0633,-3.0203,-2.9779,-2.9767,-2.9779,-2.9779,-2.9756,-3.0059,-3.0392,-3.0791,-3.1383,-3.1985,-3.2234,-3.2094,-3.1931,-3.1915,-3.2019,-3.1929,-3.1765,-3.1645,-3.1824,-3.1914,-3.0244,-3.001,-2.9346,-2.8955,-2.874,-2.8437,-2.8301,-2.8398,-2.9713,-3.0328,-3.0618,-3.1735,-3.2331,-3.2454,-3.4126,-3.4815,-3.4713,-3.6096,-3.6784,-3.6468,-3.6835,-3.7299,-3.7626,-3.7462,-3.7864,-3.873,-3.8932,-3.9221,-3.9572,-3.9697,-3.9697,-3.953,-3.8739,-3.7906,-3.7644,-3.6579,-3.537,-3.531,-3.5797,-3.6204,-3.6577,-3.732,-3.7553,-3.7299,-3.6847,-3.6593,-3.6468,-3.6417,-3.6342,-3.6081,-3.5705,-3.5332,-3.5257,-3.4956,-3.4851,-3.4668,-3.4261,-3.3684,-3.3131,-3.2667,-3.2416,-3.2754,-3.2516,-3.2453,-3.3036,-3.3011,-3.2641,-3.2252,-3.1612,-3.0947,-3.0319,-3.0708,-3.0557,-3.0181,-3.0218,-3.0269,-2.9917,-2.9792,-2.9779,-2.9779,-2.9779,-2.9779,-2.9779,-2.9779,-2.9779,-2.9779,-2.9779,-2.9779,-2.9934,-3.0075,-2.9972,-2.9792,-2.9934,-3.0241,-3.0101,-2.9779,-2.9779,-2.9779,-2.9779,-2.9805,-3.0099,-3.0371,-3.0675,-3.107,-3.1527,-3.1666,-3.1735,-3.1838,-3.1811,-3.2017,-3.2273,-3.2198,-3.2153,-3.2198,-3.2422,-2.9795,-2.956,-2.9101,-2.8809,-2.8613,-2.8389,-2.8301,-2.8548,-2.9713,-3.0328,-3.0773,-3.2342,-3.3254,-3.3377,-3.4377,-3.4943,-3.5477,-3.6274,-3.6681,-3.6556,-3.6971,-3.7475,-3.7977,-3.809,-3.8454,-3.9157,-3.9258,-3.9459,-3.9634,-3.9645,-3.931,-3.8804,-3.8413,-3.7743,-3.6811,-3.5875,-3.5634,-3.5012,-3.5002,-3.5264,-3.5747,-3.6704,-3.7791,-3.7728,-3.726,-3.6795,-3.6807,-3.6518,-3.6443,-3.6342,-3.6107,-3.5931,-3.5906,-3.5655,-3.5504,-3.5378,-3.4688,-3.4236,-3.3771,-3.3131,-3.2754,-3.3099,-3.2767,-3.2872,-3.3036,-3.3124,-3.3011,-3.2591,-3.2089,-3.1436,-3.0696,-3.0922,-3.0972,-3.0809,-3.0783,-3.0721,-3.0281,-2.9955,-2.9779,-2.9779,-2.9779,-2.9779,-2.9779,-2.9779,-2.9779,-2.9779,-2.9779,-2.9779,-2.9779,-2.9934,-2.9895,-2.9792,-2.9779,-2.9856,-2.9856,-2.9779,-2.9779,-2.9779,-2.9779,-2.9779,-2.9909,-3.0164,-3.043,-3.0773,-3.1063,-3.1338,-3.1461,-3.156,-3.1782,-3.2096,-3.2367,-3.2585,-3.2766,-3.2825,-3.3169,-2.9258,-2.8916,-2.8848,-2.8613,-2.832,-2.8301,-2.8301,-2.8495,-2.9702,-3.0328,-3.0732,-3.3005,-3.3662,-3.3981,-3.3944,-3.4824,-3.5752,-3.6163,-3.6164,-3.6458,-3.7098,-3.7588,-3.804,-3.8504,-3.9007,-3.9634,-3.9634,-3.9685,-3.9685,-3.9581,-3.9025,-3.7954,-3.8255,-3.7156,-3.5715,-3.5661,-3.5276,-3.4161,-3.4142,-3.4676,-3.5457,-3.6385,-3.7579,-3.8329,-3.7852,-3.7337,-3.7236,-3.6973,-3.6732,-3.6656,-3.6656,-3.6606,-3.6518,-3.643,-3.6329,-3.6182,-3.5265,-3.4788,-3.4449,-3.3859,-3.337,-3.3287,-3.325,-3.3119,-3.3149,-3.3124,-3.3099,-3.2973,-3.2554,-3.2051,-3.1499,-3.17,-3.1612,-3.1386,-3.1348,-3.1148,-3.067,-3.0131,-2.9829,-2.9779,-2.9779,-2.9779,-2.9779,-2.9779,-2.9779,-2.9779,-2.9779,-2.9779,-2.9779,-2.9779,-2.9779,-2.9779,-2.9779,-2.9779,-2.9779,-3.0241,-3.0203,-3.0139,-3.0062,-3.0024,-2.9998,-2.9998,-3.0254,-3.0317,-3.054,-3.0824,-3.1128,-3.126,-3.1579,-3.2107,-3.2219,-3.2144,-3.2654,-3.3311,-3.3763,-2.8984,-2.8896,-2.8545,-2.835,-2.8301,-2.8301,-2.8301,-2.8548,-2.966,-3.0266,-3.0463,-3.1938,-3.2644,-3.2644,-3.2644,-3.3453,-3.4543,-3.5186,-3.5806,-3.6503,-3.7312,-3.7939,-3.8165,-3.8718,-3.9207,-3.9559,-3.9697,-3.9697,-3.9697,-3.9633,-3.8908,-3.7636,-3.693,-3.5508,-3.408,-3.2758,-3.3088,-3.3042,-3.3335,-3.425,-3.5308,-3.6575,-3.7814,-3.8779,-3.8241,-3.7927,-3.7864,-3.7789,-3.7726,-3.7726,-3.7726,-3.745,-3.7023,-3.6656,-3.6245,-3.5843,-3.5495,-3.5119,-3.4756,-3.4562,-3.4161,-3.3897,-3.3759,-3.3508,-3.3257,-3.3149,-3.3187,-3.3099,-3.296,-3.2516,-3.1537,-3.2139,-3.219,-3.1763,-3.1474,-3.1273,-3.0733,-3.0281,-2.988,-2.9804,-2.9804,-2.9779,-2.9779,-2.9779,-2.9779,-2.9779,-2.9779,-2.9779,-2.9779,-2.9779,-2.9779,-2.9779,-2.9779,-2.9779,-2.9779,-3.0444,-3.0796,-3.0771,-3.0696,-3.0658,-3.0482,-3.0062,-3.0037,-3.0113,-3.0177,-3.0379,-3.0642,-3.0926,-3.1395,-3.191,-3.1822,-3.1683,-3.2495,-3.3289,-3.3738,-2.8594,-2.8574,-2.8369,-2.8301,-2.8301,-2.8301,-2.8301,-2.8398,-2.9006,-2.926,-2.966,-3.0618,-3.1276,-3.1276,-3.1276,-3.2039,-3.3247,-3.4391,-3.5478,-3.673,-3.76,-3.8203,-3.8442,-3.9019,-3.9383,-3.9647,-3.9697,-3.9697,-3.9697,-3.9697,-3.8856,-3.7902,-3.737,-3.6499,-3.4902,-3.4626,-3.3698,-3.3586,-3.3856,-3.4515,-3.5398,-3.6757,-3.8061,-3.885,-3.8781,-3.8479,-3.8391,-3.809,-3.8002,-3.7977,-3.799,-3.7701,-3.7312,-3.7008,-3.6546,-3.6056,-3.5683,-3.542,-3.5082,-3.4881,-3.4517,-3.4387,-3.4324,-3.406,-3.3684,-3.3508,-3.3345,-3.3187,-3.3124,-3.288,-3.2365,-3.2792,-3.2717,-3.2441,-3.2202,-3.1788,-3.121,-3.0783,-3.0369,-2.9967,-2.9892,-2.9867,-2.9779,-2.9779,-2.9779,-2.9779,-2.9779,-2.9779,-2.9779,-2.9779,-2.9779,-2.9779,-2.9779,-2.9779,-2.9856,-3.0381,-3.1044,-3.1119,-3.1044,-3.1007,-3.0796,-3.0317,-2.9998,-2.9856,-2.996,-3.0075,-3.0291,-3.0647,-3.1169,-3.1684,-3.1785,-3.1979,-3.2609,-3.3195,-3.3509,-2.8301,-2.8301,-2.8301,-2.8301,-2.8301,-2.8301,-2.8301,-2.8301,-2.8344,-2.8398,-2.8451,-2.9355,-2.9911,-2.9911,-3.011,-3.0773,-3.2303,-3.3679,-3.5208,-3.698,-3.7739,-3.8304,-3.8919,-3.9309,-3.9534,-3.9672,-3.9697,-3.9697,-3.9697,-3.9697,-3.8856,-3.8072,-3.8739,-3.8043,-3.5847,-3.5727,-3.6042,-3.5727,-3.5288,-3.5354,-3.5999,-3.7198,-3.8465,-3.9517,-3.927,-3.9032,-3.8981,-3.8705,-3.8504,-3.8467,-3.8379,-3.814,-3.7651,-3.7525,-3.7211,-3.6571,-3.6019,-3.5721,-3.5571,-3.5403,-3.514,-3.4868,-3.4843,-3.4525,-3.3985,-3.3646,-3.3483,-3.3224,-3.3124,-3.3081,-3.296,-3.3099,-3.3099,-3.3011,-3.2805,-3.2528,-3.1687,-3.1135,-3.0771,-3.0432,-3.0156,-2.9993,-2.9942,-2.9779,-2.9779,-2.9779,-2.9779,-2.9779,-2.9779,-2.9779,-2.9779,-2.9779,-2.9779,-2.9779,-2.9921,-3.0203,-3.0796,-3.1143,-3.1007,-3.0895,-3.0696,-3.0419,-3.0101,-2.9779,-2.9818,-2.9921,-3.0139,-3.0241,-3.057,-3.1018,-3.1646,-3.1992,-3.2121,-3.2463,-3.2786,-2.8301,-2.8301,-2.8301,-2.8301,-2.8281,-2.8281,-2.8291,-2.8271,-2.8281,-2.8301,-2.8291,-2.8495,-2.8654,-2.8644,-2.8654,-3.0016,-3.1885,-3.3095,-3.4807,-3.6994,-3.7701,-3.8253,-3.8856,-3.8944,-3.9346,-3.9622,-3.9697,-3.9697,-3.9697,-3.9697,-3.9025,-3.8072,-3.7849,-3.7091,-3.6228,-3.6391,-3.5464,-3.5398,-3.5453,-3.6054,-3.7263,-3.857,-3.9349,-3.9608,-3.9597,-3.9521,-3.9496,-3.9333,-3.932,-3.9371,-3.9421,-3.9195,-3.8831,-3.873,-3.8065,-3.7287,-3.6621,-3.6304,-3.6257,-3.6132,-3.5918,-3.5583,-3.5433,-3.4856,-3.4236,-3.3583,-3.335,-3.3174,-3.3149,-3.3199,-3.3237,-3.3199,-3.3149,-3.3048,-3.288,-3.2328,-3.1625,-3.1587,-3.1223,-3.0934,-3.067,-3.0344,-3.0156,-2.9942,-2.9779,-2.9779,-2.9779,-2.9779,-2.9779,-2.9779,-2.9779,-2.9779,-2.9779,-2.9779,-2.9818,-3.0165,-3.0595,-3.1082,-3.0884,-3.0733,-3.072,-3.052,-3.0024,-2.9779,-2.9779,-2.9779,-2.9921,-2.9998,-2.9998,-3.0241,-3.0733,-3.102,-3.1241,-3.1646,-3.2128,-2.8076,-2.8291,-2.8301,-2.8154,-2.7988,-2.8184,-2.8154,-2.8018,-2.8193,-2.8301,-2.8301,-2.8301,-2.8301,-2.8301,-2.8301,-2.9817,-3.1891,-3.2639,-3.4375,-3.67,-3.7513,-3.804,-3.8756,-3.8957,-3.917,-3.9572,-3.9697,-3.9697,-3.9697,-3.9633,-3.9245,-3.8856,-3.8687,-3.8687,-3.7542,-3.7713,-3.7873,-3.7873,-3.7873,-3.8149,-3.8752,-3.9362,-3.9697,-3.9697,-3.9697,-3.9697,-3.9697,-3.9697,-3.9697,-3.9697,-3.9697,-3.9433,-3.907,-3.8831,-3.8416,-3.7373,-3.7299,-3.7149,-3.6885,-3.6822,-3.6634,-3.6433,-3.6119,-3.5516,-3.4562,-3.3872,-3.3413,-3.3136,-3.3382,-3.352,-3.3633,-3.3847,-3.3759,-3.3571,-3.3206,-3.2591,-3.2089,-3.1913,-3.1725,-3.1461,-3.1223,-3.1009,-3.0733,-3.0432,-3.0256,-3.0131,-2.9967,-2.9779,-2.9779,-2.9779,-2.9779,-2.9779,-2.9779,-2.9779,-2.9818,-2.9998,-3.0457,-3.0771,-3.0432,-3.0419,-3.0809,-3.062,-3.0176,-2.9854,-2.9804,-2.9792,-2.9792,-2.9818,-2.9895,-2.9856,-2.9818,-3.0203,-3.062,-3.1119,-3.1646,-2.7685,-2.7988,-2.8203,-2.8115,-2.7914,-2.8164,-2.8135,-2.79,-2.8164,-2.8301,-2.8301,-2.8301,-2.8301,-2.8451,-2.8804,-3.0162,-3.223,-3.2644,-3.4572,-3.6357,-3.7324,-3.7864,-3.8605,-3.8969,-3.917,-3.9697,-3.9697,-3.9697,-3.9697,-3.9697,-3.9697,-3.9697,-3.9478,-3.953,-3.9633,-3.9426,-3.931,-3.931,-3.9362,-3.9478,-3.9581,-3.9645,-3.9697,-3.9697,-3.9697,-3.9697,-3.9697,-3.9697,-3.9697,-3.9697,-3.9697,-3.9496,-3.9207,-3.9107,-3.8605,-3.7852,-3.7839,-3.7776,-3.7362,-3.7123,-3.7186,-3.6973,-3.6508,-3.568,-3.5031,-3.4424,-3.401,-3.3633,-3.3872,-3.4073,-3.4186,-3.4474,-3.4374,-3.4148,-3.3884,-3.3257,-3.2717,-3.2516,-3.2252,-3.1938,-3.1825,-3.1989,-3.165,-3.1122,-3.0809,-3.0557,-3.0244,-2.9854,-2.9779,-2.9779,-2.9779,-2.9779,-2.9779,-2.9779,-2.9818,-2.996,-3.0381,-3.0521,-3.0164,-3.0087,-3.0458,-3.0612,-3.0413,-3.0143,-2.9917,-2.9854,-2.988,-2.9829,-2.9779,-2.9779,-2.9779,-2.9779,-3.0101,-3.0595,-3.1119,-2.707,-2.7168,-2.7949,-2.8223,-2.8184,-2.8281,-2.8271,-2.8144,-2.8242,-2.8291,-2.8301,-2.8301,-2.8301,-2.8548,-2.9513,-3.0762,-3.2331,-3.3662,-3.5259,-3.6526,-3.7274,-3.7751,-3.8404,-3.8755,-3.9082,-3.9559,-3.9672,-3.9697,-3.9697,-3.9697,-3.9697,-3.9697,-3.9697,-3.9697,-3.9697,-3.9697,-3.9697,-3.9697,-3.9697,-3.9697,-3.9697,-3.9697,-3.9697,-3.9697,-3.9697,-3.9697,-3.9697,-3.9697,-3.9697,-3.9697,-3.9697,-3.9697,-3.9521,-3.9496,-3.8931,-3.8354,-3.8379,-3.8178,-3.7588,-3.7236,-3.7174,-3.6885,-3.637,-3.5717,-3.5307,-3.4906,-3.465,-3.4487,-3.4537,-3.465,-3.463,-3.4668,-3.4889,-3.4675,-3.4399,-3.3834,-3.3357,-3.3093,-3.2817,-3.2441,-3.2378,-3.2491,-3.2328,-3.1763,-3.1173,-3.0896,-3.0181,-2.9779,-2.9779,-2.9779,-2.9779,-2.9779,-2.9779,-2.9779,-2.9779,-2.996,-3.0101,-3.0304,-3.0237,-3.0057,-3.0098,-3.0231,-3.0683,-3.0357,-3.0131,-3.0055,-2.9942,-2.9842,-2.9779,-2.9779,-2.9817,-2.9967,-2.993,-3.019,-3.0609,-2.6631,-2.6689,-2.7266,-2.751,-2.7559,-2.8066,-2.8144,-2.7978,-2.8174,-2.8301,-2.8301,-2.8291,-2.8291,-2.8708,-2.9723,-3.1019,-3.2381,-3.3761,-3.5284,-3.625,-3.6845,-3.7222,-3.7726,-3.8278,-3.8617,-3.9157,-3.9471,-3.9697,-3.9697,-3.9634,-3.9685,-3.9697,-3.9697,-3.9697,-3.9697,-3.9697,-3.9697,-3.9697,-3.9697,-3.9697,-3.9697,-3.9697,-3.9697,-3.9697,-3.9697,-3.9697,-3.9697,-3.9697,-3.9697,-3.9697,-3.9697,-3.9697,-3.9697,-3.9697,-3.9283,-3.8605,-3.8818,-3.8354,-3.7751,-3.7337,-3.7061,-3.6719,-3.6257,-3.5906,-3.5608,-3.5295,-3.4994,-3.4906,-3.5019,-3.5182,-3.5194,-3.5491,-3.568,-3.5282,-3.4831,-3.4361,-3.3972,-3.3684,-3.3319,-3.2918,-3.2867,-3.296,-3.2667,-3.2353,-3.175,-3.1185,-3.0407,-2.9804,-2.9854,-2.988,-2.9917,-2.993,-2.9942,-2.9905,-2.9905,-2.9854,-2.9792,-3.0018,-3.0256,-3.0281,-3.0294,-3.0783,-3.1072,-3.0696,-3.0407,-3.0369,-3.0206,-2.9905,-2.9829,-2.9917,-3.0118,-3.0331,-3.0206,-3.0005,-3.0215,-2.6055,-2.6064,-2.6592,-2.6904,-2.709,-2.7656,-2.7822,-2.7744,-2.7959,-2.8203,-2.8344,-2.8644,-2.889,-2.9355,-3.0886,-3.1999,-3.3254,-3.4471,-3.5463,-3.6146,-3.6518,-3.6757,-3.7199,-3.7739,-3.8291,-3.8705,-3.9145,-3.9421,-3.9383,-3.9433,-3.9534,-3.9634,-3.9697,-3.9697,-3.9697,-3.9697,-3.9697,-3.9697,-3.9697,-3.9697,-3.9697,-3.9697,-3.9697,-3.9697,-3.9697,-3.9697,-3.9697,-3.9697,-3.9697,-3.9697,-3.9697,-3.9697,-3.9697,-3.9622,-3.9383,-3.9044,-3.8668,-3.8366,-3.7826,-3.7425,-3.6935,-3.6543,-3.6443,-3.6107,-3.5906,-3.5793,-3.5629,-3.5416,-3.5617,-3.5793,-3.578,-3.6031,-3.6166,-3.5768,-3.5395,-3.4919,-3.4525,-3.4186,-3.3784,-3.3395,-3.335,-3.3111,-3.2842,-3.2516,-3.1989,-3.1386,-3.0721,-3.0231,-3.0181,-3.0193,-3.0168,-3.0168,-3.0168,-3.0118,-3.0068,-2.9967,-2.9905,-3.003,-3.0294,-3.0608,-3.0796,-3.1311,-3.1502,-3.1097,-3.0859,-3.0733,-3.0645,-3.0557,-3.0331,-3.0105,-3.0419,-3.0771,-3.0482,-3.0281,-3.0018,-2.525,-2.5253,-2.6153,-2.6713,-2.7029,-2.7021,-2.7285,-2.7578,-2.7656,-2.7966,-2.8496,-2.9463,-3.0161,-3.073,-3.2587,-3.3723,-3.4227,-3.5463,-3.631,-3.6358,-3.643,-3.6757,-3.7123,-3.76,-3.7902,-3.8128,-3.8567,-3.8894,-3.9007,-3.9082,-3.9245,-3.9584,-3.9697,-3.9697,-3.9697,-3.9697,-3.9697,-3.9697,-3.9697,-3.9697,-3.9697,-3.9697,-3.9697,-3.9697,-3.9697,-3.9697,-3.9697,-3.9697,-3.9697,-3.9697,-3.9697,-3.9697,-3.9697,-3.9697,-3.9459,-3.9032,-3.8454,-3.7902,-3.7324,-3.7236,-3.701,-3.6757,-3.6807,-3.6593,-3.6455,-3.638,-3.6292,-3.5981,-3.6216,-3.6304,-3.6367,-3.638,-3.6342,-3.6169,-3.583,-3.5458,-3.5064,-3.455,-3.4123,-3.3646,-3.3363,-3.3099,-3.288,-3.2604,-3.2139,-3.1574,-3.0972,-3.0683,-3.062,-3.0595,-3.0583,-3.0583,-3.0583,-3.0595,-3.0507,-3.0143,-3.003,-3.0143,-3.0482,-3.0972,-3.1449,-3.1976,-3.1926,-3.1512,-3.1424,-3.1386,-3.1361,-3.1364,-3.1097,-3.0909,-3.0997,-3.1148,-3.0846,-3.0608,-3.0444,-2.6843,-2.6864,-2.715,-2.7317,-2.7404,-2.7122,-2.71,-2.7217,-2.7288,-2.7748,-2.8666,-2.9607,-3.0416,-3.1578,-3.3203,-3.4459,-3.4727,-3.5763,-3.6417,-3.6417,-3.6417,-3.6493,-3.681,-3.7236,-3.75,-3.7613,-3.8002,-3.8605,-3.8944,-3.8919,-3.9246,-3.9559,-3.9697,-3.9697,-3.9697,-3.9697,-3.9697,-3.9697,-3.9697,-3.9697,-3.9697,-3.9697,-3.9697,-3.9697,-3.9697,-3.9697,-3.9697,-3.9697,-3.9697,-3.9697,-3.9697,-3.9697,-3.9685,-3.9672,-3.9572,-3.9295,-3.8868,-3.8329,-3.7902,-3.7739,-3.7676,-3.7513,-3.7362,-3.7186,-3.6985,-3.6958,-3.6769,-3.6505,-3.6443,-3.643,-3.6405,-3.6405,-3.638,-3.638,-3.6094,-3.5855,-3.5441,-3.4876,-3.4361,-3.3847,-3.3488,-3.3325,-3.3106,-3.3194,-3.2805,-3.2353,-3.1838,-3.1336,-3.116,-3.1135,-3.1122,-3.1122,-3.1122,-3.1135,-3.1009,-3.0696,-3.0595,-3.0758,-3.1198,-3.175,-3.2227,-3.2466,-3.2365,-3.1938,-3.2001,-3.2051,-3.1901,-3.18,-3.1838,-3.18,-3.1775,-3.1725,-3.1562,-3.1323,-3.1097,-2.7487,-2.7509,-2.7621,-2.7631,-2.7469,-2.7317,-2.738,-2.7707,-2.7723,-2.8306,-2.9462,-3.0351,-3.1272,-3.2503,-3.3862,-3.4981,-3.5138,-3.5918,-3.6417,-3.6417,-3.6417,-3.6443,-3.6644,-3.7023,-3.7387,-3.7462,-3.7927,-3.8555,-3.8906,-3.8919,-3.9233,-3.9572,-3.9697,-3.9697,-3.9697,-3.9697,-3.9697,-3.9697,-3.9697,-3.9697,-3.9697,-3.9697,-3.9697,-3.9697,-3.9697,-3.9697,-3.9697,-3.9697,-3.9697,-3.9697,-3.9749,-3.9736,-3.9711,-3.9573,-3.9534,-3.9459,-3.917,-3.8705,-3.8404,-3.8316,-3.8366,-3.8592,-3.8291,-3.7852,-3.7475,-3.7262,-3.7059,-3.6795,-3.6556,-3.6443,-3.6417,-3.6417,-3.6417,-3.6417,-3.6329,-3.6044,-3.5855,-3.529,-3.4843,-3.4336,-3.3935,-3.3721,-3.3545,-3.3633,-3.3621,-3.3194,-3.2754,-3.2227,-3.1725,-3.1687,-3.1675,-3.1675,-3.1675,-3.1687,-3.1574,-3.1323,-3.1286,-3.1373,-3.1788,-3.2265,-3.2215,-3.2303,-3.234,-3.2441,-3.2478,-3.2453,-3.229,-3.2227,-3.234,-3.2365,-3.2328,-3.229,-3.224,-3.2001,-3.17,-2.7209,-2.7245,-2.7639,-2.7613,-2.7312,-2.7665,-2.8266,-2.9073,-2.8806,-2.9412,-3.0689,-3.1866,-3.2665,-3.3529,-3.4851,-3.5556,-3.5931,-3.6147,-3.6245,-3.6355,-3.6355,-3.6392,-3.6707,-3.7199,-3.7299,-3.76,-3.799,-3.8404,-3.8869,-3.9032,-3.932,-3.9584,-3.9697,-3.9697,-3.9697,-3.9697,-3.9697,-3.9697,-3.9697,-3.9697,-3.9697,-3.9697,-3.9697,-3.9697,-3.9697,-3.9697,-3.9736,-3.9878,-3.9839,-3.9839,-3.9826,-3.9814,-3.965,-3.9246,-3.941,-3.9435,-3.9234,-3.9007,-3.8919,-3.8894,-3.9057,-3.9207,-3.8693,-3.8253,-3.7952,-3.7713,-3.7425,-3.7121,-3.6807,-3.6581,-3.643,-3.6417,-3.6417,-3.6417,-3.6417,-3.6304,-3.6241,-3.5868,-3.5483,-3.5069,-3.4726,-3.4487,-3.4336,-3.4349,-3.4022,-3.3646,-3.3194,-3.2817,-3.239,-3.2252,-3.224,-3.224,-3.224,-3.224,-3.2102,-3.1951,-3.1951,-3.2026,-3.2114,-3.2441,-3.2315,-3.2315,-3.2541,-3.2729,-3.288,-3.2842,-3.2667,-3.2759,-3.2948,-3.2935,-3.2717,-3.2667,-3.2566,-3.2453,-3.2202,-2.901,-2.9034,-2.914,-2.9116,-2.8975,-2.8633,-2.8611,-2.8734,-2.8714,-2.9509,-3.1086,-3.1896,-3.2822,-3.3822,-3.4582,-3.4981,-3.5303,-3.5554,-3.573,-3.5893,-3.6157,-3.6342,-3.6568,-3.6845,-3.6973,-3.7249,-3.7638,-3.8241,-3.8843,-3.9157,-3.9446,-3.9685,-3.9685,-3.9685,-3.9697,-3.9697,-3.9697,-3.9697,-3.9697,-3.9697,-3.9697,-3.9697,-3.9697,-3.9697,-3.9839,-3.9839,-3.9929,-4.0693,-4.0706,-4.0032,-4.0693,-4.0878,-4.0309,-4.0166,-4.0244,-4.0236,-3.9853,-3.9459,-3.9459,-3.9446,-3.9521,-3.9634,-3.9295,-3.9032,-3.8718,-3.8354,-3.7952,-3.745,-3.7172,-3.6923,-3.6684,-3.6631,-3.6593,-3.6568,-3.6556,-3.648,-3.638,-3.6056,-3.5696,-3.5592,-3.5215,-3.5064,-3.4939,-3.4525,-3.4186,-3.3897,-3.3583,-3.3219,-3.2943,-3.2767,-3.2679,-3.2667,-3.2679,-3.2641,-3.2742,-3.2696,-3.2654,-3.2679,-3.2679,-3.2654,-3.2641,-3.2692,-3.2867,-3.2968,-3.3048,-3.3086,-3.3061,-3.3124,-3.3124,-3.3124,-3.2998,-3.293,-3.288,-3.2754,-3.2692,-2.9779,-2.9779,-2.9779,-2.9779,-2.9713,-2.9371,-2.926,-2.9316,-2.9141,-2.998,-3.1549,-3.1965,-3.2788,-3.3827,-3.4229,-3.4537,-3.4801,-3.5077,-3.5282,-3.5646,-3.5868,-3.6132,-3.6329,-3.6606,-3.6923,-3.7149,-3.7513,-3.8115,-3.8781,-3.9333,-3.9659,-3.9371,-3.9521,-3.9672,-3.9697,-3.9697,-3.9697,-3.9697,-3.9697,-3.9697,-3.9697,-3.9697,-3.9697,-3.9775,-3.9968,-4.0313,-4.0491,-4.1578,-4.1703,-4.1269,-4.2168,-4.2194,-4.1783,-4.1743,-4.1576,-4.1469,-4.088,-4.0577,-4.0452,-3.9879,-3.9775,-3.9697,-3.9697,-3.9496,-3.9207,-3.8932,-3.8291,-3.7751,-3.7563,-3.7349,-3.7086,-3.6908,-3.6845,-3.6782,-3.6707,-3.6631,-3.6358,-3.6094,-3.5956,-3.5868,-3.5705,-3.5529,-3.5228,-3.4763,-3.4412,-3.4236,-3.3897,-3.3432,-3.3169,-3.3023,-3.2973,-3.2918,-3.3011,-3.3023,-3.3124,-3.3124,-3.3023,-3.2948,-3.2973,-3.2918,-3.293,-3.2943,-3.3036,-3.3074,-3.3111,-3.3124,-3.3124,-3.3124,-3.3124,-3.3124,-3.3149,-3.3081,-3.3031,-3.3023,-3.2998,-2.9779,-2.9779,-2.9779,-2.9779,-2.9779,-2.9739,-3.0,-3.0451,-2.9801,-3.0554,-3.1855,-3.2173,-3.2732,-3.3445,-3.3746,-3.4048,-3.4299,-3.455,-3.4781,-3.5357,-3.5382,-3.568,-3.6219,-3.6747,-3.6822,-3.7211,-3.7613,-3.7952,-3.868,-3.9082,-3.9094,-3.8894,-3.932,-3.9509,-3.9484,-3.9647,-3.9622,-3.9471,-3.9609,-3.9697,-3.9697,-3.9697,-3.9724,-3.9802,-4.049,-4.1243,-4.1538,-4.2358,-4.3409,-4.3204,-4.3347,-4.3286,-4.3107,-4.3322,-4.3091,-4.2568,-4.1838,-4.1376,-4.0932,-4.0313,-3.9839,-3.9697,-3.9697,-3.9647,-3.9446,-3.9283,-3.873,-3.8278,-3.8065,-3.7789,-3.7513,-3.7425,-3.7374,-3.7123,-3.6935,-3.6757,-3.643,-3.6267,-3.6229,-3.6107,-3.6128,-3.5965,-3.5827,-3.5328,-3.465,-3.4537,-3.4022,-3.347,-3.3483,-3.3294,-3.325,-3.3262,-3.3338,-3.3338,-3.3124,-3.3124,-3.3124,-3.3111,-3.3124,-3.3036,-3.288,-3.2986,-3.3111,-3.3124,-3.3124,-3.3124,-3.3124,-3.3124,-3.3136,-3.3149,-3.3131,-3.3181,-3.3194,-3.3294,-3.3319,-2.9779,-2.9779,-2.9779,-2.9779,-2.9779,-2.9779,-2.9867,-3.0005,-2.9858,-3.044,-3.1496,-3.2001,-3.2353,-3.2717,-3.3206,-3.3495,-3.3583,-3.3985,-3.4148,-3.4525,-3.4763,-3.5295,-3.5705,-3.6132,-3.6483,-3.701,-3.7412,-3.7688,-3.809,-3.8366,-3.8642,-3.8856,-3.9044,-3.9069,-3.9094,-3.9333,-3.9471,-3.922,-3.9521,-3.9685,-3.9697,-3.9622,-3.9623,-3.9511,-3.993,-4.0209,-4.0835,-4.2175,-4.1856,-4.1219,-4.2738,-4.3018,-4.2794,-4.3688,-4.4027,-4.3757,-4.2521,-4.1807,-4.1269,-4.0503,-3.9839,-3.9697,-3.9697,-3.9697,-3.9634,-3.9546,-3.9295,-3.8881,-3.8555,-3.8266,-3.804,-3.8002,-3.7927,-3.7588,-3.7211,-3.6883,-3.6493,-3.643,-3.6417,-3.6417,-3.6417,-3.6329,-3.6204,-3.573,-3.5064,-3.4374,-3.3658,-3.3294,-3.3734,-3.3759,-3.3583,-3.3583,-3.3684,-3.3621,-3.3388,-3.3212,-3.325,-3.3162,-3.3124,-3.3011,-3.2842,-3.2998,-3.3124,-3.3124,-3.3124,-3.3174,-3.3199,-3.3149,-3.3149,-3.3206,-3.3382,-3.3508,-3.3796,-3.3947,-3.3897,-2.9189,-2.9428,-2.9691,-2.9779,-2.9779,-2.9779,-2.9779,-2.9779,-2.9792,-3.0118,-3.0758,-3.1449,-3.1964,-3.224,-3.2817,-3.3099,-3.3149,-3.3382,-3.3734,-3.4022,-3.4449,-3.5006,-3.5345,-3.5696,-3.6219,-3.6772,-3.7073,-3.7337,-3.7425,-3.7877,-3.8228,-3.8241,-3.8316,-3.8504,-3.8567,-3.8969,-3.9182,-3.8931,-3.9371,-3.9636,-3.9686,-3.9661,-3.9584,-3.946,-3.988,-4.0032,-4.0911,-4.2312,-4.2331,-4.1936,-4.2978,-4.4325,-4.4287,-4.4291,-4.4385,-4.4047,-4.3073,-4.1604,-4.1269,-4.0605,-3.9749,-3.9697,-3.9697,-3.9697,-3.9697,-3.9584,-3.9346,-3.8994,-3.9182,-3.8969,-3.873,-3.863,-3.8567,-3.8329,-3.7776,-3.7287,-3.6807,-3.6417,-3.6417,-3.6417,-3.6417,-3.6392,-3.6216,-3.5818,-3.5219,-3.5044,-3.4211,-3.3822,-3.4135,-3.4361,-3.4148,-3.4085,-3.4274,-3.4035,-3.3671,-3.3483,-3.3451,-3.3325,-3.3199,-3.3074,-3.2968,-3.3061,-3.3124,-3.3199,-3.3275,-3.3338,-3.3338,-3.34,-3.3463,-3.3571,-3.3746,-3.3922,-3.4236,-3.4575,-3.46,-2.8424,-2.895,-2.9465,-2.9729,-2.9779,-2.9779,-2.9779,-2.9779,-2.9792,-2.9792,-3.0005,-3.0909,-3.1562,-3.2051,-3.2679,-3.2855,-3.3018,-3.3156,-3.3432,-3.3897,-3.4349,-3.4881,-3.5433,-3.5943,-3.6207,-3.6471,-3.6784,-3.6744,-3.6644,-3.7149,-3.745,-3.7312,-3.755,-3.7902,-3.8065,-3.8391,-3.8642,-3.8655,-3.8932,-3.9448,-3.9612,-3.9649,-3.9613,-4.002,-4.0524,-4.1133,-4.1648,-4.2299,-4.2958,-4.3456,-4.3456,-4.446,-4.5044,-4.4638,-4.4514,-4.4125,-4.2801,-4.1838,-4.1319,-4.0453,-3.9929,-3.9697,-3.9697,-3.9697,-3.9697,-3.9584,-3.9358,-3.9371,-3.9559,-3.9546,-3.9308,-3.917,-3.9107,-3.8655,-3.804,-3.7475,-3.692,-3.6417,-3.6417,-3.6417,-3.6417,-3.6417,-3.6157,-3.583,-3.5558,-3.5408,-3.5194,-3.4944,-3.4826,-3.4964,-3.4951,-3.4964,-3.5102,-3.4738,-3.4148,-3.396,-3.3872,-3.3533,-3.3407,-3.3232,-3.3093,-3.3124,-3.3199,-3.3345,-3.342,-3.3583,-3.3734,-3.3847,-3.3922,-3.3997,-3.4349,-3.4613,-3.4776,-3.5077,-3.5278,-2.8386,-2.89,-2.9026,-2.9365,-2.9741,-2.9779,-2.9779,-2.9779,-2.9779,-2.9779,-2.9955,-3.0394,-3.0831,-3.0944,-3.1976,-3.2403,-3.2579,-3.2842,-3.3395,-3.3897,-3.4173,-3.4718,-3.532,-3.5818,-3.6006,-3.6295,-3.6568,-3.648,-3.6417,-3.6669,-3.691,-3.7149,-3.7149,-3.7337,-3.7437,-3.7739,-3.7977,-3.8002,-3.8364,-3.8866,-3.9486,-3.9537,-3.944,-3.9362,-3.902,-3.9495,-4.007,-4.0861,-4.1444,-4.2347,-4.3679,-4.4428,-4.4585,-4.4493,-4.4256,-4.3442,-4.2168,-4.1604,-4.0882,-4.0211,-3.9788,-3.9697,-3.9697,-3.9697,-3.9697,-3.9697,-3.9559,-3.9559,-3.9672,-3.9672,-3.9521,-3.9521,-3.9396,-3.8316,-3.7513,-3.7023,-3.6543,-3.6417,-3.6417,-3.6417,-3.6417,-3.6405,-3.6355,-3.5994,-3.5646,-3.547,-3.529,-3.5102,-3.5353,-3.5529,-3.568,-3.5742,-3.5818,-3.5378,-3.4776,-3.46,-3.4437,-3.4035,-3.3658,-3.3495,-3.3307,-3.3149,-3.325,-3.3495,-3.3809,-3.4048,-3.4186,-3.4324,-3.4487,-3.458,-3.5019,-3.5307,-3.5466,-3.5579,-3.5755]},{"header":{"parameterUnit":"m.s-1","parameterCategory":1,"la1":31.0,"la2":29.5877,"lo1":-88.7671,"lo2":-86.6584,"dy":0.0162,"dx":0.0185,"nx":115,"ny":88,"refTime":"2023-09-02T06:00:00:Z","depth":0,"parameterNumber":3,"parameterNumberName":"V-component_of_WINDS"},"data":[0.0,0.0,0.0,0.0,0.0,0.0,0.0,0.0,0.0,0.0,0.0,0.0,0.0,0.0,0.0,0.0,0.0,0.0,0.0,0.0,0.0,0.0,0.0,0.0,0.0,0.0,0.0,0.0,0.0,0.0,0.0,0.0,0.0,0.0,0.0,0.0,0.0,0.0,0.0,0.0,0.0,0.0,0.0,0.0,0.0,0.0,0.0,0.0,0.0,0.0,0.0,0.0,0.0,0.0,0.0,0.0,0.0,0.0,0.0,0.0,0.0,0.0,0.0,0.0,0.0,0.0,0.0,0.0,0.0,0.0,0.0,0.0,0.0,0.0,0.0,0.0,0.0,0.0,0.0,0.0,0.0,0.0,0.0,0.0,0.0,0.0,0.0,0.0,0.0,0.0,0.0,0.0,0.0,0.0,0.0,0.0,0.0,0.0,0.0,0.0,0.0,0.0,0.0,0.0,0.0,0.0,0.0,0.0,0.0,0.0,0.0,0.0,0.0,0.0,0.0,0.0,0.0,0.0,0.0,0.0,0.0,0.0,0.0,0.0,0.0,0.0,0.0,0.0,0.0,0.0,0.0,0.0,0.0,0.0,0.0,0.0,0.0,0.0,0.0,0.0,0.0,0.0,0.0,0.0,0.0,0.0,0.0,0.0,0.0,0.0,0.0,0.0,0.0,0.0,0.0,0.0,0.0,0.0,0.0,0.0,0.0,0.0,0.0,0.0,0.0,0.0,0.0,0.0,0.0,0.0,0.0,0.0,0.0,0.0,0.0,0.0,0.0,0.0,0.0,0.0,0.0,0.0,0.0,0.0,0.0,0.0,0.0,0.0,0.0,0.0,0.0,0.0,0.0,0.0,0.0,0.0,0.0,0.0,0.0,0.0,0.0,0.0,0.0,0.0,0.0,0.0,0.0,0.0,0.0,0.0,0.0,0.0,0.0,0.0,0.0,0.0,0.0,0.0,0.0,0.0,0.0,0.0,0.0,0.0,0.0,0.0,0.0,0.0,0.0,0.0,0.0,0.0,0.0,0.0,0.0,0.0,0.0,0.0,0.0,0.0,0.0,0.0,0.0,0.0,0.0,0.0,0.0,0.0,0.0,0.0,0.0,0.0,0.0,0.0,0.0,0.0,0.0,0.0,0.0,0.0,0.0,0.0,0.0,0.0,0.0,0.0,0.0,0.0,0.0,0.0,0.0,0.0,0.0,0.0,0.0,0.0,0.0,0.0,0.0,0.0,0.0,0.0,0.0,0.0,0.0,0.0,0.0,0.0,0.0,0.0,0.0,0.0,0.0,0.0,0.0,0.0,0.0,0.0,0.0,0.0,0.0,0.0,0.0,0.0,0.0,0.0,0.0,0.0,0.0,0.0,0.0,0.0,0.0,0.0,0.0,0.0,0.0,0.0,0.0,0.0,0.0,0.0,0.0,0.0,0.0,0.0,0.0,0.0,0.0,0.0,0.0,0.0,0.0,0.0,0.0,0.0,0.0,0.0,0.0,0.0,0.0,0.0,0.0,0.0,0.0,0.0,0.0,0.0,0.0,0.0,0.0,0.0,0.0,0.0,0.0,0.0,0.0,0.0,0.0,0.0,0.0,0.0,0.0,0.0,0.0,0.0,0.0,0.0,0.0,0.0,0.0,0.0,0.0,0.0,0.0,0.0,0.0,0.0,0.0,0.0,0.0,0.0,0.0,0.0,0.0,0.0,0.0,0.0,0.0,0.0,0.0,0.0,0.0,0.0,0.0,0.0,0.0,0.0,0.0,0.0,0.0,0.0,0.0,0.0,0.0,0.0,0.0,0.0,0.0,0.0,0.0,0.0,0.0,0.0,0.0,0.0,0.0,0.0,0.0,0.0,0.0,0.0,0.0,0.0,0.0,0.0,0.0,0.0,0.0,0.0,0.0,0.0,0.0,0.0,0.0,0.0,0.0,0.0,0.0,0.0,0.0,0.0,0.0,0.0,0.0,0.0,0.0,0.0,0.0,0.0,0.0,0.0,0.0,0.0,0.0,0.0,0.0,0.0,0.0,0.0,0.0,0.0,0.0,0.0,0.0,0.0,0.0,0.0,0.0,0.0,0.0,0.0,0.0,0.0,0.0,0.0,0.0,0.0,0.0,0.0,0.0,0.0,0.0,0.0,0.0,0.0,0.0,0.0,0.0,0.0,0.0,0.0,0.0,0.0,0.0,0.0,0.0,0.0,0.0,0.0,0.0,0.0,0.0,0.0,0.0,0.0,0.0,0.0,0.0,0.0,0.0,0.0,0.0,0.0,0.0,0.0,0.0,0.0,0.0,0.0,0.0,0.0,0.0,0.0,0.0,0.0,0.0,0.0,0.0,0.0,0.0,0.0,0.0,0.0,0.0,0.0,0.0,0.0,0.0,0.0,0.0,0.0,0.0,0.0,0.0,0.0,0.0,0.0,0.0,0.0,0.0,0.0,0.0,0.0,0.0,0.0,0.0,0.0,0.0,0.0,0.0,0.0,0.0,0.0,0.0,0.0,0.0,0.0,0.0,0.0,0.0,0.0,0.0,0.0,0.0,0.0,0.0,0.0,0.0,0.0,0.0,0.0,0.0,0.0,0.0,0.0,0.0,0.0,0.0,0.0,0.0,0.0,0.0,0.0,0.0,0.0,0.0,0.0,0.0,0.0,0.0,0.0,0.0,0.0,0.0,0.0,0.0,0.0,0.0,0.0,0.0,0.0,0.0,0.0,0.0,0.0,0.0,0.0,0.0,0.0,0.0,0.0,0.0,0.0,0.0,0.0,0.0,0.0,0.0,0.0,0.0,0.0,0.0,0.0,0.0,0.0,0.0,0.0,0.0,0.0,0.0,0.0,0.0,0.0,0.0,0.0,0.0,0.0,0.0,0.0,0.0,0.0,0.0,0.0,0.0,0.0,0.0,0.0,0.0,0.0,0.0,0.0,0.0,0.0,0.0,0.0,0.0,0.0,0.0,0.0,0.0,0.0,0.0,0.0,0.0,0.0,0.0,0.0,0.0,0.0,0.0,0.0,0.0,0.0,0.0,0.0,0.0,0.0,0.0,0.0,0.0,0.0,0.0,0.0,0.0,0.0,0.0,0.0,0.0,0.0,0.0,0.0,0.0,0.0,0.0,0.0,0.0,0.0,0.0,0.0,0.0,0.0,0.0,0.0,0.0,0.0,0.0,0.0,0.0,0.0,0.0,0.0,0.0,0.0,0.0,0.0,0.0,0.0,0.0,0.0,0.0,0.0,0.0,0.0,0.0,0.0,0.0,0.0,0.0,0.0,0.0,0.0,0.0,0.0,0.0,0.0,0.0,0.0,0.0,0.0,0.0,0.0,0.0,0.0,0.0,0.0,0.0,0.0,0.0,0.0,0.0,0.0,0.0,0.0,0.0,0.0,0.0,0.0,0.0,0.0,0.0,0.0,0.0,0.0,0.0,0.0,0.0,0.0,0.0,0.0,0.0,0.0,0.0,0.0,0.0,0.0,0.0,0.0,0.0,0.0,0.0,0.0,0.0,0.0,0.0,0.0,0.0,0.0,0.0,0.0,0.0,0.0,0.0,0.0,0.0,0.0,0.0,0.0,0.0,0.0,0.0,0.0,0.0,0.0,0.0,0.0,0.0,0.0,0.0,0.0,0.0,0.0,0.0,0.0,0.0,0.0,0.0,0.0,0.0,0.0,0.0,0.0,0.0,0.0,0.0,0.0,0.0,0.0,0.0,0.0,0.0,0.0,0.0,0.0,0.0,0.0,0.0,0.0,0.0,0.0,0.0,0.0,0.0,0.0,0.0,0.0,0.0,0.0,0.0,0.0,0.0,0.0,0.0,0.0,0.0,0.0,0.0,0.0,0.0,0.0,0.0,0.0,0.0,0.0,0.0,0.0,0.0,0.0,0.0,0.0,0.0,0.0,0.0,0.0,0.0,0.0,0.0,0.0,0.0,0.0,0.0,0.0,0.0,0.0,0.0,0.0,0.0,0.0,0.0,0.0,0.0,0.0,0.0,0.0,0.0,0.0,0.0,0.0,0.0,0.0,0.0,0.0,0.0,0.0,0.0,0.0,0.0,0.0,0.0,0.0,0.0,0.0,0.0,0.0,0.0,0.0,0.0,0.0,0.0,0.0,0.0,0.0,0.0,0.0,0.0,0.0,0.0,0.0,0.0,0.0,0.0,0.0,0.0,0.0,0.0,0.0,0.0,0.0,0.0,0.0,0.0,0.0,0.0,0.0,0.0,0.0,0.0,0.0,0.0,0.0,0.0,0.0,0.0,0.0,0.0,0.0,1.6522,0.0,0.0,0.0,0.0,0.0,0.0,0.0,0.0,0.0,0.0,0.0,0.0,0.0,0.0,0.0,0.0,0.0,0.0,0.0,0.0,0.0,0.0,0.0,0.0,0.0,0.0,0.0,0.0,0.0,0.0,0.0,0.0,0.0,0.0,0.0,0.0,0.0,0.0,0.0,0.0,0.0,0.0,0.0,0.0,0.0,0.0,0.0,0.0,0.0,0.0,0.0,0.0,0.0,0.0,0.0,0.0,0.0,0.0,0.0,0.0,0.0,0.0,0.0,0.0,0.0,0.0,0.0,0.0,0.0,0.0,0.0,0.0,0.0,0.0,0.0,0.0,0.0,0.0,0.0,0.0,0.0,0.0,0.0,0.0,0.0,0.0,0.0,0.0,0.0,0.0,0.0,0.0,0.0,0.0,0.0,0.0,0.0,0.0,0.0,0.0,0.0,0.0,0.0,0.0,0.0,0.0,0.0,0.0,0.0,0.0,1.5742,1.6008,1.6324,1.6637,1.693,0.0,0.0,0.0,0.0,0.0,0.0,0.0,0.0,0.0,0.0,0.0,0.0,0.0,0.0,0.0,0.0,0.0,0.0,0.0,0.0,0.0,0.0,0.0,0.0,0.0,0.0,0.0,0.0,0.0,0.0,0.0,0.0,0.0,0.0,0.0,0.0,0.0,0.0,0.0,0.0,0.0,0.0,0.0,0.0,0.0,0.0,0.0,0.0,0.0,0.0,0.0,0.0,0.0,0.0,0.0,0.0,0.0,0.0,0.0,0.0,0.0,0.0,0.0,0.0,0.0,0.0,0.0,0.0,0.0,0.0,0.0,0.0,0.0,0.0,0.0,0.0,0.0,0.0,0.0,0.0,0.0,0.0,0.0,0.0,0.0,0.0,0.0,0.0,0.0,0.0,0.0,0.0,0.0,0.0,0.0,0.0,0.0,0.0,0.0,0.0,0.0,0.0,0.0,0.0,0.0,0.0,0.0,0.0,0.0,0.0,0.0,0.0,1.7064,1.7562,1.8219,0.0,0.0,0.0,0.0,0.0,0.0,0.0,0.0,0.0,0.0,0.0,0.0,0.0,0.0,0.0,0.0,0.0,0.0,0.0,0.0,0.0,0.0,0.0,0.0,0.0,0.0,0.0,0.0,0.0,0.0,0.0,0.0,0.0,0.0,0.0,0.0,0.0,0.0,0.0,0.0,0.0,0.0,0.0,0.0,0.0,0.0,0.0,0.0,0.0,0.0,0.0,0.0,0.0,0.0,0.0,0.0,0.0,0.0,0.0,0.0,0.0,0.0,0.0,0.0,0.0,0.0,0.0,0.0,0.0,0.0,0.0,0.0,0.0,0.0,0.0,0.0,0.0,0.0,0.0,0.0,0.0,0.0,0.0,0.0,0.0,0.0,0.0,0.0,0.0,0.0,0.0,0.0,0.0,0.0,0.0,0.0,0.0,0.0,0.0,0.0,0.0,0.0,0.0,0.0,0.0,0.0,0.0,0.0,0.0,0.0,1.7581,2.0121,1.9735,0.0,2.0941,0.0,0.0,0.0,0.0,0.0,0.0,0.0,0.0,0.0,0.0,0.0,0.0,0.0,0.0,0.0,0.0,0.0,0.0,0.0,0.0,0.0,0.0,0.0,0.0,0.0,0.0,0.0,0.0,0.0,0.0,0.0,0.0,0.0,0.0,0.0,0.0,0.0,0.0,0.0,0.0,0.0,0.0,0.0,0.0,0.0,0.0,0.0,0.0,0.0,0.0,0.0,0.0,0.0,0.0,0.0,0.0,0.0,0.0,0.0,0.0,0.0,0.0,0.0,0.0,0.0,0.0,0.0,0.0,0.0,0.0,0.0,0.0,0.0,0.0,0.0,0.0,0.0,0.0,0.0,0.0,0.0,0.0,0.0,0.0,0.0,0.0,0.0,0.0,0.0,0.0,0.0,0.0,0.0,0.0,0.0,0.0,0.0,0.0,0.0,0.0,0.0,0.0,0.0,0.0,0.0,0.0,0.0,0.0,0.0,0.0,1.8255,2.0089,2.0217,2.0332,0.0,0.0,0.0,0.0,0.0,0.0,0.0,0.0,0.0,0.0,0.0,0.0,0.0,0.0,0.0,0.0,0.0,0.0,0.0,0.0,0.0,0.0,0.0,0.0,0.0,0.0,0.0,0.0,0.0,0.0,0.0,0.0,0.0,0.0,0.0,0.0,0.0,0.0,0.0,0.0,0.0,0.0,0.0,0.0,0.0,0.0,0.0,0.0,0.0,0.0,0.0,0.0,0.0,0.0,0.0,0.0,0.0,0.0,0.0,0.0,0.0,0.0,0.0,0.0,0.0,0.0,0.0,0.0,0.0,0.0,0.0,0.0,0.0,0.0,0.0,0.0,0.0,0.0,0.0,0.0,0.0,0.0,0.0,0.0,0.0,0.0,0.0,0.0,0.0,0.0,0.0,0.0,0.0,0.0,0.0,0.0,0.0,0.0,0.0,0.0,0.0,0.0,0.0,0.0,0.0,0.0,0.0,0.0,0.0,0.0,1.8939,1.9651,2.0787,2.091,2.0864,2.0735,0.0,0.0,0.0,0.0,0.0,0.0,0.0,0.0,0.0,0.0,0.0,0.0,0.0,0.0,0.0,0.0,0.0,0.0,0.0,0.0,0.0,0.0,0.0,0.0,0.0,0.0,0.0,0.0,0.0,0.0,0.0,0.0,0.0,0.0,0.0,0.0,0.0,0.0,0.0,0.0,0.0,0.0,0.0,0.0,0.0,0.0,0.0,0.0,0.0,0.0,0.0,0.0,0.0,0.0,0.0,0.0,0.0,0.0,0.0,0.0,0.0,0.0,0.0,0.0,0.0,0.0,0.0,0.0,0.0,0.0,0.0,0.0,0.0,0.0,0.0,0.0,0.0,0.0,0.0,0.0,0.0,0.0,0.0,0.0,0.0,0.0,0.0,0.0,0.0,0.0,0.0,0.0,0.0,0.0,0.0,0.0,0.0,0.0,0.0,0.0,0.0,0.0,0.0,0.0,0.0,0.0,0.0,0.0,2.4104,2.2326,2.2117,2.3634,2.2459,2.2148,0.0,0.0,0.0,0.0,0.0,0.0,0.0,0.0,0.0,0.0,0.0,0.0,0.0,0.0,0.0,0.0,0.0,0.0,0.0,0.0,0.0,0.0,0.0,0.0,0.0,0.0,0.0,0.0,0.0,0.0,0.0,0.0,0.0,0.0,0.0,0.0,0.0,0.0,0.0,0.0,0.0,0.0,0.0,0.0,0.0,0.0,0.0,0.0,0.0,0.0,0.0,0.0,0.0,0.0,0.0,0.0,0.0,0.0,0.0,0.0,0.0,0.0,0.0,0.0,0.0,0.0,0.0,0.0,0.0,0.0,0.0,0.0,0.0,0.0,0.0,0.0,0.0,0.0,0.0,0.0,0.0,0.0,0.0,0.0,0.0,0.0,0.0,0.0,0.0,0.0,0.0,0.0,0.0,0.0,0.0,0.0,0.0,0.0,0.0,0.0,0.0,0.0,0.0,0.0,0.0,0.0,0.0,0.0,0.0,2.1004,2.1004,2.1785,2.3301,2.2287,2.2338,0.0,0.0,0.0,0.0,0.0,0.0,0.0,0.0,0.0,0.0,0.0,0.0,0.0,0.0,0.0,0.0,0.0,0.0,0.0,0.0,0.0,0.0,0.0,0.0,0.0,0.0,0.0,0.0,0.0,0.0,0.0,0.0,0.0,0.0,0.0,0.0,0.0,0.0,0.0,0.0,0.0,0.0,0.0,0.0,0.0,0.0,0.0,0.0,0.0,0.0,0.0,0.0,0.0,0.0,0.0,0.0,0.0,0.0,0.0,0.0,0.0,0.0,0.0,0.0,0.0,0.0,0.0,0.0,0.0,0.0,0.0,0.0,0.0,0.0,0.0,0.0,0.0,0.0,0.0,0.0,0.0,0.0,0.0,0.0,0.0,0.0,0.0,0.0,0.0,0.0,0.0,0.0,0.0,0.0,0.0,0.0,0.0,0.0,0.0,0.0,0.0,0.0,0.0,0.0,0.0,0.0,0.0,0.0,0.0,2.1307,0.0,2.3357,2.4326,2.3093,2.2697,0.0,0.0,0.0,0.0,0.0,0.0,0.0,0.0,0.0,0.0,0.0,0.0,0.0,0.0,0.0,0.0,0.0,0.0,0.0,0.0,0.0,0.0,0.0,0.0,0.0,0.0,0.0,0.0,0.0,0.0,0.0,0.0,0.0,0.0,0.0,0.0,0.0,0.0,0.0,0.0,0.0,0.0,0.0,0.0,0.0,0.0,0.0,0.0,0.0,0.0,0.0,0.0,0.0,0.0,0.0,0.0,0.0,0.0,0.0,0.0,0.0,0.0,0.0,0.0,0.0,0.0,0.0,0.0,0.0,0.0,0.0,0.0,0.0,0.0,0.0,0.0,0.0,0.0,0.0,0.0,0.0,0.0,0.0,0.0,0.0,0.0,0.0,0.0,0.0,0.0,0.0,0.0,0.0,0.0,0.0,0.0,0.0,0.0,0.0,0.0,0.0,0.0,0.0,0.0,0.0,0.0,0.0,0.0,2.3148,2.5891,2.6687,2.6933,2.7159,2.5108,2.3366,0.0,0.0,0.0,0.0,0.0,0.0,0.0,0.0,0.0,0.0,0.0,0.0,0.0,0.0,0.0,0.0,0.0,0.0,0.0,0.0,0.0,0.0,0.0,0.0,0.0,0.0,0.0,0.0,0.0,0.0,0.0,0.0,0.0,0.0,0.0,0.0,0.0,0.0,0.0,0.0,0.0,0.0,0.0,0.0,0.0,0.0,0.0,0.0,0.0,0.0,0.0,0.0,0.0,0.0,0.0,0.0,0.0,0.0,0.0,0.0,0.0,0.0,0.0,0.0,0.0,0.0,0.0,0.0,0.0,0.0,0.0,0.0,0.0,0.0,0.0,0.0,0.0,0.0,0.0,0.0,0.0,0.0,0.0,0.0,0.0,0.0,0.0,0.0,0.0,0.0,0.0,0.0,0.0,0.0,0.0,0.0,0.0,0.0,0.0,0.0,0.0,0.0,0.0,0.0,0.0,0.0,0.0,0.0,0.0,2.2783,2.4682,2.6448,2.7785,2.5308,2.4826,0.0,0.0,0.0,0.0,0.0,0.0,0.0,0.0,0.0,0.0,0.0,0.0,0.0,0.0,0.0,0.0,0.0,0.0,0.0,0.0,0.0,0.0,0.0,0.0,0.0,0.0,0.0,0.0,0.0,0.0,0.0,0.0,0.0,0.0,0.0,0.0,0.0,0.0,0.0,0.0,0.0,0.0,0.0,0.0,0.0,0.0,0.0,0.0,0.0,0.0,0.0,0.0,0.0,0.0,0.0,0.0,0.0,0.0,0.0,0.0,0.0,0.0,0.0,0.0,0.0,0.0,0.0,0.0,0.0,0.0,0.0,0.0,0.0,0.0,0.0,0.0,0.0,0.0,0.0,0.0,0.0,0.0,0.0,0.0,0.0,0.0,0.0,0.0,0.0,0.0,0.0,0.0,0.0,0.0,0.0,0.0,0.0,0.0,0.0,0.0,0.0,0.0,0.0,0.0,0.0,0.0,0.0,0.0,0.0,2.5182,2.6849,2.8343,2.9486,2.6843,2.5911,2.691,0.0,0.0,0.0,0.0,0.0,0.0,0.0,0.0,0.0,0.0,0.0,0.0,0.0,0.0,0.0,0.0,0.0,0.0,0.0,0.0,0.0,0.0,0.0,0.0,0.0,0.0,0.0,0.0,0.0,0.0,0.0,0.0,0.0,0.0,0.0,0.0,0.0,0.0,0.0,0.0,0.0,0.0,0.0,0.0,0.0,0.0,0.0,0.0,0.0,0.0,0.0,0.0,0.0,0.0,0.0,0.0,0.0,0.0,0.0,0.0,0.0,0.0,0.0,0.0,0.0,0.0,0.0,0.0,0.0,0.0,0.0,0.0,0.0,0.0,0.0,0.0,0.0,0.0,0.0,0.0,0.0,0.0,0.0,0.0,0.0,0.0,0.0,0.0,0.0,0.0,0.0,0.0,0.0,0.0,0.0,0.0,0.0,0.0,0.0,0.0,0.0,0.0,0.0,0.0,0.0,0.0,0.0,0.0,3.1615,3.2483,3.2544,3.1781,2.942,2.6854,0.0,0.0,0.0,0.0,0.0,0.0,0.0,0.0,0.0,0.0,0.0,0.0,0.0,0.0,0.0,0.0,0.0,0.0,0.0,0.0,0.0,0.0,0.0,0.0,0.0,0.0,0.0,0.0,0.0,0.0,0.0,0.0,0.0,0.0,0.0,0.0,0.0,0.0,0.0,0.0,0.0,0.0,0.0,0.0,0.0,0.0,0.0,0.0,0.0,0.0,0.0,0.0,0.0,0.0,0.0,0.0,0.0,0.0,0.0,0.0,0.0,0.0,0.0,0.0,0.0,0.0,0.0,0.0,0.0,0.0,0.0,0.0,0.0,0.0,0.0,0.0,0.0,0.0,0.0,0.0,0.0,0.0,0.0,0.0,0.0,0.0,0.0,0.0,0.0,0.0,0.0,0.0,0.0,0.0,0.0,0.0,0.0,0.0,0.0,0.0,0.0,0.0,0.0,0.0,0.0,0.0,0.0,0.0,0.0,3.3005,3.5503,3.6364,3.5143,3.1322,2.9038,0.0,0.0,0.0,0.0,0.0,0.0,0.0,0.0,0.0,0.0,0.0,0.0,0.0,0.0,0.0,0.0,0.0,0.0,0.0,0.0,0.0,0.0,0.0,0.0,0.0,0.0,0.0,0.0,0.0,0.0,0.0,0.0,0.0,0.0,0.0,0.0,0.0,0.0,0.0,0.0,0.0,0.0,0.0,0.0,0.0,0.0,0.0,0.0,0.0,0.0,0.0,0.0,0.0,0.0,0.0,0.0,0.0,0.0,0.0,0.0,0.0,0.0,0.0,0.0,0.0,0.0,0.0,0.0,0.0,0.0,0.0,0.0,0.0,0.0,0.0,0.0,0.0,0.0,0.0,0.0,0.0,0.0,0.0,0.0,0.0,0.0,0.0,0.0,0.0,0.0,0.0,0.0,0.0,0.0,0.0,0.0,0.0,0.0,0.0,0.0,0.0,0.0,0.0,0.0,0.0,0.0,0.0,0.0,3.3694,3.5519,3.7958,3.8886,3.8153,3.4203,3.1165,0.0,0.0,0.0,0.0,0.0,0.0,0.0,0.0,0.0,0.0,0.0,0.0,0.0,0.0,0.0,0.0,0.0,0.0,0.0,0.0,0.0,0.0,0.0,0.0,0.0,0.0,0.0,0.0,0.0,0.0,0.0,0.0,0.0,0.0,0.0,0.0,0.0,0.0,0.0,0.0,0.0,0.0,0.0,0.0,0.0,0.0,0.0,0.0,0.0,0.0,0.0,0.0,0.0,0.0,0.0,0.0,0.0,0.0,0.0,0.0,0.0,0.0,0.0,0.0,0.0,0.0,0.0,0.0,0.0,0.0,0.0,0.0,0.0,0.0,0.0,0.0,0.0,0.0,0.0,0.0,0.0,0.0,0.0,0.0,0.0,0.0,0.0,0.0,0.0,0.0,0.0,0.0,0.0,0.0,0.0,0.0,0.0,0.0,0.0,0.0,0.0,0.0,0.0,0.0,0.0,0.0,0.0,0.0,3.5911,3.8347,3.9768,4.0472,4.0307,3.709,3.2976,0.0,0.0,0.0,0.0,0.0,0.0,0.0,0.0,0.0,0.0,0.0,0.0,0.0,0.0,0.0,0.0,0.0,0.0,0.0,0.0,0.0,0.0,0.0,0.0,0.0,0.0,0.0,0.0,0.0,0.0,0.0,0.0,0.0,0.0,0.0,0.0,0.0,0.0,0.0,0.0,0.0,0.0,0.0,0.0,0.0,0.0,0.0,0.0,0.0,0.0,0.0,0.0,0.0,0.0,0.0,0.0,0.0,0.0,0.0,0.0,0.0,0.0,0.0,0.0,0.0,0.0,0.0,0.0,0.0,0.0,0.0,0.0,0.0,0.0,0.0,0.0,0.0,0.0,0.0,0.0,0.0,0.0,0.0,0.0,0.0,0.0,0.0,0.0,0.0,0.0,0.0,0.0,0.0,0.0,0.0,0.0,0.0,0.0,0.0,0.0,0.0,0.0,0.0,0.0,0.0,0.0,0.0,0.0,3.684,3.8362,4.0217,4.092,4.0397,3.6193,3.2662,0.0,0.0,0.0,0.0,0.0,0.0,0.0,0.0,0.0,0.0,0.0,0.0,0.0,0.0,0.0,0.0,0.0,0.0,0.0,0.0,0.0,0.0,0.0,0.0,0.0,0.0,0.0,0.0,0.0,0.0,0.0,0.0,0.0,0.0,0.0,0.0,0.0,0.0,0.0,0.0,0.0,0.0,0.0,0.0,0.0,0.0,0.0,0.0,1.8672,0.0,0.0,0.0,0.0,0.0,0.0,0.0,0.0,0.0,0.0,0.0,0.0,0.0,0.0,0.0,0.0,0.0,0.0,0.0,0.0,0.0,0.0,0.0,0.0,0.0,0.0,0.0,0.0,0.0,0.0,0.0,0.0,0.0,0.0,0.0,0.0,0.0,0.0,0.0,0.0,0.0,0.0,0.0,0.0,0.0,0.0,0.0,0.0,0.0,0.0,0.0,0.0,0.0,0.0,0.0,0.0,0.0,0.0,0.0,3.8167,3.9768,4.1168,4.1407,4.0322,3.6836,3.3514,0.0,0.0,0.0,0.0,0.0,0.0,0.0,0.0,0.0,0.0,0.0,0.0,0.0,0.0,0.0,0.0,0.0,0.0,0.0,0.0,0.0,0.0,0.0,0.0,0.0,0.0,0.0,0.0,0.0,0.0,0.0,0.0,0.0,0.0,0.0,0.0,0.0,0.0,0.0,0.0,0.0,0.0,0.0,0.0,0.0,0.0,0.0,0.0,0.0,0.0,0.0,0.0,0.0,0.0,0.0,0.0,0.0,0.0,0.0,0.0,0.0,0.0,0.0,0.0,0.0,0.0,0.0,0.0,0.0,0.0,0.0,0.0,0.0,0.0,0.0,0.0,0.0,0.0,0.0,0.0,0.0,0.0,0.0,0.0,0.0,0.0,0.0,0.0,0.0,0.0,0.0,0.0,0.0,0.0,0.0,0.0,0.0,0.0,0.0,0.0,0.0,0.0,0.0,0.0,0.0,0.0,0.0,3.6941,3.9409,4.1482,4.2021,4.1677,4.0412,3.7749,3.4517,3.0687,0.0,0.0,0.0,0.0,0.0,0.0,0.0,0.0,0.0,0.0,0.0,0.0,0.0,0.0,0.0,0.0,0.0,0.0,0.0,0.0,0.0,0.0,0.0,0.0,0.0,0.0,0.0,0.0,0.0,0.0,0.0,0.0,0.0,0.0,0.0,0.0,0.0,0.0,2.0146,2.0204,0.0,0.0,0.0,0.0,0.0,0.0,0.0,0.0,1.961,0.0,0.0,0.0,0.0,0.0,0.0,0.0,0.0,0.0,0.0,0.0,0.0,0.0,0.0,0.0,0.0,0.0,0.0,0.0,0.0,0.0,0.0,0.0,0.0,0.0,0.0,0.0,0.0,0.0,0.0,0.0,0.0,0.0,0.0,0.0,0.0,0.0,0.0,0.0,0.0,0.0,0.0,0.0,0.0,0.0,0.0,0.0,0.0,0.0,0.0,0.0,0.0,0.0,0.0,0.0,0.0,3.6686,3.7838,3.967,4.2156,4.1811,4.1175,4.0352,3.733,3.4038,3.0702,0.0,0.0,0.0,0.0,0.0,0.0,0.0,0.0,0.0,0.0,0.0,0.0,0.0,0.0,0.0,0.0,0.0,0.0,0.0,0.0,0.0,0.0,0.0,0.0,0.0,0.0,0.0,0.0,0.0,0.0,0.0,0.0,0.0,0.0,0.0,0.0,0.0,0.0,0.0,2.1509,2.2036,0.0,0.0,0.0,0.0,0.0,0.0,0.0,0.0,2.0125,0.0,0.0,0.0,0.0,0.0,0.0,0.0,0.0,0.0,0.0,0.0,0.0,0.0,0.0,0.0,0.0,0.0,0.0,0.0,0.0,0.0,0.0,0.0,0.0,0.0,0.0,0.0,0.0,0.0,0.0,0.0,0.0,0.0,0.0,0.0,0.0,0.0,0.0,0.0,0.0,0.0,0.0,0.0,0.0,0.0,0.0,0.0,0.0,0.0,0.0,0.0,0.0,0.0,0.0,0.0,3.5818,3.8227,4.0217,4.1826,4.1916,4.107,3.9364,3.6178,3.3215,0.0,0.0,0.0,0.0,0.0,0.0,0.0,0.0,0.0,0.0,0.0,0.0,0.0,0.0,0.0,0.0,0.0,0.0,0.0,0.0,0.0,0.0,0.0,0.0,0.0,0.0,0.0,0.0,0.0,0.0,0.0,0.0,0.0,0.0,0.0,0.0,0.0,0.0,0.0,0.0,2.2325,2.3299,2.3635,0.0,0.0,0.0,0.0,0.0,0.0,2.088,2.0652,0.0,0.0,0.0,0.0,0.0,0.0,0.0,0.0,0.0,0.0,0.0,0.0,0.0,0.0,0.0,0.0,0.0,0.0,0.0,0.0,0.0,0.0,0.0,0.0,0.0,0.0,0.0,0.0,0.0,0.0,0.0,0.0,0.0,0.0,0.0,0.0,0.0,0.0,0.0,0.0,0.0,0.0,0.0,0.0,0.0,0.0,0.0,0.0,0.0,0.0,0.0,0.0,0.0,0.0,0.0,3.4743,3.8182,4.0457,4.1392,4.1796,4.0853,3.8437,3.5205,3.2557,0.0,0.0,0.0,0.0,0.0,0.0,0.0,0.0,0.0,0.0,0.0,0.0,0.0,0.0,0.0,0.0,0.0,0.0,0.0,0.0,0.0,0.0,0.0,0.0,0.0,0.0,0.0,0.0,0.0,0.0,0.0,0.0,0.0,0.0,0.0,0.0,0.0,0.0,0.0,0.0,0.0,2.4791,2.5645,2.555,0.0,0.0,0.0,0.0,2.1907,2.2012,0.0,0.0,0.0,0.0,0.0,0.0,0.0,0.0,0.0,0.0,0.0,0.0,0.0,0.0,0.0,0.0,0.0,0.0,0.0,0.0,0.0,0.0,0.0,0.0,0.0,0.0,0.0,0.0,0.0,0.0,0.0,0.0,0.0,0.0,0.0,0.0,0.0,0.0,0.0,0.0,0.0,0.0,0.0,0.0,0.0,0.0,0.0,0.0,0.0,0.0,0.0,0.0,0.0,0.0,0.0,0.0,3.5325,3.7524,3.9514,4.125,4.0891,3.9918,3.8392,3.5205,3.2557,0.0,0.0,0.0,0.0,0.0,0.0,0.0,0.0,0.0,0.0,0.0,0.0,0.0,0.0,0.0,0.0,0.0,0.0,0.0,0.0,0.0,0.0,0.0,0.0,0.0,0.0,0.0,0.0,0.0,0.0,0.0,0.0,0.0,0.0,0.0,0.0,0.0,0.0,0.0,0.0,0.0,2.7152,2.7096,2.7403,2.7766,0.0,0.0,2.5038,2.541,2.489,0.0,0.0,0.0,0.0,0.0,0.0,0.0,0.0,0.0,0.0,0.0,0.0,0.0,0.0,0.0,0.0,0.0,0.0,0.0,0.0,0.0,0.0,0.0,0.0,0.0,0.0,0.0,0.0,0.0,0.0,0.0,0.0,0.0,0.0,0.0,0.0,0.0,0.0,0.0,0.0,0.0,0.0,0.0,0.0,0.0,0.0,0.0,0.0,0.0,0.0,0.0,0.0,0.0,0.0,0.0,3.2347,3.4891,3.721,3.899,4.0202,3.9993,3.9399,3.8507,3.406,3.1713,0.0,0.0,0.0,0.0,0.0,0.0,0.0,0.0,0.0,0.0,0.0,0.0,0.0,0.0,0.0,0.0,0.0,0.0,0.0,0.0,0.0,0.0,0.0,0.0,0.0,0.0,0.0,0.0,0.0,0.0,0.0,0.0,0.0,0.0,0.0,0.0,0.0,0.0,0.0,0.0,0.0,0.0,2.8252,2.8851,0.0,0.0,0.0,2.7146,2.7125,0.0,0.0,0.0,0.0,0.0,0.0,0.0,0.0,0.0,0.0,0.0,0.0,0.0,0.0,0.0,0.0,0.0,0.0,0.0,0.0,0.0,0.0,0.0,0.0,0.0,0.0,0.0,0.0,0.0,0.0,0.0,0.0,0.0,0.0,0.0,0.0,0.0,0.0,0.0,0.0,0.0,0.0,0.0,0.0,0.0,0.0,0.0,0.0,0.0,0.0,0.0,0.0,0.0,0.0,0.0,0.0,0.0,3.4233,3.6806,3.8392,3.8886,3.8901,3.8646,3.7991,3.3045,0.0,0.0,0.0,0.0,0.0,0.0,0.0,0.0,0.0,0.0,0.0,0.0,0.0,0.0,0.0,0.0,0.0,0.0,0.0,0.0,0.0,0.0,0.0,0.0,0.0,0.0,0.0,2.3909,0.0,0.0,0.0,0.0,0.0,0.0,0.0,0.0,0.0,0.0,0.0,0.0,0.0,0.0,2.8546,2.9736,3.0708,3.1467,0.0,0.0,2.9053,2.7987,2.6714,2.5202,0.0,0.0,0.0,0.0,0.0,0.0,0.0,0.0,0.0,0.0,0.0,0.0,0.0,0.0,0.0,0.0,0.0,0.0,0.0,0.0,0.0,0.0,0.0,0.0,0.0,0.0,0.0,0.0,0.0,0.0,0.0,0.0,0.0,0.0,0.0,0.0,0.0,0.0,0.0,0.0,0.0,0.0,0.0,0.0,0.0,0.0,0.0,0.0,0.0,0.0,0.0,0.0,0.0,0.0,3.2183,3.3589,3.6148,3.7494,3.7539,3.7539,3.7259,3.6592,3.2631,3.1102,0.0,0.0,0.0,0.0,0.0,0.0,0.0,0.0,0.0,0.0,0.0,0.0,0.0,0.0,0.0,0.0,0.0,0.0,0.0,0.0,0.0,0.0,0.0,0.0,0.0,0.0,0.0,0.0,0.0,0.0,0.0,0.0,0.0,0.0,0.0,0.0,0.0,0.0,0.0,0.0,0.0,3.0941,3.2029,3.3561,3.4393,0.0,3.2462,3.0549,2.812,2.8216,2.7371,2.371,0.0,0.0,0.0,0.0,0.0,0.0,0.0,0.0,0.0,0.0,0.0,0.0,0.0,0.0,0.0,0.0,0.0,0.0,0.0,0.0,0.0,0.0,0.0,0.0,0.0,0.0,0.0,0.0,0.0,0.0,0.0,0.0,0.0,0.0,0.0,0.0,0.0,0.0,0.0,0.0,0.0,0.0,0.0,0.0,0.0,0.0,0.0,0.0,0.0,0.0,0.0,0.0,0.0,3.2348,3.4129,3.5941,3.7015,3.7375,3.7045,3.6953,3.7174,3.3144,3.1311,0.0,0.0,0.0,0.0,0.0,0.0,0.0,0.0,0.0,0.0,0.0,0.0,0.0,0.0,0.0,0.0,0.0,0.0,0.0,0.0,0.0,0.0,0.0,0.0,0.0,0.0,0.0,0.0,2.3684,2.3595,2.3595,0.0,0.0,0.0,0.0,0.0,0.0,0.0,0.0,0.0,0.0,3.1123,3.319,3.434,0.0,0.0,3.3951,3.2126,3.0474,2.8643,2.6678,2.4487,2.3578,0.0,0.0,0.0,0.0,0.0,0.0,0.0,0.0,0.0,0.0,0.0,0.0,0.0,0.0,0.0,0.0,0.0,0.0,0.0,0.0,0.0,0.0,0.0,0.0,0.0,0.0,0.0,0.0,0.0,0.0,0.0,0.0,0.0,0.0,0.0,0.0,0.0,0.0,0.0,0.0,0.0,0.0,0.0,0.0,0.0,0.0,0.0,0.0,0.0,0.0,0.0,0.0,3.2273,3.3873,3.5415,3.6402,3.6821,3.6417,3.6444,3.6872,3.3536,3.176,0.0,0.0,0.0,0.0,0.0,0.0,0.0,0.0,0.0,0.0,0.0,0.0,0.0,0.0,0.0,0.0,0.0,0.0,0.0,0.0,0.0,0.0,0.0,0.0,0.0,0.0,0.0,0.0,2.3999,2.3909,2.3909,0.0,0.0,0.0,0.0,0.0,0.0,0.0,0.0,0.0,0.0,3.2171,3.4284,3.5083,3.5668,3.6246,3.4533,3.2775,3.1582,2.9061,2.6653,2.5039,0.0,0.0,0.0,0.0,0.0,0.0,0.0,0.0,0.0,0.0,0.0,0.0,0.0,0.0,0.0,0.0,0.0,0.0,0.0,0.0,0.0,0.0,0.0,0.0,0.0,0.0,0.0,0.0,0.0,0.0,3.1495,0.0,0.0,0.0,0.0,0.0,0.0,0.0,0.0,0.0,0.0,0.0,0.0,0.0,0.0,0.0,0.0,0.0,0.0,0.0,0.0,0.0,0.0,3.1854,3.2587,3.4562,3.5549,3.5564,3.5534,3.5534,3.5522,3.356,3.2467,3.2407,0.0,0.0,0.0,0.0,0.0,0.0,0.0,0.0,0.0,0.0,0.0,0.0,0.0,0.0,0.0,0.0,0.0,0.0,0.0,0.0,0.0,0.0,0.0,0.0,0.0,0.0,2.73,2.5734,2.4575,0.0,0.0,0.0,0.0,0.0,0.0,0.0,0.0,0.0,0.0,3.1944,3.4635,3.5382,3.6025,3.6319,3.6069,3.4101,3.2143,3.0762,2.9567,2.7935,0.0,0.0,0.0,0.0,0.0,0.0,0.0,0.0,0.0,0.0,0.0,0.0,0.0,0.0,0.0,0.0,0.0,0.0,0.0,0.0,0.0,0.0,0.0,0.0,0.0,0.0,0.0,3.1435,3.1868,0.0,0.0,0.0,0.0,0.0,0.0,0.0,0.0,0.0,0.0,0.0,3.5115,3.4711,0.0,0.0,0.0,0.0,0.0,0.0,0.0,0.0,0.0,0.0,0.0,0.0,3.2049,3.3185,3.4711,3.5489,3.5489,3.5489,3.5489,3.5489,3.3978,3.2347,3.0612,0.0,0.0,0.0,0.0,0.0,0.0,0.0,0.0,0.0,0.0,0.0,0.0,0.0,0.0,0.0,0.0,0.0,0.0,0.0,0.0,0.0,0.0,0.0,0.0,0.0,2.6701,0.0,0.0,0.0,0.0,0.0,0.0,0.0,0.0,0.0,0.0,0.0,2.8918,3.1509,3.338,3.4891,3.5998,3.6342,3.6234,0.0,0.0,0.0,0.0,0.0,0.0,0.0,0.0,0.0,0.0,0.0,0.0,0.0,0.0,2.7193,2.4211,2.307,2.2857,2.3828,0.0,0.0,0.0,0.0,0.0,0.0,0.0,0.0,0.0,0.0,0.0,0.0,0.0,0.0,3.2482,0.0,3.3498,0.0,0.0,0.0,0.0,0.0,0.0,0.0,0.0,3.6237,3.6971,3.715,3.7184,3.6686,0.0,3.4726,3.2527,0.0,0.0,0.0,0.0,0.0,0.0,0.0,0.0,3.2273,3.3185,3.4711,3.5489,3.5489,3.5489,3.5489,3.5474,3.4203,3.2482,3.0328,2.9143,2.7947,0.0,0.0,0.0,0.0,0.0,0.0,0.0,0.0,0.0,0.0,0.0,0.0,0.0,0.0,0.0,0.0,0.0,0.0,0.0,0.0,0.0,0.0,0.0,2.6497,0.0,0.0,0.0,0.0,0.0,0.0,0.0,0.0,0.0,2.8861,2.916,3.037,3.3125,3.4262,3.5267,3.6342,0.0,0.0,0.0,0.0,0.0,0.0,0.0,2.8436,2.7695,2.7867,2.7773,2.6908,2.8071,2.8902,2.7981,0.0,0.0,2.5904,2.4833,2.4607,2.5536,2.5259,2.5134,2.6013,2.6038,2.5921,0.0,0.0,0.0,0.0,0.0,0.0,0.0,0.0,3.3021,3.3799,0.0,3.4235,0.0,0.0,0.0,0.0,0.0,3.5639,0.0,0.0,3.8302,3.9125,3.8556,3.8556,3.7868,3.6731,3.7165,3.5744,3.2647,3.0088,0.0,0.0,0.0,0.0,0.0,0.0,3.2497,3.2677,3.4532,3.5489,3.5489,3.5489,3.5489,3.5474,3.4218,3.2931,3.1615,3.0836,2.931,2.6871,2.7884,0.0,0.0,0.0,0.0,0.0,0.0,0.0,0.0,0.0,0.0,0.0,0.0,0.0,0.0,0.0,0.0,0.0,0.0,0.0,0.0,2.6617,0.0,0.0,0.0,0.0,0.0,0.0,0.0,0.0,0.0,0.0,2.9786,3.1315,3.2796,3.3604,0.0,0.0,0.0,0.0,3.4292,3.4799,3.2822,3.1477,3.197,3.0804,2.9415,2.8348,0.0,0.0,2.7557,2.9447,3.0272,2.7885,2.8323,2.9088,2.9591,2.8574,2.8072,2.8549,2.7431,2.6763,2.7155,2.6952,2.6587,4.3741,0.0,0.0,0.0,0.0,3.8114,3.7602,3.6971,3.6791,3.6507,3.6211,3.6326,0.0,0.0,0.0,0.0,0.0,0.0,3.8257,3.905,4.0262,4.095,4.1242,4.1257,4.0823,3.9963,3.8706,3.7375,3.5953,3.3844,3.2093,3.0688,0.0,0.0,0.0,0.0,3.2976,3.3903,3.4966,3.5489,3.5489,3.5489,3.5489,3.5489,3.4651,3.3799,3.2946,3.1375,3.0178,2.94,2.7964,0.0,0.0,0.0,0.0,0.0,0.0,0.0,0.0,0.0,0.0,0.0,0.0,0.0,0.0,0.0,0.0,0.0,0.0,0.0,2.7979,2.7171,2.7106,0.0,0.0,0.0,0.0,0.0,0.0,0.0,0.0,0.0,3.2856,3.2736,3.3634,0.0,0.0,3.5908,3.7,3.5945,3.465,3.3445,3.2682,0.0,3.065,3.0112,2.9679,2.9352,2.9453,2.944,2.9126,2.9707,2.9948,2.9164,2.9327,2.9603,2.9654,2.8549,2.7795,2.8147,2.7632,2.7394,2.8197,2.8009,2.762,4.8139,4.5708,4.4121,4.2752,4.1549,4.1132,4.0452,3.9529,3.9035,3.8796,3.8786,3.841,3.7852,3.7199,3.668,0.0,0.0,0.0,4.0008,4.0831,4.1728,4.2357,4.2731,4.2746,4.2402,4.1767,4.0546,3.9499,3.8586,3.7404,3.5953,3.4218,0.0,0.0,3.2482,3.3021,3.3544,3.4098,3.5026,3.5489,3.5489,3.5489,3.5489,3.5489,3.51,3.4577,3.3888,3.2228,3.0941,3.0148,2.8139,2.6956,0.0,0.0,0.0,0.0,0.0,0.0,0.0,0.0,0.0,0.0,0.0,2.6752,2.7165,0.0,0.0,0.0,2.6333,2.6797,2.7724,2.7066,0.0,0.0,0.0,0.0,0.0,0.0,0.0,3.118,3.1898,3.2841,3.4294,3.4023,3.4681,3.73,3.6402,3.5878,3.6896,0.0,3.4375,3.282,3.2285,3.1536,3.0037,2.9779,2.9779,2.9779,2.9779,2.9779,2.9779,2.9779,2.9779,2.9767,2.9616,2.944,2.944,2.8436,2.777,2.8298,2.7996,2.7871,2.8486,2.8323,2.8109,5.1995,5.1134,4.846,4.621,4.4479,4.4445,4.3419,4.1632,4.0367,4.0771,4.2231,4.0397,4.0217,4.122,4.0157,0.0,3.9747,4.0995,4.1549,4.1654,4.2806,4.3305,4.3305,4.329,4.3015,4.2485,4.2425,4.1782,4.0576,4.0427,3.9738,3.8422,3.54,3.3529,3.2931,3.3993,3.4294,3.3679,3.4876,3.5489,3.5489,3.5489,3.5474,3.5415,3.537,3.4996,3.4354,3.3036,3.1495,2.9696,2.8274,2.6956,2.5764,0.0,0.0,0.0,0.0,0.0,0.0,0.0,0.0,0.0,0.0,0.0,0.0,0.0,0.0,0.0,2.5068,0.0,2.6632,2.6752,0.0,0.0,0.0,3.0043,3.0612,3.0702,3.121,3.2452,0.0,0.0,3.4503,3.51,3.5729,3.6327,3.5878,3.5759,3.6462,3.5213,3.3774,3.2925,3.1938,3.0981,3.0075,2.9782,2.9666,2.9666,2.9767,2.9779,2.9767,2.9704,2.9716,2.9679,2.9252,2.8825,2.8825,2.836,2.8185,2.8499,2.831,2.8009,2.8034,2.7959,2.7871,5.3112,5.2909,5.2198,5.0139,4.7345,4.7293,4.62,4.4327,4.3494,4.2851,4.2336,4.1377,4.0801,4.0666,4.1354,4.1953,4.2462,4.2731,4.3135,4.3584,4.3419,4.3305,4.3305,4.3305,4.3215,4.309,4.2611,4.2231,4.1886,4.0876,3.9993,3.914,3.7868,3.6656,3.5579,3.5355,3.519,3.5026,3.534,3.5489,3.5489,3.5489,3.5265,3.4726,3.4233,3.3649,3.2991,3.1704,3.0552,2.9621,2.7854,2.6677,2.6378,2.6363,0.0,0.0,0.0,0.0,0.0,0.0,0.0,0.0,0.0,2.7904,2.7405,0.0,2.8199,0.0,2.5764,2.6099,2.7949,2.8128,0.0,0.0,3.1212,3.1884,3.2033,3.2467,3.2916,3.323,3.3844,3.4502,3.519,3.54,3.5549,3.5729,3.5624,3.5923,3.6971,3.6011,3.4806,3.3774,3.2841,3.1775,3.0482,2.9603,2.9164,2.9088,2.9478,2.9779,2.9779,2.9415,2.9139,2.9101,2.865,2.8348,2.8285,2.7858,2.7404,2.719,2.7291,2.7482,2.7505,2.7143,2.6889,5.3518,5.3518,5.3518,5.1864,4.9229,4.9229,4.816,4.6331,4.521,4.4182,4.321,4.2851,4.2476,4.2222,4.321,4.3718,4.3823,4.4077,4.4037,4.3828,4.3768,4.3589,4.3305,4.3305,4.3155,4.2895,4.2575,4.2246,4.1931,4.119,4.0502,3.9843,3.9469,3.8631,3.7345,3.6402,3.5953,3.5938,3.5654,3.5489,3.5489,3.5489,3.5325,3.4936,3.4292,3.3619,3.2961,3.1375,3.0357,2.9953,2.8124,2.6926,2.6626,2.6602,2.6303,0.0,0.0,0.0,0.0,0.0,0.0,0.0,0.0,0.0,0.0,0.0,2.8199,2.7934,2.7051,2.7425,2.9672,2.9909,3.0315,3.1406,3.2348,3.2961,3.2946,3.3529,3.4053,3.4352,3.4711,3.5085,3.5444,3.5489,3.5489,3.5489,3.5489,3.5759,3.6297,3.5669,3.4777,3.4071,3.334,3.2403,3.1113,3.0205,2.9522,2.9248,2.9394,2.9488,2.9114,2.8787,2.8561,2.8524,2.7921,2.7369,2.7344,2.6703,2.6088,2.5887,2.5963,2.6163,2.6176,2.5984,2.5762,5.3433,5.3365,5.3298,5.2208,5.0406,5.0176,4.9127,4.75,4.5984,4.487,4.4197,4.4347,4.4436,4.4496,4.5125,4.5125,4.4616,4.499,4.4556,4.3484,4.3917,4.3843,4.3305,4.3305,4.2985,4.241,4.2485,4.2096,4.1302,4.1339,4.101,4.0292,4.0277,3.9694,3.8527,3.733,3.6611,3.6357,3.5878,3.5639,3.5624,3.5639,3.5549,3.5355,3.4547,3.3754,3.2991,3.1225,3.0253,3.0208,2.8648,2.7465,2.6886,2.6856,2.6557,0.0,2.6557,0.0,0.0,0.0,0.0,0.0,0.0,0.0,0.0,2.7335,2.7904,2.9831,2.8843,2.9026,3.1286,3.1585,3.1675,3.178,3.2886,3.3649,3.3754,3.4294,3.4846,3.5429,3.5489,3.5489,3.5489,3.5489,3.5489,3.5489,3.5489,3.5489,3.5355,3.4906,3.4411,3.4003,3.3297,3.2298,3.1371,3.0788,3.0181,2.959,2.9443,2.9148,2.8499,2.8132,2.7984,2.7808,2.7055,2.6411,2.6298,2.5485,2.4825,2.475,2.4763,2.4808,2.482,2.4863,2.4926,5.3112,5.2504,5.2291,5.1628,5.0585,4.8998,4.7635,4.6527,4.5657,4.4631,4.3589,4.4631,4.511,4.5155,4.5828,4.6067,4.5846,4.493,4.4377,4.4067,4.3663,4.3409,4.3305,4.3305,4.3,4.2455,4.288,4.2267,4.0606,4.1115,4.0786,3.9597,3.9604,3.9484,3.92,0.0,0.0,0.0,3.6103,3.6312,3.6297,3.6297,3.5774,3.4713,3.296,0.0,3.0372,2.943,2.8951,2.8951,2.8607,0.0,0.0,0.0,0.0,0.0,0.0,0.0,0.0,0.0,0.0,0.0,3.1256,3.0687,2.8652,2.9235,3.0372,3.1779,3.1212,3.0957,3.1451,3.1989,3.2542,3.3095,3.3845,3.4533,3.504,3.5235,3.537,3.5474,3.5489,3.5489,3.5489,3.5489,3.5489,3.5489,3.5489,3.528,3.4773,3.4578,3.4276,3.3654,3.2531,3.1279,3.0297,3.013,3.0066,2.9691,2.9541,2.9329,2.9069,2.8122,2.7291,2.6914,2.6248,2.5611,2.5234,2.4946,2.4587,2.423,2.4155,2.4155,2.4167,2.4506,2.4687,5.3281,0.0,5.2737,5.2184,0.0,4.9339,4.7839,4.6534,4.5326,4.4257,4.3364,4.4377,4.499,4.5319,4.5663,4.5828,4.5768,4.4766,4.4097,4.3768,4.3439,4.311,4.2865,4.318,4.2602,4.1459,4.2387,4.1998,4.0487,4.0726,4.0561,3.9903,3.9589,3.9388,3.9394,3.8407,3.727,3.5998,3.5998,3.5998,3.5998,3.5998,3.5684,3.4981,3.3365,0.0,0.0,0.0,0.0,0.0,0.0,0.0,0.0,2.9699,0.0,2.8693,2.9804,3.0402,3.009,3.0957,3.1496,3.1511,3.2108,3.178,3.0135,3.0642,3.1391,3.2392,3.2497,3.2632,3.2976,3.3558,3.4128,3.4472,3.4786,3.5145,3.5429,3.5489,3.5489,3.5489,3.5489,3.5489,3.5489,3.5489,3.5489,3.5474,3.519,3.4788,3.4174,3.3993,3.3754,3.3125,3.242,3.1714,3.1238,3.0809,3.0451,3.015,2.9933,2.9492,2.8709,2.7988,2.7169,2.6283,2.5586,2.5046,2.4519,2.4161,2.3904,2.3634,2.3547,2.3534,2.3547,2.3772,2.3973,5.3433,5.3264,5.3213,5.263,5.1586,4.9907,4.8181,4.6423,0.0,0.0,0.0,4.3977,4.4616,4.511,4.5125,4.5125,4.5065,4.4317,4.3673,4.311,4.3006,4.2701,4.2276,4.2865,4.2252,4.0681,4.1946,4.1863,4.0621,4.0576,4.0502,4.0352,3.9738,3.9328,3.917,3.8138,3.7225,3.6492,3.5953,3.5669,3.5684,3.5669,3.5624,3.5504,3.4203,3.3185,3.2482,3.0971,3.0328,3.0821,3.0492,3.0223,3.0176,3.1092,3.1152,3.0088,3.1032,3.1675,3.169,3.1899,3.2079,3.2198,3.2706,3.2736,3.2079,3.2019,3.2288,3.2976,3.3529,3.4068,3.4607,3.5145,3.5489,3.5489,3.5489,3.5489,3.5489,3.5489,3.5489,3.5489,3.5489,3.5489,3.5489,3.537,3.5325,3.5235,3.4711,3.4068,3.3469,3.3185,3.2916,3.2407,3.2169,3.2243,3.2198,3.1796,3.1234,3.0672,3.0267,2.9535,2.8363,2.7578,2.6841,2.5681,2.5021,2.4462,2.3954,2.3484,2.312,2.3095,2.3095,2.3095,2.3095,2.3108,2.3283,5.3112,5.2436,5.2222,5.1666,5.081,4.9176,4.7209,4.5046,4.3914,4.3394,4.3334,4.3977,4.4362,4.4451,4.4451,4.4451,4.4377,4.3195,4.262,4.2515,4.1908,4.1609,4.1564,4.2231,4.2096,4.1399,4.2566,4.2521,4.1369,4.1272,4.0965,4.0397,3.9753,3.914,3.8556,3.8347,3.7674,3.6522,3.6402,3.6342,3.6342,3.6342,3.6073,3.5489,3.4218,3.3185,3.2542,3.2243,3.2138,3.2243,3.2691,3.2691,3.2153,3.2243,3.2019,3.1346,3.1958,3.2333,3.2392,3.3425,3.4322,3.4876,3.5026,3.4801,3.4143,3.4053,3.4352,3.4996,3.51,3.525,3.537,3.5429,3.5489,3.5489,3.5489,3.5489,3.5489,3.5459,3.5474,3.5489,3.5489,3.5459,3.5459,3.4996,3.4637,3.4578,3.4083,3.3395,3.2751,3.2138,3.1795,3.1675,3.1645,3.1645,3.1765,3.1615,3.1439,3.1336,3.0176,2.931,2.8671,2.7242,2.595,2.5066,2.4544,2.3979,2.3371,2.3183,2.3108,2.3095,2.3095,2.3095,2.3095,2.3095,2.3133,5.3281,5.2943,5.2788,5.2298,5.1427,4.8862,4.6322,4.402,4.3472,4.3305,4.3334,4.3618,4.3973,4.4272,4.3943,4.3973,4.4272,4.3329,4.2701,4.2381,4.2081,4.1572,4.0965,4.1519,4.1527,4.0965,4.2177,4.2506,4.2006,4.1946,4.1632,4.0905,3.9933,3.908,3.8437,3.8377,3.7928,3.7,3.6985,3.6821,3.6507,3.6492,3.6375,3.6043,3.4758,3.3903,3.3574,3.323,3.3051,3.3036,3.3335,3.3365,3.308,3.338,3.3455,3.317,3.3769,3.4143,3.4128,3.4696,3.516,3.5474,3.5489,3.5385,3.507,3.5026,3.516,3.5474,3.5489,3.5489,3.5489,3.5489,3.5489,3.5489,3.5489,3.5489,3.5459,3.5145,3.51,3.5355,3.4846,3.4696,3.5429,3.4592,3.4144,3.4292,3.3649,3.2736,3.2034,3.1324,3.0984,3.1409,3.1496,3.1675,3.1944,3.2034,3.1857,3.1425,3.0713,2.967,2.8643,2.7053,2.6032,2.5005,2.4368,2.3816,2.3208,2.3095,2.3095,2.3095,2.3095,2.3095,2.3095,2.3095,2.3095,5.3518,5.3518,5.3518,5.2842,5.148,4.8528,4.5843,4.3684,4.3409,4.3305,4.3305,4.3305,4.3539,4.3793,4.3329,4.3493,4.4007,4.3109,4.2578,4.2447,4.1986,4.116,4.0367,4.098,4.1115,4.0831,4.1991,4.2605,4.2605,4.2485,4.2066,4.1362,4.0217,3.929,3.8631,3.8631,3.8227,3.7494,3.7853,3.7644,3.6731,3.6552,3.6492,3.6402,3.534,3.4743,3.4681,3.4218,3.3948,3.3948,3.3948,3.3948,3.3978,3.4427,3.4696,3.4803,3.5205,3.5489,3.5489,3.5489,3.5489,3.5489,3.5489,3.5489,3.5489,3.5489,3.5489,3.5489,3.5489,3.5489,3.5489,3.5489,3.5489,3.5489,3.5489,3.5489,3.5444,3.5011,3.4891,3.5295,3.4577,3.4442,3.4981,3.4322,3.3497,3.3253,3.2613,3.1768,3.1043,3.0359,3.0329,3.0748,3.1087,3.1412,3.2064,3.2199,3.1915,3.1259,3.0802,2.9704,2.8168,2.7085,2.6136,2.4949,2.4217,2.3665,2.3195,2.3095,2.3095,2.3095,2.3095,2.3095,2.3095,2.3095,2.3183,5.3518,5.3518,5.3467,5.2151,4.9844,4.7812,4.602,4.4587,4.3693,4.3305,4.3305,4.3305,4.3045,4.262,4.2545,4.3008,4.3618,4.1632,4.1479,4.2396,4.064,3.9634,3.9694,4.0801,4.1339,4.1429,4.2566,4.311,4.311,4.2626,4.2066,4.1407,4.0651,3.9978,3.9394,3.932,3.8656,3.7494,3.92,3.9215,3.7419,3.6776,3.6492,3.6492,3.5804,3.5415,3.54,3.534,3.531,3.531,3.5265,3.5295,3.531,3.537,3.5385,3.54,3.5459,3.5489,3.5489,3.5489,3.5489,3.5489,3.5489,3.5489,3.5489,3.5489,3.5489,3.5489,3.5489,3.5489,3.5489,3.5489,3.5489,3.5489,3.5489,3.5489,3.5474,3.5444,3.5444,3.5474,3.5205,3.537,3.522,3.4247,3.2762,3.1299,3.0991,3.0457,2.967,2.9286,2.9192,2.9411,2.9903,3.0678,3.1266,3.1486,3.1559,3.1185,3.0125,2.9018,2.7808,2.6238,2.4903,2.4892,2.391,2.3258,2.3221,2.3095,2.3108,2.3208,2.3183,2.3095,2.3095,2.3095,2.3258,5.3518,5.3416,5.2835,5.0831,4.8111,4.6708,4.5333,4.3918,4.3472,4.3305,4.3305,4.3305,4.297,4.244,4.2746,4.2973,4.291,4.2355,4.2219,4.2439,4.1182,4.0367,4.0098,4.0502,4.098,4.1429,4.2327,4.2955,4.3125,4.2686,4.2261,4.1901,4.0935,4.0262,3.9978,3.9604,3.9305,3.9215,3.9978,4.0172,3.9709,3.8751,3.8018,3.7554,3.6611,3.6088,3.6043,3.5729,3.5489,3.5489,3.5489,3.5489,3.5489,3.5489,3.5489,3.5489,3.5489,3.5489,3.5489,3.5489,3.5489,3.5489,3.5489,3.5489,3.5489,3.5489,3.5489,3.5489,3.5489,3.5489,3.5489,3.5489,3.5489,3.5489,3.5489,3.5489,3.5489,3.513,3.5026,3.537,3.4816,3.4517,3.4607,3.3739,3.2241,3.0683,3.0299,2.9905,2.9115,2.8556,2.8505,2.898,2.9628,3.0392,3.1101,3.2104,3.1923,3.0905,3.0368,2.9693,2.7291,2.5853,2.4833,2.48,2.386,2.3358,2.3653,2.3308,2.3158,2.3321,2.3246,2.3095,2.3095,2.3095,2.3446,5.3518,5.3314,5.2062,4.9866,4.7268,4.6074,4.471,4.3414,4.3305,4.3305,4.3305,4.3305,4.297,4.253,4.2865,4.2842,4.2561,4.2698,4.2587,4.2168,4.146,4.0846,4.0427,4.0606,4.101,4.1707,4.2342,4.288,4.32,4.2895,4.2665,4.2447,4.1489,4.0935,4.0861,4.0292,4.0187,4.0621,4.0831,4.11,4.1205,4.0442,3.9544,3.8661,3.7404,3.6671,3.6525,3.6178,3.5848,3.5519,3.5684,3.5684,3.5519,3.5489,3.5489,3.5549,3.5848,3.5953,3.5789,3.5774,3.5774,3.5759,3.5624,3.5489,3.5489,3.5489,3.5489,3.5489,3.5489,3.5489,3.5489,3.5489,3.5489,3.5489,3.5489,3.5489,3.5459,3.5026,3.4981,3.5325,3.4801,3.4023,3.4023,3.3215,3.1975,3.0639,3.0072,2.9628,2.878,2.7966,2.767,2.8492,2.9247,3.0213,3.1286,3.2266,3.2134,3.1083,3.0432,2.9312,2.7041,2.5723,2.4895,2.4833,2.3885,2.3371,2.3421,2.3258,2.3195,2.3484,2.3409,2.3183,2.3384,2.3333,2.3822,5.3518,5.3195,5.132,4.9662,4.8179,4.618,4.4603,4.3409,4.3329,4.3305,4.3305,4.3305,4.297,4.247,4.2545,4.2614,4.2617,4.201,4.1827,4.1858,4.0997,4.0472,4.0457,4.104,4.1707,4.2291,4.288,4.3215,4.3305,4.3245,4.3245,4.3185,4.2506,4.2261,4.2111,4.1527,4.1317,4.1369,4.1901,4.2036,4.1504,4.1339,4.0651,3.9454,3.8078,3.7105,3.6686,3.703,3.6761,3.5564,3.6088,3.6148,3.5609,3.5549,3.5594,3.5669,3.6641,3.7015,3.6522,3.6402,3.6387,3.6327,3.5833,3.5489,3.5489,3.5489,3.5489,3.5489,3.5489,3.5489,3.5489,3.5489,3.5489,3.5489,3.5489,3.5489,3.5489,3.5429,3.5444,3.5489,3.528,3.4726,3.3754,3.2961,3.1945,3.068,2.9625,2.8853,2.8085,2.7167,2.7108,2.7901,2.8806,2.9778,3.1674,3.2604,3.2224,3.1162,3.0077,2.8768,2.7267,2.5963,2.5435,2.4908,2.4255,2.3728,2.3321,2.317,2.3208,2.3308,2.3271,2.3233,2.3653,2.3866,2.4268,5.311,5.2385,5.1159,4.9795,4.8195,4.633,4.5085,4.4212,4.3536,4.3305,4.3305,4.3305,4.3155,4.297,4.2985,4.279,4.2561,4.2572,4.267,4.2675,4.2024,4.1692,4.1683,4.1961,4.2156,4.2455,4.303,4.3305,4.3305,4.3305,4.3305,4.3185,4.2686,4.2396,4.2291,4.1752,4.1602,4.2021,4.2306,4.2432,4.2551,4.2222,4.1602,4.0651,3.8945,3.7943,3.7719,3.7524,3.7,3.6178,3.6372,3.642,3.6207,3.6507,3.6716,3.6776,3.7165,3.7315,3.7075,3.6701,3.6492,3.6447,3.5878,3.5504,3.5489,3.5489,3.5489,3.5504,3.5504,3.5489,3.5489,3.5489,3.5489,3.5489,3.5489,3.5489,3.5489,3.5489,3.5489,3.5429,3.5145,3.4638,3.4173,3.3544,3.2553,3.1143,3.0175,2.9309,2.8319,2.7272,2.7139,2.8685,2.9783,3.0922,3.2706,3.3075,3.2757,3.1591,3.0455,2.9299,2.792,2.632,2.5577,2.5259,2.4657,2.4205,2.3822,2.3634,2.3597,2.3446,2.3384,2.3502,2.3879,2.4155,2.4481,5.3059,5.2302,5.1237,5.002,4.8623,4.6908,4.5837,4.5147,4.4205,4.395,4.409,4.363,4.3488,4.3669,4.3448,4.312,4.2746,4.312,4.3065,4.2716,4.25,4.2396,4.2396,4.2396,4.2515,4.2761,4.3344,4.3643,4.3648,4.3813,4.3798,4.3589,4.318,4.2865,4.2641,4.2222,4.2252,4.2596,4.2671,4.291,4.317,4.2701,4.2201,4.1557,3.9999,3.8811,3.8422,3.8167,3.7644,3.6956,3.6971,3.7,3.6866,3.7375,3.7614,3.7479,3.7853,3.7943,3.7674,3.7135,3.6791,3.6746,3.5998,3.5549,3.5759,3.5639,3.5609,3.5729,3.5594,3.5489,3.5489,3.5489,3.5489,3.5489,3.5489,3.5489,3.5489,3.5489,3.5489,3.5415,3.4921,3.4578,3.4429,3.3873,3.306,3.2035,3.1225,3.034,2.9342,2.8342,2.7842,2.9376,3.006,3.1246,3.2669,3.3262,3.304,3.1994,3.0845,2.9695,2.8498,2.6924,2.5883,2.5577,2.5172,2.4745,2.4431,2.4217,2.4029,2.3853,2.3766,2.3791,2.4142,2.4481,2.4895,5.345,5.3112,5.1518,5.0344,4.9462,4.7832,4.6777,4.6095,4.5211,4.5211,4.5566,4.4266,4.409,4.4472,4.3888,4.3379,4.3373,4.3339,4.2776,4.1878,4.2261,4.2485,4.2485,4.25,4.2806,4.3305,4.3973,4.4287,4.4347,4.4736,4.4736,4.4347,4.4182,4.3778,4.3275,4.3185,4.323,4.3215,4.32,4.3245,4.323,4.2746,4.244,4.2216,4.104,3.9828,3.8571,3.902,3.8676,3.7659,3.7973,3.8048,3.7584,3.8048,3.8123,3.7868,3.8626,3.896,3.8377,3.7704,3.73,3.709,3.6207,3.5848,3.6193,3.5983,3.5893,3.6193,3.5923,3.5564,3.5519,3.5489,3.5489,3.5489,3.5489,3.5489,3.5489,3.5489,3.5489,3.5415,3.4966,3.4532,3.4382,3.4128,3.3631,3.3297,3.2584,3.1673,3.0669,2.9648,2.9407,2.9603,3.0201,3.1373,3.2457,3.3287,3.2942,3.2382,3.119,3.0039,2.8961,2.7578,2.6681,2.6225,2.5615,2.5154,2.4519,2.4318,2.4192,2.4054,2.4029,2.4205,2.4607,2.5021,2.5448,5.2672,5.2486,5.0975,5.0221,4.9805,4.8198,4.7351,4.707,4.6154,4.5941,4.6032,4.5566,4.5473,4.5473,4.4743,4.4335,4.4259,4.3654,4.305,4.2791,4.2925,4.3015,4.3015,4.303,4.3389,4.3943,4.4212,4.4556,4.4885,4.4796,4.4481,4.4347,4.4347,4.3973,4.3394,4.3708,4.3823,4.3349,4.3305,4.3305,4.329,4.3095,4.2836,4.2396,4.1976,4.1168,3.9873,3.9559,3.8975,3.8123,3.8272,3.8287,3.8242,3.8721,3.8955,3.8886,3.9119,3.9125,3.8437,3.7778,3.7225,3.6836,3.6387,3.6297,3.6507,3.6671,3.6641,3.6582,3.6282,3.6028,3.5624,3.5489,3.5489,3.5489,3.5489,3.5489,3.5489,3.5489,3.5489,3.5489,3.531,3.519,3.5145,3.4876,3.4607,3.4186,3.3448,3.2591,3.1528,3.0443,3.0049,3.0682,3.1123,3.1648,3.3024,3.3965,3.3925,3.3346,3.218,3.1047,2.9822,2.8318,2.7471,2.6665,2.6084,2.5501,2.4833,2.4544,2.4481,2.4556,2.4707,2.4958,2.5259,2.5586,2.5912,5.257,5.2181,5.1014,5.0338,4.9985,4.8671,4.8129,4.7966,4.7122,4.6902,4.7104,4.6488,4.6419,4.6384,4.5395,4.4812,4.4677,4.3771,4.3305,4.3305,4.3305,4.3305,4.3305,4.3305,4.3673,4.4272,4.4556,4.502,4.5648,4.5514,4.5304,4.5068,4.5065,4.4601,4.3783,4.4062,4.3988,4.3394,4.3305,4.3305,4.3305,4.3305,4.311,4.2746,4.253,4.1976,4.1145,4.0502,3.9723,3.896,3.8766,3.8781,3.8811,3.9185,3.9388,3.9388,3.9343,3.9125,3.8437,3.7778,3.727,3.6881,3.6626,3.6746,3.7,3.73,3.6896,3.6866,3.6357,3.5953,3.5594,3.5489,3.5489,3.5489,3.5489,3.5489,3.5489,3.5489,3.5489,3.5489,3.5474,3.5489,3.5489,3.5474,3.5355,3.4872,3.4398,3.3684,3.2607,3.1494,3.1562,3.1646,3.1585,3.247,3.3904,3.4569,3.4934,3.4285,3.3422,3.2349,3.1233,2.9265,2.7891,2.696,2.6274,2.5904,2.5285,2.5146,2.5084,2.5234,2.5272,2.5372,2.5536,2.585,2.616,5.2976,5.2232,5.1454,5.0676,5.0016,4.9244,4.8892,4.8798,4.808,4.8129,4.8401,4.7273,4.6952,4.7138,4.5925,4.5145,4.4715,4.3922,4.3379,4.3319,4.3305,4.3305,4.3305,4.3305,4.3693,4.4451,4.4975,4.5633,4.6367,4.6651,4.692,4.616,4.6025,4.5607,4.4601,4.4392,4.4082,4.3544,4.3364,4.3305,4.3305,4.3305,4.329,4.3215,4.2761,4.244,4.2156,4.1557,4.0681,3.9664,3.9469,3.9469,3.9433,3.9418,3.9388,3.9478,3.9433,3.905,3.8437,3.7778,3.7389,3.7285,3.6941,3.7064,3.7898,3.7554,3.718,3.7225,3.6447,3.5729,3.5594,3.5489,3.5489,3.5489,3.5489,3.5489,3.5489,3.5489,3.5489,3.5489,3.5489,3.5489,3.5489,3.5489,3.5474,3.5429,3.5287,3.4721,3.3897,3.2918,3.2687,3.2548,3.2409,3.3118,3.4501,3.4827,3.516,3.4971,3.4292,3.3566,3.2428,3.0441,2.8709,2.7721,2.6665,2.6269,2.5996,2.5837,2.5611,2.5498,2.5536,2.5598,2.5812,2.616,2.6298,5.2503,5.2164,5.093,5.027,4.9999,4.9306,4.9018,4.897,4.8719,4.8656,4.8798,4.8513,4.8193,4.842,4.7122,4.6321,4.5531,4.4523,4.3708,4.3349,4.3305,4.3305,4.3305,4.3319,4.3917,4.493,4.5289,4.5888,4.6935,4.6785,4.6546,4.6294,4.6324,4.5933,4.5155,4.5035,4.4691,4.4062,4.3514,4.3334,4.3349,4.3334,4.3305,4.3275,4.3165,4.2836,4.2425,4.1782,4.1025,4.0247,4.0142,4.0142,4.0098,3.9753,3.9709,4.0023,3.9664,3.9125,3.8467,3.7808,3.7449,3.7404,3.73,3.7524,3.8302,3.8571,3.8182,3.7689,3.7015,3.6477,3.5744,3.5504,3.5504,3.5489,3.5489,3.5489,3.5489,3.5489,3.5489,3.5489,3.5489,3.5489,3.5489,3.5489,3.5489,3.5489,3.5424,3.5228,3.4409,3.3856,3.3415,3.3567,3.3665,3.4163,3.4769,3.5083,3.5307,3.5382,3.5076,3.4728,3.339,3.1735,3.0242,2.9056,2.7605,2.6901,2.6738,2.66,2.6285,2.5862,2.595,2.6122,2.621,2.6424,2.6461,5.2435,5.1792,5.093,5.0202,4.9627,4.9187,4.9018,4.8909,4.8576,4.8401,4.8338,4.7982,4.7836,4.7704,4.6641,4.6008,4.5489,4.4424,4.3713,4.3379,4.3305,4.3454,4.3633,4.3723,4.4396,4.5603,4.5723,4.6322,4.7085,4.689,4.677,4.6756,4.6741,4.6381,4.5783,4.5723,4.5394,4.4721,4.4067,4.3813,4.4137,4.3883,4.3723,4.3708,4.3678,4.3434,4.2821,4.2402,4.1893,4.1339,4.1033,4.0816,4.0786,4.0472,4.0427,4.0786,4.0202,3.9544,3.8871,3.8197,3.7838,3.7823,3.7823,3.8167,3.8646,3.899,3.8512,3.7988,3.7389,3.6686,3.6103,3.5684,3.5519,3.5489,3.5489,3.5504,3.5504,3.5489,3.5489,3.5489,3.5489,3.5489,3.5489,3.5489,3.5489,3.5489,3.5489,3.5213,3.4806,3.4394,3.4177,3.4361,3.4293,3.4514,3.4909,3.527,3.54,3.5442,3.5412,3.5203,3.4115,3.2657,3.1509,3.0075,2.8653,2.7664,2.7649,2.7383,2.6738,2.6499,2.6562,2.6512,2.6524,2.6612,2.6637,5.257,5.1286,5.1134,5.0338,4.9255,4.9035,4.9018,4.8829,4.8096,4.7704,4.7523,4.6678,4.6504,4.6154,4.5704,4.4958,4.479,4.4037,4.3513,4.3364,4.3454,4.3823,4.4362,4.4242,4.496,4.6037,4.6264,4.6681,4.713,4.7264,4.7279,4.7276,4.7349,4.7179,4.6875,4.6713,4.6324,4.5925,4.5153,4.5022,4.5172,4.4794,4.4362,4.4167,4.4003,4.3723,4.3349,4.3155,4.2955,4.2485,4.1833,4.1557,4.1497,4.1444,4.1324,4.1175,4.0666,4.0023,3.9409,3.8676,3.8422,3.8452,3.8407,3.8691,3.9095,3.8975,3.8616,3.8287,3.727,3.6656,3.6222,3.5878,3.5729,3.5639,3.5534,3.5609,3.5519,3.5489,3.5489,3.5489,3.5489,3.5489,3.5489,3.5489,3.5489,3.5489,3.5489,3.5359,3.5133,3.4839,3.4872,3.5148,3.4953,3.4624,3.5052,3.5489,3.5474,3.5489,3.5489,3.5228,3.4427,3.3239,3.2305,3.1179,3.0221,2.9408,2.8834,2.8313,2.75,2.6927,2.6851,2.6713,2.6612,2.6763,2.6839,5.2384,5.1978,5.0828,5.0152,4.9779,4.9255,4.9018,4.894,4.8015,4.7605,4.7373,4.6609,4.6173,4.6134,4.5597,4.527,4.4732,4.418,4.3838,4.3364,4.3898,4.4451,4.484,4.4646,4.5125,4.6055,4.6294,4.6638,4.716,4.7309,4.7309,4.7424,4.7946,4.8409,4.8291,4.8322,4.8683,4.8268,4.7076,4.6443,4.6398,4.5677,4.4952,4.4451,4.3913,4.3514,4.3364,4.3305,4.3215,4.3,4.2551,4.2201,4.2111,4.1752,4.1534,4.1407,4.0831,4.0142,3.9484,3.8931,3.8631,3.9035,3.8751,3.8676,3.9284,3.9254,3.8901,3.8437,3.7674,3.6881,3.6133,3.6596,3.6417,3.5968,3.6013,3.6073,3.5654,3.5504,3.5489,3.5489,3.5489,3.5489,3.5489,3.5489,3.5489,3.5489,3.5489,3.5489,3.5359,3.5213,3.5326,3.5504,3.5359,3.5019,3.5166,3.5489,3.5489,3.5489,3.5489,3.5442,3.4625,3.4178,3.3403,3.2741,3.2082,3.1254,3.0314,2.9174,2.833,2.7771,2.7201,2.7077,2.704,2.7077,2.7266,5.1606,5.12,5.0405,4.9898,4.956,4.9171,4.9018,4.8829,4.8015,4.7605,4.7273,4.6189,4.5561,4.552,4.531,4.4825,4.4204,4.3907,4.3618,4.3469,4.3962,4.4661,4.5259,4.5394,4.5828,4.6666,4.6785,4.7025,4.7234,4.7352,4.7581,4.7919,4.8183,4.8636,4.9296,4.9378,4.9385,4.9541,4.8733,4.8205,4.831,4.7191,4.6048,4.5162,4.4306,4.3753,4.3768,4.3424,4.3334,4.3215,4.303,4.2821,4.2791,4.2491,4.2312,4.2162,4.1339,4.0801,4.0247,3.9484,3.9035,3.9358,3.905,3.9089,3.9284,3.9388,3.9254,3.8841,3.8242,3.7464,3.6582,3.6851,3.6911,3.6716,3.6686,3.6611,3.6088,3.5699,3.5489,3.5489,3.5489,3.5489,3.5489,3.5489,3.5489,3.5489,3.5489,3.5489,3.5489,3.5359,3.5392,3.5504,3.5489,3.5424,3.5424,3.5489,3.5489,3.5489,3.5489,3.5489,3.5175,3.493,3.4699,3.4028,3.3311,3.2593,3.1598,3.0411,2.9379,2.8773,2.8261,2.7769,2.7555,2.7727,2.7956,5.0676,5.0084,4.9965,4.956,4.9052,4.9018,4.9018,4.8861,4.7998,4.7605,4.7323,4.5742,4.5285,4.5095,4.5147,4.4472,4.3856,4.3771,4.3871,4.3449,4.4212,4.4796,4.5334,4.5888,4.6486,4.7234,4.7234,4.7294,4.7294,4.7381,4.7764,4.847,4.8309,4.9085,5.0071,5.011,5.0262,5.0885,5.0262,4.9753,4.9824,4.8614,4.7349,4.6085,4.511,4.4496,4.4377,4.4062,4.3678,4.3589,4.3589,4.3529,4.3424,4.3319,4.32,4.312,4.2028,4.1459,4.1055,4.0352,3.9768,3.9582,3.9538,3.9469,3.9418,3.9388,3.9358,3.9209,3.8796,3.8197,3.7539,3.7778,3.7674,3.7404,3.736,3.712,3.6552,3.5908,3.5549,3.5489,3.5489,3.5489,3.5489,3.5489,3.5489,3.5489,3.5489,3.5489,3.5489,3.5489,3.5489,3.5489,3.5489,3.5489,3.5489,3.5019,3.5052,3.5133,3.5198,3.5231,3.5279,3.5279,3.5034,3.4953,3.4368,3.3638,3.2874,3.188,3.0897,3.0006,2.9394,2.907,2.8763,2.8513,2.8645,5.0202,5.005,4.9441,4.9103,4.9018,4.9018,4.9018,4.8829,4.8047,4.7622,4.7473,4.647,4.5977,4.5977,4.5977,4.5416,4.4814,4.4734,4.4415,4.3793,4.4466,4.5214,4.5484,4.6142,4.6726,4.7145,4.7309,4.7309,4.7309,4.7337,4.7834,4.8718,4.9231,5.0242,5.1245,5.217,5.1938,5.199,5.1454,5.0897,5.0192,4.9204,4.786,4.6524,4.5574,4.52,4.5125,4.5035,4.496,4.496,4.496,4.4631,4.4122,4.3589,4.3195,4.2716,4.2396,4.1946,4.1512,4.119,4.0711,4.0397,4.0232,3.9933,3.9634,3.9418,3.9463,3.9358,3.9194,3.8751,3.7584,3.8302,3.8362,3.7853,3.7509,3.727,3.6626,3.6088,3.5609,3.5519,3.5519,3.5489,3.5489,3.5489,3.5489,3.5489,3.5489,3.5489,3.5489,3.5489,3.5489,3.5489,3.5489,3.5489,3.5489,3.4791,3.4428,3.4476,3.4543,3.4576,3.4758,3.5198,3.5246,3.518,3.51,3.464,3.3883,3.3091,3.2511,3.1702,3.1067,3.0396,3.0104,2.9842,2.9393,4.9526,4.9492,4.9137,4.9018,4.9018,4.9018,4.9018,4.894,4.8513,4.8338,4.8047,4.7373,4.6918,4.6918,4.6918,4.64,4.576,4.5226,4.4702,4.4163,4.4811,4.5529,4.5813,4.6501,4.6935,4.7249,4.7309,4.7309,4.7309,4.7309,4.7876,4.8512,4.8922,4.9551,5.0665,5.0855,5.1521,5.1594,5.1394,5.093,5.032,4.9336,4.8064,4.7024,4.6217,4.5858,4.5753,4.5394,4.5289,4.5259,4.5274,4.493,4.4466,4.4007,4.3554,4.297,4.262,4.2306,4.1901,4.1662,4.1227,4.098,4.0905,4.0591,4.0142,3.9933,3.9738,3.9463,3.9388,3.9185,3.8571,3.908,3.899,3.8661,3.8377,3.7883,3.7195,3.6686,3.6193,3.5714,3.5624,3.5594,3.5489,3.5489,3.5489,3.5489,3.5489,3.5489,3.5489,3.5489,3.5489,3.5489,3.5489,3.5489,3.5424,3.4872,3.4177,3.4109,3.4177,3.4211,3.4428,3.4953,3.5279,3.5424,3.5311,3.5213,3.4846,3.4037,3.3719,3.3316,3.2486,3.177,3.149,3.1158,3.0705,4.9018,4.9018,4.9018,4.9018,4.9018,4.9018,4.9018,4.9018,4.897,4.894,4.8909,4.8257,4.7868,4.7868,4.7721,4.7273,4.624,4.5515,4.5064,4.4464,4.4975,4.5648,4.6279,4.6743,4.7115,4.7279,4.7309,4.7309,4.7309,4.7309,4.7876,4.8403,4.7946,4.8475,5.0025,5.0087,4.9836,5.0087,5.0397,5.0374,4.9891,4.9029,4.8141,4.7409,4.68,4.6516,4.6456,4.6127,4.5888,4.5843,4.5738,4.5454,4.487,4.4721,4.4347,4.3584,4.2925,4.2665,4.2485,4.2192,4.1878,4.1647,4.1617,4.1145,4.0502,4.0098,3.9903,3.9508,3.9388,3.9424,3.9194,3.9358,3.9358,3.9254,3.9095,3.8766,3.7764,3.7105,3.6671,3.6267,3.5938,3.5744,3.5684,3.5489,3.5489,3.5489,3.5489,3.5489,3.5489,3.5489,3.5489,3.5489,3.5489,3.5489,3.5344,3.5052,3.4428,3.4061,3.4211,3.4312,3.4543,3.4839,3.5166,3.5489,3.5457,3.5344,3.5133,3.5019,3.4629,3.4148,3.3567,3.3129,3.2758,3.2392,3.2009,4.9018,4.9018,4.9018,4.9018,4.8984,4.8984,4.9001,4.8968,4.8984,4.9018,4.9001,4.8861,4.8767,4.875,4.8767,4.7803,4.6719,4.6398,4.567,4.4579,4.493,4.5589,4.6204,4.6309,4.689,4.7219,4.7309,4.7309,4.7309,4.7309,4.7764,4.8403,4.8553,4.911,4.975,4.9631,5.0297,5.032,5.0281,4.9852,4.9004,4.8057,4.7523,4.7307,4.7189,4.71,4.707,4.6875,4.686,4.692,4.698,4.6711,4.6175,4.6055,4.5364,4.4436,4.3643,4.317,4.321,4.306,4.2806,4.25,4.2321,4.1632,4.0801,4.0023,3.9657,3.9448,3.9418,3.9478,3.9523,3.9478,3.9418,3.9298,3.9185,3.8527,3.7689,3.7644,3.721,3.6866,3.6552,3.6163,3.5938,3.5684,3.5489,3.5489,3.5489,3.5489,3.5489,3.5489,3.5489,3.5489,3.5489,3.5489,3.5457,3.5085,3.4658,3.4143,3.4375,3.4509,3.4495,3.4725,3.5231,3.5489,3.5489,3.5489,3.5344,3.5279,3.5279,3.5019,3.4509,3.4225,3.3945,3.3567,3.3052,4.8629,4.9001,4.9018,4.8765,4.8477,4.8815,4.8765,4.8528,4.8832,4.9018,4.9018,4.9018,4.9018,4.9018,4.9018,4.795,4.662,4.6506,4.5825,4.4619,4.4706,4.5334,4.6085,4.6324,4.6681,4.716,4.7309,4.7309,4.7309,4.7337,4.7609,4.7876,4.7988,4.7988,4.8815,4.8708,4.8584,4.8584,4.8584,4.8392,4.7961,4.7538,4.7309,4.7309,4.7309,4.7309,4.7309,4.7309,4.7309,4.7309,4.7309,4.6995,4.6459,4.6175,4.5681,4.4441,4.4451,4.4272,4.3958,4.3883,4.3658,4.3419,4.3045,4.2327,4.119,4.0367,3.9732,3.9403,3.9783,3.9948,4.0083,4.0337,4.0232,4.0008,3.9574,3.8841,3.8242,3.8033,3.7808,3.7494,3.721,3.6956,3.6626,3.6267,3.6058,3.5908,3.5714,3.5489,3.5489,3.5489,3.5489,3.5489,3.5489,3.5489,3.5457,3.5279,3.4806,3.4476,3.4931,3.4916,3.4442,3.461,3.5332,3.5579,3.5519,3.5504,3.5504,3.5457,3.5392,3.5424,3.5457,3.5052,3.461,3.4109,3.3567,4.7953,4.8477,4.8849,4.8697,4.8227,4.8781,4.8731,4.8325,4.8781,4.9018,4.9018,4.9018,4.9018,4.8909,4.8656,4.7688,4.6244,4.5977,4.5259,4.4597,4.4481,4.5125,4.5906,4.6339,4.6681,4.7309,4.7309,4.7309,4.7309,4.7309,4.7309,4.7309,4.7467,4.7424,4.7337,4.751,4.7581,4.7581,4.7538,4.7467,4.7381,4.7352,4.7309,4.7309,4.7309,4.7309,4.7309,4.7309,4.7309,4.7309,4.7309,4.707,4.6726,4.6606,4.6007,4.511,4.5095,4.502,4.4526,4.4242,4.4317,4.4062,4.3509,4.2521,4.1841,4.1025,4.0531,4.0083,4.0367,4.0606,4.0741,4.1085,4.0965,4.0696,4.0382,3.9634,3.899,3.8751,3.8437,3.8063,3.7928,3.8123,3.7719,3.709,3.6716,3.6417,3.6043,3.5579,3.5489,3.5489,3.5489,3.5489,3.5489,3.5489,3.5457,3.5311,3.4872,3.4879,3.5317,3.5383,3.496,3.5215,3.5926,3.5923,3.5654,3.5579,3.5609,3.5549,3.5489,3.5489,3.5489,3.5489,3.5166,3.4658,3.4109,4.6887,4.7056,4.8409,4.8883,4.8815,4.8984,4.8968,4.8748,4.8917,4.9001,4.9018,4.9018,4.9018,4.8829,4.8161,4.7256,4.6173,4.5285,4.4726,4.4408,4.4421,4.499,4.5666,4.6187,4.6576,4.7145,4.7279,4.7309,4.7309,4.7309,4.7309,4.7309,4.7309,4.7309,4.7309,4.7309,4.7309,4.7309,4.7309,4.7309,4.7309,4.7309,4.7309,4.7309,4.7309,4.7309,4.7309,4.7309,4.7309,4.7309,4.7309,4.7309,4.71,4.707,4.6396,4.5708,4.5738,4.5499,4.4796,4.4377,4.4302,4.3958,4.3344,4.2566,4.2171,4.1692,4.1294,4.11,4.116,4.1294,4.1362,4.1407,4.1579,4.1324,4.0995,4.0322,3.9753,3.9439,3.911,3.8661,3.8586,3.8721,3.8527,3.7853,3.715,3.6821,3.5968,3.5489,3.5489,3.5489,3.5489,3.5489,3.5489,3.5489,3.5489,3.5311,3.5166,3.5325,3.5717,3.5741,3.5553,3.6028,3.6567,3.6178,3.5908,3.5818,3.5684,3.5564,3.5489,3.5489,3.5534,3.5714,3.5669,3.5269,3.475,4.6126,4.6227,4.7225,4.7648,4.7733,4.8612,4.8748,4.846,4.8798,4.9018,4.9018,4.9001,4.9001,4.8736,4.8032,4.7088,4.6138,4.5211,4.4458,4.3877,4.3813,4.4261,4.496,4.5618,4.6022,4.6666,4.704,4.7309,4.7309,4.7234,4.7294,4.7309,4.7309,4.7309,4.7309,4.7309,4.7309,4.7309,4.7309,4.7309,4.7309,4.7309,4.7309,4.7309,4.7309,4.7309,4.7309,4.7309,4.7309,4.7309,4.7309,4.7309,4.7309,4.7309,4.6815,4.6007,4.616,4.5708,4.499,4.4496,4.4167,4.3663,4.321,4.2791,4.253,4.2156,4.1796,4.1692,4.1826,4.2021,4.2036,4.2297,4.2521,4.2141,4.1602,4.095,4.0487,4.0142,3.9709,3.923,3.917,3.9194,3.8931,3.8556,3.7838,3.7165,3.6237,3.5519,3.5579,3.5609,3.5654,3.5669,3.5684,3.5639,3.5639,3.5579,3.5504,3.5774,3.6058,3.6088,3.6103,3.6686,3.703,3.6582,3.6237,3.6193,3.5998,3.5639,3.5549,3.5654,3.5893,3.6148,3.5998,3.5759,3.5299,4.5015,4.5145,4.6058,4.6599,4.6921,4.7902,4.8189,4.8054,4.8426,4.8849,4.897,4.875,4.856,4.8257,4.7222,4.6451,4.5561,4.4721,4.3989,4.3557,4.3424,4.3708,4.4332,4.4975,4.5633,4.6127,4.6651,4.698,4.6935,4.6995,4.7115,4.7234,4.7309,4.7309,4.7309,4.7309,4.7309,4.7309,4.7309,4.7309,4.7309,4.7309,4.7309,4.7309,4.7309,4.7309,4.7309,4.7309,4.7309,4.7309,4.7309,4.7309,4.7309,4.7219,4.6935,4.6531,4.6082,4.5723,4.508,4.4601,4.4018,4.3454,4.3334,4.303,4.2791,4.2656,4.2462,4.2207,4.2447,4.2656,4.2641,4.294,4.3006,4.2626,4.2276,4.1707,4.1145,4.0741,4.0262,3.9798,3.9657,3.9373,3.914,3.8751,3.8123,3.7404,3.6611,3.6028,3.5968,3.5983,3.5953,3.5953,3.5953,3.5893,3.5833,3.5714,3.5639,3.5789,3.6103,3.6477,3.6701,3.7315,3.746,3.706,3.6776,3.6626,3.6522,3.6417,3.6148,3.5878,3.6252,3.6671,3.6327,3.6088,3.5774,4.3405,4.3629,4.4958,4.592,4.6347,4.6802,4.7259,4.7767,4.7902,4.8196,4.8498,4.7962,4.7572,4.7207,4.5897,4.5264,4.4909,4.3989,4.3369,4.3329,4.3319,4.3708,4.4242,4.4811,4.517,4.5439,4.5963,4.6352,4.6384,4.6474,4.677,4.7174,4.7309,4.7309,4.7309,4.7309,4.7309,4.7309,4.7309,4.7309,4.7309,4.7309,4.7309,4.7309,4.7309,4.7309,4.7309,4.7309,4.7309,4.7309,4.7309,4.7309,4.7309,4.7309,4.7025,4.6516,4.5828,4.517,4.4481,4.4377,4.4107,4.3708,4.3768,4.3514,4.3349,4.326,4.3155,4.288,4.3065,4.317,4.3245,4.326,4.3215,4.3105,4.2701,4.2351,4.1788,4.1175,4.0666,4.0098,3.9672,3.9358,3.9185,3.8856,3.8302,3.7629,3.6911,3.6567,3.6492,3.6462,3.6447,3.6447,3.6447,3.6462,3.6357,3.5923,3.5789,3.5923,3.6327,3.6911,3.7479,3.8108,3.8048,3.7554,3.7449,3.7404,3.7375,3.7295,3.706,3.6836,3.6941,3.712,3.6761,3.6477,3.6282,4.1138,4.1171,4.1707,4.2064,4.2706,4.5589,4.6938,4.7141,4.7145,4.6989,4.6779,4.6698,4.6503,4.584,4.5284,4.4706,4.4548,4.3771,4.3305,4.3305,4.3305,4.3394,4.3868,4.4377,4.4691,4.4825,4.5289,4.6007,4.6309,4.6279,4.6668,4.7145,4.7309,4.7309,4.7309,4.7309,4.7309,4.7309,4.7309,4.7309,4.7309,4.7309,4.7309,4.7309,4.7309,4.7309,4.7309,4.7309,4.7309,4.7309,4.7309,4.7309,4.7294,4.7279,4.716,4.683,4.6322,4.5678,4.517,4.4975,4.49,4.4706,4.4526,4.4317,4.4077,4.3947,4.3723,4.3409,4.3334,4.3319,4.329,4.329,4.326,4.326,4.3015,4.2731,4.2237,4.1564,4.095,4.0337,3.9822,3.9627,3.9454,3.9559,3.9095,3.8556,3.7943,3.7345,3.7135,3.7105,3.709,3.709,3.709,3.7105,3.6956,3.6582,3.6462,3.6656,3.718,3.7838,3.8407,3.8691,3.8571,3.8063,3.8138,3.8197,3.8018,3.7898,3.7943,3.7898,3.7868,3.7808,3.7614,3.733,3.706,3.9622,3.9654,3.9909,3.9831,4.0156,4.3086,4.468,4.5213,4.5912,4.5853,4.5259,4.521,4.5078,4.4634,4.4229,4.4174,4.4174,4.3669,4.3305,4.3305,4.3305,4.3334,4.3574,4.4122,4.4556,4.4646,4.52,4.5948,4.6264,4.6279,4.6653,4.716,4.7309,4.7309,4.7309,4.7309,4.7309,4.7309,4.7309,4.7309,4.7309,4.7309,4.7309,4.7309,4.7309,4.7309,4.7309,4.7309,4.7309,4.7309,4.7266,4.7251,4.7221,4.7057,4.7115,4.7025,4.6681,4.6127,4.5768,4.5663,4.5723,4.5992,4.5633,4.511,4.4661,4.4407,4.4067,4.3753,4.3469,4.3334,4.3305,4.3305,4.3305,4.3305,4.32,4.2955,4.2731,4.2058,4.1617,4.092,4.0442,4.0187,3.9978,4.0083,4.0068,3.9559,3.9035,3.8407,3.7808,3.7764,3.7749,3.7749,3.7749,3.7764,3.7629,3.733,3.7285,3.7389,3.7883,3.8452,3.8392,3.8497,3.8542,3.8661,3.8706,3.8676,3.8482,3.8407,3.8542,3.8571,3.8527,3.8482,3.8422,3.8138,3.7778,3.8768,3.891,3.9564,3.9344,3.9006,3.9879,4.0935,4.2301,4.4358,4.4755,4.4032,4.3163,4.3152,4.3401,4.2751,4.2752,4.3202,4.3174,4.3195,4.323,4.323,4.3275,4.3648,4.4332,4.4451,4.4811,4.5274,4.5768,4.6219,4.6516,4.686,4.7174,4.7309,4.7309,4.7309,4.7309,4.7309,4.7309,4.7309,4.7309,4.7309,4.7309,4.7309,4.7309,4.7309,4.7309,4.7251,4.7106,4.7164,4.7164,4.7149,4.7134,4.694,4.6565,4.6759,4.6789,4.6448,4.6486,4.6381,4.6352,4.6546,4.6726,4.6112,4.5589,4.5229,4.4945,4.4601,4.4142,4.3768,4.3499,4.3319,4.3305,4.3305,4.3305,4.3305,4.317,4.3095,4.2746,4.2381,4.1886,4.1384,4.11,4.092,4.0935,4.0546,4.0098,3.9559,3.911,3.8601,3.8437,3.8422,3.8422,3.8422,3.8422,3.8257,3.8078,3.8078,3.8167,3.8272,3.8661,3.8512,3.8512,3.8781,3.9005,3.9185,3.914,3.8931,3.8955,3.9179,3.9164,3.899,3.8931,3.8811,3.8676,3.8377,3.6471,3.6501,3.6716,3.6686,3.6673,3.7826,3.9471,4.1324,4.2073,4.2045,4.1724,4.1945,4.1822,4.1397,4.158,4.1782,4.2073,4.2372,4.2581,4.2776,4.309,4.3215,4.3484,4.3813,4.4062,4.4392,4.4855,4.5574,4.6292,4.6666,4.701,4.7294,4.7294,4.7294,4.7309,4.7309,4.7309,4.7309,4.7309,4.7309,4.7309,4.7309,4.7309,4.7309,4.7164,4.7164,4.7062,4.6299,4.6314,4.6975,4.6299,4.5901,4.5361,4.5201,4.5288,4.5478,4.615,4.7025,4.7025,4.701,4.71,4.7234,4.683,4.6516,4.6142,4.5708,4.5229,4.4631,4.4201,4.4003,4.3718,4.3559,4.3514,4.3484,4.3469,4.3379,4.326,4.297,4.2635,4.2417,4.1968,4.1788,4.1639,4.1145,4.0741,4.0397,4.0023,3.9589,3.926,3.905,3.8945,3.8931,3.8945,3.8901,3.902,3.888,3.8916,3.8945,3.8945,3.8916,3.8901,3.896,3.917,3.929,3.9298,3.9343,3.9313,3.9388,3.9388,3.9388,3.9239,3.9245,3.9185,3.9035,3.896,3.5489,3.5489,3.5489,3.5489,3.5647,3.6432,3.7789,3.917,3.9834,3.9966,3.9841,4.0185,4.04,4.0583,4.0883,4.116,4.1474,4.1803,4.2141,4.2575,4.2746,4.306,4.32,4.3529,4.4003,4.4272,4.4706,4.5424,4.6217,4.6875,4.7264,4.692,4.71,4.7279,4.7309,4.7309,4.7309,4.7309,4.7309,4.7309,4.7309,4.7309,4.7309,4.7193,4.7004,4.6682,4.6477,4.5374,4.5312,4.5734,4.4826,4.456,4.4223,4.418,4.3908,4.4276,4.5401,4.6167,4.6432,4.7003,4.7193,4.7309,4.7309,4.707,4.6726,4.6294,4.5633,4.499,4.4766,4.4511,4.4197,4.3888,4.3813,4.3738,4.3648,4.3559,4.3329,4.3015,4.2851,4.2746,4.2551,4.2342,4.1983,4.1429,4.101,4.0801,4.0397,3.9843,3.9529,3.9269,3.9209,3.923,3.9254,3.9269,3.9388,3.9388,3.9269,3.9179,3.9209,3.923,3.9245,3.926,3.9284,3.9328,3.9373,3.9388,3.9388,3.9388,3.9388,3.9388,3.9418,3.9424,3.9364,3.9269,3.9239,3.5489,3.5489,3.5489,3.5489,3.5489,3.5599,3.5992,3.6532,3.7887,3.8412,3.8387,3.8427,3.9182,3.9858,4.0217,4.0576,4.0876,4.1175,4.1542,4.2231,4.2261,4.2521,4.3165,4.3793,4.3883,4.4347,4.4825,4.5229,4.6097,4.6576,4.6591,4.6352,4.686,4.7085,4.7055,4.7249,4.7219,4.704,4.7204,4.7309,4.7309,4.7309,4.7236,4.7016,4.6373,4.5705,4.5331,4.4539,4.3598,4.3773,4.3632,4.3665,4.3485,4.3133,4.281,4.3413,4.4573,4.5452,4.6062,4.6682,4.7164,4.7309,4.7309,4.7249,4.701,4.6815,4.6157,4.5618,4.5364,4.5035,4.4706,4.4601,4.4541,4.4242,4.4018,4.3708,4.3319,4.3125,4.308,4.303,4.2961,4.2766,4.2602,4.2102,4.1294,4.116,4.0546,3.9888,3.9903,3.9679,3.9538,3.9553,3.9642,3.9642,3.9388,3.9388,3.9388,3.9373,3.9388,3.9284,3.9185,3.9224,3.9373,3.9388,3.9388,3.9388,3.9388,3.9388,3.9403,3.9418,3.9484,3.9544,3.9559,3.9679,3.9709,3.5489,3.5489,3.5489,3.5489,3.5489,3.5489,3.5594,3.5759,3.606,3.6845,3.7618,3.8138,3.8556,3.899,3.9574,3.9918,4.0023,4.0502,4.0696,4.1145,4.1429,4.2156,4.2551,4.306,4.3479,4.4107,4.4586,4.4915,4.5394,4.5723,4.6052,4.6204,4.6531,4.6561,4.6591,4.6875,4.704,4.6741,4.71,4.7294,4.7309,4.7219,4.7116,4.6879,4.6342,4.6255,4.5651,4.4443,4.4984,4.5779,4.4256,4.349,4.2887,4.2005,4.1507,4.1706,4.384,4.5029,4.5734,4.6491,4.7164,4.7309,4.7309,4.7309,4.7234,4.713,4.683,4.6337,4.5948,4.5603,4.5334,4.5289,4.52,4.4796,4.4347,4.3858,4.3394,4.3319,4.3305,4.3305,4.3305,4.32,4.305,4.2581,4.1788,4.0965,4.0113,3.9679,4.0202,4.0232,4.0023,4.0023,4.0142,4.0068,3.9702,3.9493,3.9538,3.9433,3.9388,3.9254,3.914,3.9239,3.9388,3.9388,3.9388,3.9448,3.9478,3.9418,3.9418,3.9574,3.9783,3.9933,4.0277,4.0457,4.0397,3.4786,3.507,3.5385,3.5489,3.5489,3.5489,3.5489,3.5489,3.5504,3.5893,3.6656,3.7479,3.8093,3.8422,3.911,3.9358,3.9418,3.9783,4.0202,4.0546,4.1055,4.1811,4.2216,4.2635,4.3165,4.3823,4.4182,4.4496,4.4601,4.514,4.5559,4.5574,4.5663,4.5888,4.5963,4.6441,4.6696,4.6396,4.692,4.7131,4.7191,4.7161,4.7174,4.6922,4.6488,4.6357,4.5636,4.4394,4.451,4.507,4.4022,4.2525,4.2027,4.1939,4.1753,4.2166,4.3546,4.5403,4.5734,4.6403,4.7266,4.7309,4.7309,4.7309,4.7309,4.7174,4.689,4.6471,4.6696,4.6441,4.6157,4.6037,4.5963,4.5678,4.502,4.4436,4.3768,4.3305,4.3305,4.3305,4.3305,4.3275,4.3065,4.2686,4.2066,4.1856,4.0771,4.0307,4.0681,4.095,4.0696,4.0621,4.0846,4.0561,4.0127,3.9903,3.9777,3.9627,3.9478,3.9328,3.929,3.9313,3.9388,3.9478,3.9568,3.9642,3.9642,3.9717,3.9792,4.0008,4.0217,4.0427,4.0801,4.1205,4.1235,3.3949,3.4578,3.5115,3.5429,3.5489,3.5489,3.5489,3.5489,3.5504,3.5504,3.5759,3.6836,3.7614,3.8197,3.8945,3.9155,3.9349,3.9514,3.9843,4.0397,4.0935,4.1662,4.2321,4.2836,4.315,4.3464,4.3838,4.3693,4.3574,4.4272,4.4631,4.4466,4.4751,4.517,4.5364,4.5753,4.6052,4.5965,4.6294,4.6701,4.6895,4.7043,4.6793,4.6445,4.6006,4.5383,4.4858,4.4379,4.3714,4.3551,4.3551,4.2469,4.1821,4.2083,4.2242,4.2704,4.4032,4.5161,4.5689,4.6535,4.7062,4.7309,4.7309,4.7309,4.7309,4.7174,4.6905,4.692,4.7145,4.713,4.6845,4.6681,4.6606,4.6067,4.5334,4.4661,4.3902,4.3305,4.3305,4.3305,4.3305,4.3305,4.309,4.2701,4.247,4.2291,4.2036,4.1737,4.1504,4.1669,4.1654,4.1669,4.1833,4.1399,4.0696,4.0472,4.0367,3.9963,3.9813,3.9604,3.9439,3.9388,3.9478,3.9738,3.9828,4.0023,4.0202,4.0337,4.0427,4.0516,4.0935,4.125,4.1444,4.1803,4.2043,3.3904,3.4518,3.4668,3.4996,3.5444,3.5489,3.5489,3.5489,3.5489,3.5489,3.5699,3.6222,3.6825,3.6959,3.8108,3.8616,3.8826,3.914,3.9798,4.0397,4.0726,4.1467,4.2186,4.2686,4.291,4.3254,4.3484,4.3379,4.3305,4.3604,4.3988,4.4272,4.4272,4.4496,4.4616,4.4975,4.5259,4.5289,4.5317,4.5607,4.5124,4.5183,4.5371,4.5181,4.4986,4.4543,4.4211,4.4203,4.4541,4.4333,4.33,4.2531,4.231,4.2407,4.2738,4.3537,4.4826,4.5403,4.6107,4.677,4.7207,4.7309,4.7309,4.7309,4.7309,4.7309,4.7145,4.7145,4.7279,4.7279,4.71,4.71,4.695,4.5663,4.4706,4.4122,4.3454,4.3305,4.3305,4.3305,4.3305,4.329,4.323,4.2895,4.2575,4.2366,4.2058,4.1833,4.2132,4.2342,4.2521,4.2596,4.2686,4.2162,4.1444,4.1235,4.104,4.0561,4.0113,3.9918,3.9694,3.9418,3.9538,3.9918,4.0292,4.0576,4.0741,4.0905,4.11,4.1302,4.1826,4.2171,4.2267,4.2402,4.2611]}]]